[[{"header":{"parameterUnit":"m.s-1","parameterCategory":1,"la1":31.0,"la2":29.5877,"lo1":-88.7671,"lo2":-86.6584,"dy":0.0162,"dx":0.0185,"nx":115,"ny":88,"refTime":"2023-08-14T12:00:00:Z","depth":0,"parameterNumber":2,"parameterNumberName":"U-component_of_WINDS"},"data":[0.0,0.0,0.0,0.0,0.0,0.0,0.0,0.0,0.0,0.0,0.0,0.0,0.0,0.0,0.0,0.0,0.0,0.0,0.0,0.0,0.0,0.0,0.0,0.0,0.0,0.0,0.0,0.0,0.0,0.0,0.0,0.0,0.0,0.0,0.0,0.0,0.0,0.0,0.0,0.0,0.0,0.0,0.0,0.0,0.0,0.0,0.0,0.0,0.0,0.0,0.0,0.0,0.0,0.0,0.0,0.0,0.0,0.0,0.0,0.0,0.0,0.0,0.0,0.0,0.0,0.0,0.0,0.0,0.0,0.0,0.0,0.0,0.0,0.0,0.0,0.0,0.0,0.0,0.0,0.0,0.0,0.0,0.0,0.0,0.0,0.0,0.0,0.0,0.0,0.0,0.0,0.0,0.0,0.0,0.0,0.0,0.0,0.0,0.0,0.0,0.0,0.0,0.0,0.0,0.0,0.0,0.0,0.0,0.0,0.0,0.0,0.0,0.0,0.0,0.0,0.0,0.0,0.0,0.0,0.0,0.0,0.0,0.0,0.0,0.0,0.0,0.0,0.0,0.0,0.0,0.0,0.0,0.0,0.0,0.0,0.0,0.0,0.0,0.0,0.0,0.0,0.0,0.0,0.0,0.0,0.0,0.0,0.0,0.0,0.0,0.0,0.0,0.0,0.0,0.0,0.0,0.0,0.0,0.0,0.0,0.0,0.0,0.0,0.0,0.0,0.0,0.0,0.0,0.0,0.0,0.0,0.0,0.0,0.0,0.0,0.0,0.0,0.0,0.0,0.0,0.0,0.0,0.0,0.0,0.0,0.0,0.0,0.0,0.0,0.0,0.0,0.0,0.0,0.0,0.0,0.0,0.0,0.0,0.0,0.0,0.0,0.0,0.0,0.0,0.0,0.0,0.0,0.0,0.0,0.0,0.0,0.0,0.0,0.0,0.0,0.0,0.0,0.0,0.0,0.0,0.0,0.0,0.0,0.0,0.0,0.0,0.0,0.0,0.0,0.0,0.0,0.0,0.0,0.0,0.0,0.0,0.0,0.0,0.0,0.0,0.0,0.0,0.0,0.0,0.0,0.0,0.0,0.0,0.0,0.0,0.0,0.0,0.0,0.0,0.0,0.0,0.0,0.0,0.0,0.0,0.0,0.0,0.0,0.0,0.0,0.0,0.0,0.0,0.0,0.0,0.0,0.0,0.0,0.0,0.0,0.0,0.0,0.0,0.0,0.0,0.0,0.0,0.0,0.0,0.0,0.0,0.0,0.0,0.0,0.0,0.0,0.0,0.0,0.0,0.0,0.0,0.0,0.0,0.0,0.0,0.0,0.0,0.0,0.0,0.0,0.0,0.0,0.0,0.0,0.0,0.0,0.0,0.0,0.0,0.0,0.0,0.0,0.0,0.0,0.0,0.0,0.0,0.0,0.0,0.0,0.0,0.0,0.0,0.0,0.0,0.0,0.0,0.0,0.0,0.0,0.0,0.0,0.0,0.0,0.0,0.0,0.0,0.0,0.0,0.0,0.0,0.0,0.0,0.0,0.0,0.0,0.0,0.0,0.0,0.0,0.0,0.0,0.0,0.0,0.0,0.0,0.0,0.0,0.0,0.0,0.0,0.0,0.0,0.0,0.0,0.0,0.0,0.0,0.0,0.0,0.0,0.0,0.0,0.0,0.0,0.0,0.0,0.0,0.0,0.0,0.0,0.0,0.0,0.0,0.0,0.0,0.0,0.0,0.0,0.0,0.0,0.0,0.0,0.0,0.0,0.0,0.0,0.0,0.0,0.0,0.0,0.0,0.0,0.0,0.0,0.0,0.0,0.0,0.0,0.0,0.0,0.0,0.0,0.0,0.0,0.0,0.0,0.0,0.0,0.0,0.0,0.0,0.0,0.0,0.0,0.0,0.0,0.0,0.0,0.0,0.0,0.0,0.0,0.0,0.0,0.0,0.0,0.0,0.0,0.0,0.0,0.0,0.0,0.0,0.0,0.0,0.0,0.0,0.0,0.0,0.0,0.0,0.0,0.0,0.0,0.0,0.0,0.0,0.0,0.0,0.0,0.0,0.0,0.0,0.0,0.0,0.0,0.0,0.0,0.0,0.0,0.0,0.0,0.0,0.0,0.0,0.0,0.0,0.0,0.0,0.0,0.0,0.0,0.0,0.0,0.0,0.0,0.0,0.0,0.0,0.0,0.0,0.0,0.0,0.0,0.0,0.0,0.0,0.0,0.0,0.0,0.0,0.0,0.0,0.0,0.0,0.0,0.0,0.0,0.0,0.0,0.0,0.0,0.0,0.0,0.0,0.0,0.0,0.0,0.0,0.0,0.0,0.0,0.0,0.0,0.0,0.0,0.0,0.0,0.0,0.0,0.0,0.0,0.0,0.0,0.0,0.0,0.0,0.0,0.0,0.0,0.0,0.0,0.0,0.0,0.0,0.0,0.0,0.0,0.0,0.0,0.0,0.0,0.0,0.0,0.0,0.0,0.0,0.0,0.0,0.0,0.0,0.0,0.0,0.0,0.0,0.0,0.0,0.0,0.0,0.0,0.0,0.0,0.0,0.0,0.0,0.0,0.0,0.0,0.0,0.0,0.0,0.0,0.0,0.0,0.0,0.0,0.0,0.0,0.0,0.0,0.0,0.0,0.0,0.0,0.0,0.0,0.0,0.0,0.0,0.0,0.0,0.0,0.0,0.0,0.0,0.0,0.0,0.0,0.0,0.0,0.0,0.0,0.0,0.0,0.0,0.0,0.0,0.0,0.0,0.0,0.0,0.0,0.0,0.0,0.0,0.0,0.0,0.0,0.0,0.0,0.0,0.0,0.0,0.0,0.0,0.0,0.0,0.0,0.0,0.0,0.0,0.0,0.0,0.0,0.0,0.0,0.0,0.0,0.0,0.0,0.0,0.0,0.0,0.0,0.0,0.0,0.0,0.0,0.0,0.0,0.0,0.0,0.0,0.0,0.0,0.0,0.0,0.0,0.0,0.0,0.0,0.0,0.0,0.0,0.0,0.0,0.0,0.0,0.0,0.0,0.0,0.0,0.0,0.0,0.0,0.0,0.0,0.0,0.0,0.0,0.0,0.0,0.0,0.0,0.0,0.0,0.0,0.0,0.0,0.0,0.0,0.0,0.0,0.0,0.0,0.0,0.0,0.0,0.0,0.0,0.0,0.0,0.0,0.0,0.0,0.0,0.0,0.0,0.0,0.0,0.0,0.0,0.0,0.0,0.0,0.0,0.0,0.0,0.0,0.0,0.0,0.0,0.0,0.0,0.0,0.0,0.0,0.0,0.0,0.0,0.0,0.0,0.0,0.0,0.0,0.0,0.0,0.0,0.0,0.0,0.0,0.0,0.0,0.0,0.0,0.0,0.0,0.0,0.0,0.0,0.0,0.0,0.0,0.0,0.0,0.0,0.0,0.0,0.0,0.0,0.0,0.0,0.0,0.0,0.0,0.0,0.0,0.0,0.0,0.0,0.0,0.0,0.0,0.0,0.0,0.0,0.0,0.0,0.0,0.0,0.0,0.0,0.0,0.0,0.0,0.0,0.0,0.0,0.0,0.0,0.0,0.0,0.0,0.0,0.0,0.0,0.0,0.0,0.0,0.0,0.0,0.0,0.0,0.0,0.0,0.0,0.0,0.0,0.0,0.0,0.0,0.0,0.0,0.0,0.0,0.0,0.0,0.0,0.0,0.0,0.0,0.0,0.0,0.0,0.0,0.0,0.0,0.0,0.0,0.0,0.0,0.0,0.0,0.0,0.0,0.0,0.0,0.0,0.0,0.0,0.0,0.0,0.0,0.0,0.0,0.0,0.0,0.0,0.0,0.0,0.0,0.0,0.0,0.0,0.0,0.0,0.0,0.0,0.0,0.0,0.0,0.0,0.0,0.0,0.0,0.0,0.0,0.0,0.0,0.0,0.0,0.0,0.0,0.0,0.0,0.0,0.0,0.0,0.0,0.0,0.0,0.0,0.0,0.0,0.0,0.0,0.0,0.0,0.0,0.0,0.0,0.0,0.0,0.0,0.0,0.0,0.0,0.0,0.0,0.0,0.0,0.0,0.0,0.0,0.0,0.0,0.0,0.0,0.0,0.0,0.0,0.0,0.0,0.0,0.0,0.0,0.0,0.0,0.0,0.0,0.0,0.0,0.0,0.0,0.0,0.0,0.0,0.0,0.0,0.0,0.0,0.0,0.0,0.0,0.0,0.0,0.0,0.0,0.0,0.0,0.0,0.0,0.0,0.0,0.0,0.0,0.0,0.0,0.0,0.0,-1.0697,0.0,0.0,0.0,0.0,0.0,0.0,0.0,0.0,0.0,0.0,0.0,0.0,0.0,0.0,0.0,0.0,0.0,0.0,0.0,0.0,0.0,0.0,0.0,0.0,0.0,0.0,0.0,0.0,0.0,0.0,0.0,0.0,0.0,0.0,0.0,0.0,0.0,0.0,0.0,0.0,0.0,0.0,0.0,0.0,0.0,0.0,0.0,0.0,0.0,0.0,0.0,0.0,0.0,0.0,0.0,0.0,0.0,0.0,0.0,0.0,0.0,0.0,0.0,0.0,0.0,0.0,0.0,0.0,0.0,0.0,0.0,0.0,0.0,0.0,0.0,0.0,0.0,0.0,0.0,0.0,0.0,0.0,0.0,0.0,0.0,0.0,0.0,0.0,0.0,0.0,0.0,0.0,0.0,0.0,0.0,0.0,0.0,0.0,0.0,0.0,0.0,0.0,0.0,0.0,0.0,0.0,0.0,0.0,0.0,0.0,-1.1776,-1.1636,-1.1432,-1.1163,-1.0899,0.0,0.0,0.0,0.0,0.0,0.0,0.0,0.0,0.0,0.0,0.0,0.0,0.0,0.0,0.0,0.0,0.0,0.0,0.0,0.0,0.0,0.0,0.0,0.0,0.0,0.0,0.0,0.0,0.0,0.0,0.0,0.0,0.0,0.0,0.0,0.0,0.0,0.0,0.0,0.0,0.0,0.0,0.0,0.0,0.0,0.0,0.0,0.0,0.0,0.0,0.0,0.0,0.0,0.0,0.0,0.0,0.0,0.0,0.0,0.0,0.0,0.0,0.0,0.0,0.0,0.0,0.0,0.0,0.0,0.0,0.0,0.0,0.0,0.0,0.0,0.0,0.0,0.0,0.0,0.0,0.0,0.0,0.0,0.0,0.0,0.0,0.0,0.0,0.0,0.0,0.0,0.0,0.0,0.0,0.0,0.0,0.0,0.0,0.0,0.0,0.0,0.0,0.0,0.0,0.0,0.0,0.0,0.0,0.0,0.0,0.0,0.0,-1.1701,-1.1399,-1.0926,0.0,0.0,0.0,0.0,0.0,0.0,0.0,0.0,0.0,0.0,0.0,0.0,0.0,0.0,0.0,0.0,0.0,0.0,0.0,0.0,0.0,0.0,0.0,0.0,0.0,0.0,0.0,0.0,0.0,0.0,0.0,0.0,0.0,0.0,0.0,0.0,0.0,0.0,0.0,0.0,0.0,0.0,0.0,0.0,0.0,0.0,0.0,0.0,0.0,0.0,0.0,0.0,0.0,0.0,0.0,0.0,0.0,0.0,0.0,0.0,0.0,0.0,0.0,0.0,0.0,0.0,0.0,0.0,0.0,0.0,0.0,0.0,0.0,0.0,0.0,0.0,0.0,0.0,0.0,0.0,0.0,0.0,0.0,0.0,0.0,0.0,0.0,0.0,0.0,0.0,0.0,0.0,0.0,0.0,0.0,0.0,0.0,0.0,0.0,0.0,0.0,0.0,0.0,0.0,0.0,0.0,0.0,0.0,0.0,0.0,-1.1778,-1.1455,-1.1664,0.0,-1.0353,0.0,0.0,0.0,0.0,0.0,0.0,0.0,0.0,0.0,0.0,0.0,0.0,0.0,0.0,0.0,0.0,0.0,0.0,0.0,0.0,0.0,0.0,0.0,0.0,0.0,0.0,0.0,0.0,0.0,0.0,0.0,0.0,0.0,0.0,0.0,0.0,0.0,0.0,0.0,0.0,0.0,0.0,0.0,0.0,0.0,0.0,0.0,0.0,0.0,0.0,0.0,0.0,0.0,0.0,0.0,0.0,0.0,0.0,0.0,0.0,0.0,0.0,0.0,0.0,0.0,0.0,0.0,0.0,0.0,0.0,0.0,0.0,0.0,0.0,0.0,0.0,0.0,0.0,0.0,0.0,0.0,0.0,0.0,0.0,0.0,0.0,0.0,0.0,0.0,0.0,0.0,0.0,0.0,0.0,0.0,0.0,0.0,0.0,0.0,0.0,0.0,0.0,0.0,0.0,0.0,0.0,0.0,0.0,0.0,0.0,-1.1746,-1.1802,-1.164,-1.1084,0.0,0.0,0.0,0.0,0.0,0.0,0.0,0.0,0.0,0.0,0.0,0.0,0.0,0.0,0.0,0.0,0.0,0.0,0.0,0.0,0.0,0.0,0.0,0.0,0.0,0.0,0.0,0.0,0.0,0.0,0.0,0.0,0.0,0.0,0.0,0.0,0.0,0.0,0.0,0.0,0.0,0.0,0.0,0.0,0.0,0.0,0.0,0.0,0.0,0.0,0.0,0.0,0.0,0.0,0.0,0.0,0.0,0.0,0.0,0.0,0.0,0.0,0.0,0.0,0.0,0.0,0.0,0.0,0.0,0.0,0.0,0.0,0.0,0.0,0.0,0.0,0.0,0.0,0.0,0.0,0.0,0.0,0.0,0.0,0.0,0.0,0.0,0.0,0.0,0.0,0.0,0.0,0.0,0.0,0.0,0.0,0.0,0.0,0.0,0.0,0.0,0.0,0.0,0.0,0.0,0.0,0.0,0.0,0.0,0.0,-1.1452,-1.17,-1.1957,-1.1514,-1.0841,-0.9973,0.0,0.0,0.0,0.0,0.0,0.0,0.0,0.0,0.0,0.0,0.0,0.0,0.0,0.0,0.0,0.0,0.0,0.0,0.0,0.0,0.0,0.0,0.0,0.0,0.0,0.0,0.0,0.0,0.0,0.0,0.0,0.0,0.0,0.0,0.0,0.0,0.0,0.0,0.0,0.0,0.0,0.0,0.0,0.0,0.0,0.0,0.0,0.0,0.0,0.0,0.0,0.0,0.0,0.0,0.0,0.0,0.0,0.0,0.0,0.0,0.0,0.0,0.0,0.0,0.0,0.0,0.0,0.0,0.0,0.0,0.0,0.0,0.0,0.0,0.0,0.0,0.0,0.0,0.0,0.0,0.0,0.0,0.0,0.0,0.0,0.0,0.0,0.0,0.0,0.0,0.0,0.0,0.0,0.0,0.0,0.0,0.0,0.0,0.0,0.0,0.0,0.0,0.0,0.0,0.0,0.0,0.0,0.0,-1.0916,-1.1212,-1.1533,-1.1708,-1.1195,-1.0653,0.0,0.0,0.0,0.0,0.0,0.0,0.0,0.0,0.0,0.0,0.0,0.0,0.0,0.0,0.0,0.0,0.0,0.0,0.0,0.0,0.0,0.0,0.0,0.0,0.0,0.0,0.0,0.0,0.0,0.0,0.0,0.0,0.0,0.0,0.0,0.0,0.0,0.0,0.0,0.0,0.0,0.0,0.0,0.0,0.0,0.0,0.0,0.0,0.0,0.0,0.0,0.0,0.0,0.0,0.0,0.0,0.0,0.0,0.0,0.0,0.0,0.0,0.0,0.0,0.0,0.0,0.0,0.0,0.0,0.0,0.0,0.0,0.0,0.0,0.0,0.0,0.0,0.0,0.0,0.0,0.0,0.0,0.0,0.0,0.0,0.0,0.0,0.0,0.0,0.0,0.0,0.0,0.0,0.0,0.0,0.0,0.0,0.0,0.0,0.0,0.0,0.0,0.0,0.0,0.0,0.0,0.0,0.0,0.0,-1.0697,-1.1078,-1.1276,-1.1314,-1.1179,-1.0794,0.0,0.0,0.0,0.0,0.0,0.0,0.0,0.0,0.0,0.0,0.0,0.0,0.0,0.0,0.0,0.0,0.0,0.0,0.0,0.0,0.0,0.0,0.0,0.0,0.0,0.0,0.0,0.0,0.0,0.0,0.0,0.0,0.0,0.0,0.0,0.0,0.0,0.0,0.0,0.0,0.0,0.0,0.0,0.0,0.0,0.0,0.0,0.0,0.0,0.0,0.0,0.0,0.0,0.0,0.0,0.0,0.0,0.0,0.0,0.0,0.0,0.0,0.0,0.0,0.0,0.0,0.0,0.0,0.0,0.0,0.0,0.0,0.0,0.0,0.0,0.0,0.0,0.0,0.0,0.0,0.0,0.0,0.0,0.0,0.0,0.0,0.0,0.0,0.0,0.0,0.0,0.0,0.0,0.0,0.0,0.0,0.0,0.0,0.0,0.0,0.0,0.0,0.0,0.0,0.0,0.0,0.0,0.0,0.0,-1.0666,0.0,-1.1323,-1.1283,-1.1168,-1.085,0.0,0.0,0.0,0.0,0.0,0.0,0.0,0.0,0.0,0.0,0.0,0.0,0.0,0.0,0.0,0.0,0.0,0.0,0.0,0.0,0.0,0.0,0.0,0.0,0.0,0.0,0.0,0.0,0.0,0.0,0.0,0.0,0.0,0.0,0.0,0.0,0.0,0.0,0.0,0.0,0.0,0.0,0.0,0.0,0.0,0.0,0.0,0.0,0.0,0.0,0.0,0.0,0.0,0.0,0.0,0.0,0.0,0.0,0.0,0.0,0.0,0.0,0.0,0.0,0.0,0.0,0.0,0.0,0.0,0.0,0.0,0.0,0.0,0.0,0.0,0.0,0.0,0.0,0.0,0.0,0.0,0.0,0.0,0.0,0.0,0.0,0.0,0.0,0.0,0.0,0.0,0.0,0.0,0.0,0.0,0.0,0.0,0.0,0.0,0.0,0.0,0.0,0.0,0.0,0.0,0.0,0.0,0.0,-1.0177,-1.0877,-1.1381,-1.1577,-1.1596,-1.1217,-1.0804,0.0,0.0,0.0,0.0,0.0,0.0,0.0,0.0,0.0,0.0,0.0,0.0,0.0,0.0,0.0,0.0,0.0,0.0,0.0,0.0,0.0,0.0,0.0,0.0,0.0,0.0,0.0,0.0,0.0,0.0,0.0,0.0,0.0,0.0,0.0,0.0,0.0,0.0,0.0,0.0,0.0,0.0,0.0,0.0,0.0,0.0,0.0,0.0,0.0,0.0,0.0,0.0,0.0,0.0,0.0,0.0,0.0,0.0,0.0,0.0,0.0,0.0,0.0,0.0,0.0,0.0,0.0,0.0,0.0,0.0,0.0,0.0,0.0,0.0,0.0,0.0,0.0,0.0,0.0,0.0,0.0,0.0,0.0,0.0,0.0,0.0,0.0,0.0,0.0,0.0,0.0,0.0,0.0,0.0,0.0,0.0,0.0,0.0,0.0,0.0,0.0,0.0,0.0,0.0,0.0,0.0,0.0,0.0,0.0,-1.1167,-1.1425,-1.1536,-1.1536,-1.1405,-1.1054,0.0,0.0,0.0,0.0,0.0,0.0,0.0,0.0,0.0,0.0,0.0,0.0,0.0,0.0,0.0,0.0,0.0,0.0,0.0,0.0,0.0,0.0,0.0,0.0,0.0,0.0,0.0,0.0,0.0,0.0,0.0,0.0,0.0,0.0,0.0,0.0,0.0,0.0,0.0,0.0,0.0,0.0,0.0,0.0,0.0,0.0,0.0,0.0,0.0,0.0,0.0,0.0,0.0,0.0,0.0,0.0,0.0,0.0,0.0,0.0,0.0,0.0,0.0,0.0,0.0,0.0,0.0,0.0,0.0,0.0,0.0,0.0,0.0,0.0,0.0,0.0,0.0,0.0,0.0,0.0,0.0,0.0,0.0,0.0,0.0,0.0,0.0,0.0,0.0,0.0,0.0,0.0,0.0,0.0,0.0,0.0,0.0,0.0,0.0,0.0,0.0,0.0,0.0,0.0,0.0,0.0,0.0,0.0,0.0,-1.175,-1.1826,-1.1893,-1.1986,-1.1651,-1.1199,-1.0714,0.0,0.0,0.0,0.0,0.0,0.0,0.0,0.0,0.0,0.0,0.0,0.0,0.0,0.0,0.0,0.0,0.0,0.0,0.0,0.0,0.0,0.0,0.0,0.0,0.0,0.0,0.0,0.0,0.0,0.0,0.0,0.0,0.0,0.0,0.0,0.0,0.0,0.0,0.0,0.0,0.0,0.0,0.0,0.0,0.0,0.0,0.0,0.0,0.0,0.0,0.0,0.0,0.0,0.0,0.0,0.0,0.0,0.0,0.0,0.0,0.0,0.0,0.0,0.0,0.0,0.0,0.0,0.0,0.0,0.0,0.0,0.0,0.0,0.0,0.0,0.0,0.0,0.0,0.0,0.0,0.0,0.0,0.0,0.0,0.0,0.0,0.0,0.0,0.0,0.0,0.0,0.0,0.0,0.0,0.0,0.0,0.0,0.0,0.0,0.0,0.0,0.0,0.0,0.0,0.0,0.0,0.0,0.0,-1.2611,-1.2565,-1.2637,-1.2781,-1.1933,-1.1361,0.0,0.0,0.0,0.0,0.0,0.0,0.0,0.0,0.0,0.0,0.0,0.0,0.0,0.0,0.0,0.0,0.0,0.0,0.0,0.0,0.0,0.0,0.0,0.0,0.0,0.0,0.0,0.0,0.0,0.0,0.0,0.0,0.0,0.0,0.0,0.0,0.0,0.0,0.0,0.0,0.0,0.0,0.0,0.0,0.0,0.0,0.0,0.0,0.0,0.0,0.0,0.0,0.0,0.0,0.0,0.0,0.0,0.0,0.0,0.0,0.0,0.0,0.0,0.0,0.0,0.0,0.0,0.0,0.0,0.0,0.0,0.0,0.0,0.0,0.0,0.0,0.0,0.0,0.0,0.0,0.0,0.0,0.0,0.0,0.0,0.0,0.0,0.0,0.0,0.0,0.0,0.0,0.0,0.0,0.0,0.0,0.0,0.0,0.0,0.0,0.0,0.0,0.0,0.0,0.0,0.0,0.0,0.0,0.0,-1.2617,-1.3053,-1.3125,-1.2791,-1.2609,-1.198,0.0,0.0,0.0,0.0,0.0,0.0,0.0,0.0,0.0,0.0,0.0,0.0,0.0,0.0,0.0,0.0,0.0,0.0,0.0,0.0,0.0,0.0,0.0,0.0,0.0,0.0,0.0,0.0,0.0,0.0,0.0,0.0,0.0,0.0,0.0,0.0,0.0,0.0,0.0,0.0,0.0,0.0,0.0,0.0,0.0,0.0,0.0,0.0,0.0,0.0,0.0,0.0,0.0,0.0,0.0,0.0,0.0,0.0,0.0,0.0,0.0,0.0,0.0,0.0,0.0,0.0,0.0,0.0,0.0,0.0,0.0,0.0,0.0,0.0,0.0,0.0,0.0,0.0,0.0,0.0,0.0,0.0,0.0,0.0,0.0,0.0,0.0,0.0,0.0,0.0,0.0,0.0,0.0,0.0,0.0,0.0,0.0,0.0,0.0,0.0,0.0,0.0,0.0,0.0,0.0,0.0,0.0,0.0,-1.2079,-1.2949,-1.376,-1.391,-1.3369,-1.3094,-1.2295,0.0,0.0,0.0,0.0,0.0,0.0,0.0,0.0,0.0,0.0,0.0,0.0,0.0,0.0,0.0,0.0,0.0,0.0,0.0,0.0,0.0,0.0,0.0,0.0,0.0,0.0,0.0,0.0,0.0,0.0,0.0,0.0,0.0,0.0,0.0,0.0,0.0,0.0,0.0,0.0,0.0,0.0,0.0,0.0,0.0,0.0,0.0,0.0,0.0,0.0,0.0,0.0,0.0,0.0,0.0,0.0,0.0,0.0,0.0,0.0,0.0,0.0,0.0,0.0,0.0,0.0,0.0,0.0,0.0,0.0,0.0,0.0,0.0,0.0,0.0,0.0,0.0,0.0,0.0,0.0,0.0,0.0,0.0,0.0,0.0,0.0,0.0,0.0,0.0,0.0,0.0,0.0,0.0,0.0,0.0,0.0,0.0,0.0,0.0,0.0,0.0,0.0,0.0,0.0,0.0,0.0,0.0,0.0,-1.2571,-1.341,-1.4344,-1.4678,-1.4186,-1.348,-1.2558,0.0,0.0,0.0,0.0,0.0,0.0,0.0,0.0,0.0,0.0,0.0,0.0,0.0,0.0,0.0,0.0,0.0,0.0,0.0,0.0,0.0,0.0,0.0,0.0,0.0,0.0,0.0,0.0,0.0,0.0,0.0,0.0,0.0,0.0,0.0,0.0,0.0,0.0,0.0,0.0,0.0,0.0,0.0,0.0,0.0,0.0,0.0,0.0,0.0,0.0,0.0,0.0,0.0,0.0,0.0,0.0,0.0,0.0,0.0,0.0,0.0,0.0,0.0,0.0,0.0,0.0,0.0,0.0,0.0,0.0,0.0,0.0,0.0,0.0,0.0,0.0,0.0,0.0,0.0,0.0,0.0,0.0,0.0,0.0,0.0,0.0,0.0,0.0,0.0,0.0,0.0,0.0,0.0,0.0,0.0,0.0,0.0,0.0,0.0,0.0,0.0,0.0,0.0,0.0,0.0,0.0,0.0,0.0,-1.2285,-1.3416,-1.4028,-1.4365,-1.4422,-1.3904,-1.2966,0.0,0.0,0.0,0.0,0.0,0.0,0.0,0.0,0.0,0.0,0.0,0.0,0.0,0.0,0.0,0.0,0.0,0.0,0.0,0.0,0.0,0.0,0.0,0.0,0.0,0.0,0.0,0.0,0.0,0.0,0.0,0.0,0.0,0.0,0.0,0.0,0.0,0.0,0.0,0.0,0.0,0.0,0.0,0.0,0.0,0.0,0.0,0.0,-1.0455,0.0,0.0,0.0,0.0,0.0,0.0,0.0,0.0,0.0,0.0,0.0,0.0,0.0,0.0,0.0,0.0,0.0,0.0,0.0,0.0,0.0,0.0,0.0,0.0,0.0,0.0,0.0,0.0,0.0,0.0,0.0,0.0,0.0,0.0,0.0,0.0,0.0,0.0,0.0,0.0,0.0,0.0,0.0,0.0,0.0,0.0,0.0,0.0,0.0,0.0,0.0,0.0,0.0,0.0,0.0,0.0,0.0,0.0,0.0,-1.2486,-1.3662,-1.4287,-1.4576,-1.4696,-1.4298,-1.3362,0.0,0.0,0.0,0.0,0.0,0.0,0.0,0.0,0.0,0.0,0.0,0.0,0.0,0.0,0.0,0.0,0.0,0.0,0.0,0.0,0.0,0.0,0.0,0.0,0.0,0.0,0.0,0.0,0.0,0.0,0.0,0.0,0.0,0.0,0.0,0.0,0.0,0.0,0.0,0.0,0.0,0.0,0.0,0.0,0.0,0.0,0.0,0.0,0.0,0.0,0.0,0.0,0.0,0.0,0.0,0.0,0.0,0.0,0.0,0.0,0.0,0.0,0.0,0.0,0.0,0.0,0.0,0.0,0.0,0.0,0.0,0.0,0.0,0.0,0.0,0.0,0.0,0.0,0.0,0.0,0.0,0.0,0.0,0.0,0.0,0.0,0.0,0.0,0.0,0.0,0.0,0.0,0.0,0.0,0.0,0.0,0.0,0.0,0.0,0.0,0.0,0.0,0.0,0.0,0.0,0.0,0.0,-1.171,-1.2879,-1.4048,-1.4616,-1.4937,-1.5023,-1.4656,-1.3681,-1.2071,0.0,0.0,0.0,0.0,0.0,0.0,0.0,0.0,0.0,0.0,0.0,0.0,0.0,0.0,0.0,0.0,0.0,0.0,0.0,0.0,0.0,0.0,0.0,0.0,0.0,0.0,0.0,0.0,0.0,0.0,0.0,0.0,0.0,0.0,0.0,0.0,0.0,0.0,-1.0735,-1.1505,0.0,0.0,0.0,0.0,0.0,0.0,0.0,0.0,-1.0755,0.0,0.0,0.0,0.0,0.0,0.0,0.0,0.0,0.0,0.0,0.0,0.0,0.0,0.0,0.0,0.0,0.0,0.0,0.0,0.0,0.0,0.0,0.0,0.0,0.0,0.0,0.0,0.0,0.0,0.0,0.0,0.0,0.0,0.0,0.0,0.0,0.0,0.0,0.0,0.0,0.0,0.0,0.0,0.0,0.0,0.0,0.0,0.0,0.0,0.0,0.0,0.0,0.0,0.0,0.0,0.0,-1.0555,-1.171,-1.2879,-1.4055,-1.4416,-1.483,-1.5277,-1.4563,-1.3667,-1.2701,0.0,0.0,0.0,0.0,0.0,0.0,0.0,0.0,0.0,0.0,0.0,0.0,0.0,0.0,0.0,0.0,0.0,0.0,0.0,0.0,0.0,0.0,0.0,0.0,0.0,0.0,0.0,0.0,0.0,0.0,0.0,0.0,0.0,0.0,0.0,0.0,0.0,0.0,0.0,-1.0945,-1.1308,0.0,0.0,0.0,0.0,0.0,0.0,0.0,0.0,-1.0994,0.0,0.0,0.0,0.0,0.0,0.0,0.0,0.0,0.0,0.0,0.0,0.0,0.0,0.0,0.0,0.0,0.0,0.0,0.0,0.0,0.0,0.0,0.0,0.0,0.0,0.0,0.0,0.0,0.0,0.0,0.0,0.0,0.0,0.0,0.0,0.0,0.0,0.0,0.0,0.0,0.0,0.0,0.0,0.0,0.0,0.0,0.0,0.0,0.0,0.0,0.0,0.0,0.0,0.0,0.0,-1.0611,-1.1717,-1.2806,-1.3834,-1.4442,-1.4883,-1.515,-1.4609,-1.3821,0.0,0.0,0.0,0.0,0.0,0.0,0.0,0.0,0.0,0.0,0.0,0.0,0.0,0.0,0.0,0.0,0.0,0.0,0.0,0.0,0.0,0.0,0.0,0.0,0.0,0.0,0.0,0.0,0.0,0.0,0.0,0.0,0.0,0.0,0.0,0.0,0.0,0.0,0.0,0.0,-1.1007,-1.118,-1.0983,0.0,0.0,0.0,0.0,0.0,0.0,-1.1389,-1.1244,0.0,0.0,0.0,0.0,0.0,0.0,0.0,0.0,0.0,0.0,0.0,0.0,0.0,0.0,0.0,0.0,0.0,0.0,0.0,0.0,0.0,0.0,0.0,0.0,0.0,0.0,0.0,0.0,0.0,0.0,0.0,0.0,0.0,0.0,0.0,0.0,0.0,0.0,0.0,0.0,0.0,0.0,0.0,0.0,0.0,0.0,0.0,0.0,0.0,0.0,0.0,0.0,0.0,0.0,0.0,-1.0635,-1.1737,-1.2792,-1.3794,-1.4509,-1.493,-1.503,-1.4502,-1.3841,0.0,0.0,0.0,0.0,0.0,0.0,0.0,0.0,0.0,0.0,0.0,0.0,0.0,0.0,0.0,0.0,0.0,0.0,0.0,0.0,0.0,0.0,0.0,0.0,0.0,0.0,0.0,0.0,0.0,0.0,0.0,0.0,0.0,0.0,0.0,0.0,0.0,0.0,0.0,0.0,0.0,-1.1233,-1.1192,-1.1561,0.0,0.0,0.0,0.0,-1.1792,-1.177,0.0,0.0,0.0,0.0,0.0,0.0,0.0,0.0,0.0,0.0,0.0,0.0,0.0,0.0,0.0,0.0,0.0,0.0,0.0,0.0,0.0,0.0,0.0,0.0,0.0,0.0,0.0,0.0,0.0,0.0,0.0,0.0,0.0,0.0,0.0,0.0,0.0,0.0,0.0,0.0,0.0,0.0,0.0,0.0,0.0,0.0,0.0,0.0,0.0,0.0,0.0,0.0,0.0,0.0,0.0,0.0,-1.0909,-1.1837,-1.2986,-1.4342,-1.4516,-1.4816,-1.5311,-1.4137,-1.3266,0.0,0.0,0.0,0.0,0.0,0.0,0.0,0.0,0.0,0.0,0.0,0.0,0.0,0.0,0.0,0.0,0.0,0.0,0.0,0.0,0.0,0.0,0.0,0.0,0.0,0.0,0.0,0.0,0.0,0.0,0.0,0.0,0.0,0.0,0.0,0.0,0.0,0.0,0.0,0.0,0.0,-1.1484,-1.1213,-1.149,-1.1747,0.0,0.0,-1.2282,-1.2332,-1.2946,0.0,0.0,0.0,0.0,0.0,0.0,0.0,0.0,0.0,0.0,0.0,0.0,0.0,0.0,0.0,0.0,0.0,0.0,0.0,0.0,0.0,0.0,0.0,0.0,0.0,0.0,0.0,0.0,0.0,0.0,0.0,0.0,0.0,0.0,0.0,0.0,0.0,0.0,0.0,0.0,0.0,0.0,0.0,0.0,0.0,0.0,0.0,0.0,0.0,0.0,0.0,0.0,0.0,0.0,0.0,-0.9405,-1.0837,-1.1436,-1.2486,-1.3898,-1.3559,-1.3661,-1.4251,-1.3307,-1.255,0.0,0.0,0.0,0.0,0.0,0.0,0.0,0.0,0.0,0.0,0.0,0.0,0.0,0.0,0.0,0.0,0.0,0.0,0.0,0.0,0.0,0.0,0.0,0.0,0.0,0.0,0.0,0.0,0.0,0.0,0.0,0.0,0.0,0.0,0.0,0.0,0.0,0.0,0.0,0.0,0.0,0.0,-1.1837,-1.2511,0.0,0.0,0.0,-1.3371,-1.3361,0.0,0.0,0.0,0.0,0.0,0.0,0.0,0.0,0.0,0.0,0.0,0.0,0.0,0.0,0.0,0.0,0.0,0.0,0.0,0.0,0.0,0.0,0.0,0.0,0.0,0.0,0.0,0.0,0.0,0.0,0.0,0.0,0.0,0.0,0.0,0.0,0.0,0.0,0.0,0.0,0.0,0.0,0.0,0.0,0.0,0.0,0.0,0.0,0.0,0.0,0.0,0.0,0.0,0.0,0.0,0.0,0.0,-1.0549,-1.09,-1.1809,-1.324,-1.2739,-1.268,-1.3267,-1.2463,0.0,0.0,0.0,0.0,0.0,0.0,0.0,0.0,0.0,0.0,0.0,0.0,0.0,0.0,0.0,0.0,0.0,0.0,0.0,0.0,0.0,0.0,0.0,0.0,0.0,0.0,0.0,-0.7571,0.0,0.0,0.0,0.0,0.0,0.0,0.0,0.0,0.0,0.0,0.0,0.0,0.0,0.0,-1.2959,-1.2686,-1.3464,-1.384,0.0,0.0,-1.4243,-1.4198,-1.3902,-1.3643,0.0,0.0,0.0,0.0,0.0,0.0,0.0,0.0,0.0,0.0,0.0,0.0,0.0,0.0,0.0,0.0,0.0,0.0,0.0,0.0,0.0,0.0,0.0,0.0,0.0,0.0,0.0,0.0,0.0,0.0,0.0,0.0,0.0,0.0,0.0,0.0,0.0,0.0,0.0,0.0,0.0,0.0,0.0,0.0,0.0,0.0,0.0,0.0,0.0,0.0,0.0,0.0,0.0,0.0,0.0,-0.999,-1.0402,-1.118,-1.2546,-1.2227,-1.2238,-1.2545,-1.1863,-1.1449,0.0,0.0,0.0,0.0,0.0,0.0,0.0,0.0,0.0,0.0,0.0,0.0,0.0,0.0,0.0,0.0,0.0,0.0,0.0,0.0,0.0,0.0,0.0,0.0,0.0,0.0,0.0,0.0,0.0,0.0,0.0,0.0,0.0,0.0,0.0,0.0,0.0,0.0,0.0,0.0,0.0,-1.3594,-1.3902,-1.3912,-1.4051,0.0,0.0,-1.4513,-1.4476,-1.5245,-1.5322,-1.3769,0.0,0.0,0.0,0.0,0.0,0.0,0.0,0.0,0.0,0.0,0.0,0.0,0.0,0.0,0.0,0.0,0.0,0.0,0.0,0.0,0.0,0.0,0.0,0.0,0.0,0.0,0.0,0.0,0.0,0.0,0.0,0.0,0.0,0.0,0.0,0.0,0.0,0.0,0.0,0.0,0.0,0.0,0.0,0.0,0.0,0.0,0.0,0.0,0.0,0.0,0.0,0.0,0.0,-0.8711,-1.0047,-0.9972,-1.0734,-1.2365,-1.1375,-1.1197,-1.1984,-1.1407,-1.0941,0.0,0.0,0.0,0.0,0.0,0.0,0.0,0.0,0.0,0.0,0.0,0.0,0.0,0.0,0.0,0.0,0.0,0.0,0.0,0.0,0.0,0.0,0.0,0.0,0.0,0.0,0.0,0.0,-0.8474,-0.8508,-0.914,0.0,0.0,0.0,0.0,0.0,0.0,0.0,0.0,0.0,0.0,-1.4593,-1.4395,-1.4592,0.0,0.0,-1.4519,-1.4584,-1.452,-1.4587,-1.4525,-1.4067,-1.3456,0.0,0.0,0.0,0.0,0.0,0.0,0.0,0.0,0.0,0.0,0.0,0.0,0.0,0.0,0.0,0.0,0.0,0.0,0.0,0.0,0.0,0.0,0.0,0.0,0.0,0.0,0.0,0.0,0.0,0.0,0.0,0.0,0.0,0.0,0.0,0.0,0.0,0.0,0.0,0.0,0.0,0.0,0.0,0.0,0.0,0.0,0.0,0.0,0.0,0.0,0.0,0.0,-0.8546,-0.9701,-0.9492,-1.0131,-1.174,-1.0641,-1.0554,-1.1488,-1.12,-1.0959,0.0,0.0,0.0,0.0,0.0,0.0,0.0,0.0,0.0,0.0,0.0,0.0,0.0,0.0,0.0,0.0,0.0,0.0,0.0,0.0,0.0,0.0,0.0,0.0,0.0,0.0,0.0,0.0,-0.8908,-0.8958,-0.9376,0.0,0.0,0.0,0.0,0.0,0.0,0.0,0.0,0.0,0.0,-1.5051,-1.4735,-1.4959,-1.5028,-1.4638,-1.4556,-1.454,-1.4689,-1.4313,-1.4079,-1.4017,0.0,0.0,0.0,0.0,0.0,0.0,0.0,0.0,0.0,0.0,0.0,0.0,0.0,0.0,0.0,0.0,0.0,0.0,0.0,0.0,0.0,0.0,0.0,0.0,0.0,0.0,0.0,0.0,0.0,0.0,-0.4793,0.0,0.0,0.0,0.0,0.0,0.0,0.0,0.0,0.0,0.0,0.0,0.0,0.0,0.0,0.0,0.0,0.0,0.0,0.0,0.0,0.0,0.0,-0.8441,-0.8915,-0.9038,-0.9481,-1.0361,-1.0294,-1.0646,-1.1327,-1.1453,-1.1437,-1.1279,0.0,0.0,0.0,0.0,0.0,0.0,0.0,0.0,0.0,0.0,0.0,0.0,0.0,0.0,0.0,0.0,0.0,0.0,0.0,0.0,0.0,0.0,0.0,0.0,0.0,0.0,-0.9004,-0.9408,-0.9734,0.0,0.0,0.0,0.0,0.0,0.0,0.0,0.0,0.0,0.0,-1.4347,-1.4734,-1.5148,-1.4911,-1.4773,-1.5019,-1.4581,-1.4403,-1.4958,-1.4856,-1.4369,0.0,0.0,0.0,0.0,0.0,0.0,0.0,0.0,0.0,0.0,0.0,0.0,0.0,0.0,0.0,0.0,0.0,0.0,0.0,0.0,0.0,0.0,0.0,0.0,0.0,0.0,0.0,-0.566,-0.586,0.0,0.0,0.0,0.0,0.0,0.0,0.0,0.0,0.0,0.0,0.0,-0.8689,-0.9128,0.0,0.0,0.0,0.0,0.0,0.0,0.0,0.0,0.0,0.0,0.0,0.0,-0.826,-0.9158,-0.9262,-0.9722,-1.075,-1.078,-1.1139,-1.2009,-1.2031,-1.1938,-1.1689,0.0,0.0,0.0,0.0,0.0,0.0,0.0,0.0,0.0,0.0,0.0,0.0,0.0,0.0,0.0,0.0,0.0,0.0,0.0,0.0,0.0,0.0,0.0,0.0,0.0,-0.9046,0.0,0.0,0.0,0.0,0.0,0.0,0.0,0.0,0.0,0.0,0.0,-1.3022,-1.3839,-1.4608,-1.5157,-1.5247,-1.4882,-1.4621,0.0,0.0,0.0,0.0,0.0,0.0,0.0,0.0,0.0,0.0,0.0,0.0,0.0,0.0,-1.4642,-1.3204,-1.279,-1.2659,-1.2582,0.0,0.0,0.0,0.0,0.0,0.0,0.0,0.0,0.0,0.0,0.0,0.0,0.0,0.0,-0.66,0.0,-0.7096,0.0,0.0,0.0,0.0,0.0,0.0,0.0,0.0,-0.9567,-1.0085,-1.0148,-1.0457,-1.0655,0.0,-1.0564,-0.9953,0.0,0.0,0.0,0.0,0.0,0.0,0.0,0.0,-0.8635,-0.9463,-0.9636,-1.0233,-1.13,-1.1505,-1.1997,-1.2975,-1.2893,-1.2606,-1.2371,-1.167,-1.1048,0.0,0.0,0.0,0.0,0.0,0.0,0.0,0.0,0.0,0.0,0.0,0.0,0.0,0.0,0.0,0.0,0.0,0.0,0.0,0.0,0.0,0.0,0.0,-0.952,0.0,0.0,0.0,0.0,0.0,0.0,0.0,0.0,0.0,-1.2219,-1.2848,-1.3459,-1.3941,-1.4662,-1.509,-1.4961,0.0,0.0,0.0,0.0,0.0,0.0,0.0,-1.5593,-1.5643,-1.5781,-1.603,-1.6691,-1.7339,-1.7687,-1.721,0.0,0.0,-1.4531,-1.3945,-1.3809,-1.3955,-1.4336,-1.4746,-1.5186,-1.5811,-1.6269,0.0,0.0,0.0,0.0,0.0,0.0,0.0,0.0,-0.6824,-0.7159,0.0,-0.8172,0.0,0.0,0.0,0.0,0.0,-0.9417,0.0,0.0,-1.0846,-1.1379,-1.1415,-1.162,-1.1838,-1.1836,-1.1641,-1.1324,-1.1049,-1.0383,0.0,0.0,0.0,0.0,0.0,0.0,-0.953,-0.9932,-1.0228,-1.0927,-1.2065,-1.2394,-1.3053,-1.4205,-1.3848,-1.3426,-1.3206,-1.2365,-1.1821,-1.1573,-1.0918,0.0,0.0,0.0,0.0,0.0,0.0,0.0,0.0,0.0,0.0,0.0,0.0,0.0,0.0,0.0,0.0,0.0,0.0,0.0,0.0,-0.9796,0.0,0.0,0.0,0.0,0.0,0.0,0.0,0.0,0.0,0.0,-1.3441,-1.3764,-1.4028,-1.4234,0.0,0.0,0.0,0.0,-1.4872,-1.4675,-1.4941,-1.5263,-1.5449,-1.6056,-1.625,-1.579,0.0,0.0,-1.7389,-1.7674,-1.7988,-1.8076,-1.8096,-1.7539,-1.5889,-1.5518,-1.5586,-1.6066,-1.6396,-1.6885,-1.7314,-1.7637,-1.7871,-0.852,0.0,0.0,0.0,0.0,-0.7648,-0.7997,-0.8537,-0.8537,-0.8636,-0.8652,-0.8894,0.0,0.0,0.0,0.0,0.0,0.0,-1.0934,-1.0964,-1.1932,-1.2389,-1.2422,-1.2787,-1.3004,-1.3063,-1.2899,-1.2567,-1.2078,-1.2003,-1.1292,-1.0037,0.0,0.0,0.0,0.0,-0.9974,-1.0263,-1.1137,-1.1958,-1.2553,-1.3188,-1.3694,-1.4231,-1.3848,-1.3607,-1.3514,-1.2859,-1.2432,-1.2123,-1.1608,0.0,0.0,0.0,0.0,0.0,0.0,0.0,0.0,0.0,0.0,0.0,0.0,0.0,0.0,0.0,0.0,0.0,0.0,0.0,-1.0584,-1.1031,-1.1353,0.0,0.0,0.0,0.0,0.0,0.0,0.0,0.0,0.0,-1.5005,-1.4431,-1.4087,0.0,0.0,-1.4903,-1.5061,-1.5078,-1.5076,-1.5012,-1.5593,0.0,-1.5903,-1.6671,-1.7107,-1.6985,-1.7792,-1.86,-1.8979,-1.949,-1.9727,-1.9414,-1.9375,-1.9092,-1.834,-1.7412,-1.7012,-1.7363,-1.7559,-1.7783,-1.8193,-1.8623,-1.8815,-0.9923,-0.9283,-0.8663,-0.8486,-0.8581,-0.8669,-0.9081,-0.9553,-0.972,-0.9908,-1.0134,-1.0481,-1.0593,-1.0489,-1.0469,0.0,0.0,0.0,-1.1949,-1.2047,-1.2652,-1.3005,-1.319,-1.3745,-1.3877,-1.3755,-1.3866,-1.3663,-1.2973,-1.3188,-1.2764,-1.1805,0.0,0.0,-1.0616,-1.0762,-1.1096,-1.1467,-1.2333,-1.3026,-1.3508,-1.4284,-1.4625,-1.4508,-1.4262,-1.4055,-1.3821,-1.3474,-1.3093,-1.2679,-1.2357,-1.169,0.0,0.0,0.0,0.0,0.0,0.0,0.0,0.0,0.0,0.0,0.0,-0.9863,0.0,0.0,0.0,0.0,-1.0229,-1.0695,-1.1488,-1.1766,0.0,0.0,0.0,0.0,0.0,0.0,0.0,-1.442,-1.4698,-1.5112,-1.5917,-1.5479,-1.5181,-1.5454,-1.546,-1.5446,-1.5561,0.0,-1.5674,-1.5749,-1.6342,-1.6726,-1.6668,-1.7304,-1.7913,-1.8145,-1.8875,-1.9383,-1.9509,-1.9954,-2.0137,-1.9805,-1.9805,-1.9824,-1.9487,-1.9023,-1.8643,-1.874,-1.876,-1.8906,-1.9316,-1.9609,-1.9681,-1.1182,-1.1379,-1.0151,-0.96,-0.9569,-0.958,-0.981,-1.0251,-1.0693,-1.1179,-1.1703,-1.2621,-1.2945,-1.281,-1.2825,0.0,-1.291,-1.2908,-1.3025,-1.3214,-1.3228,-1.3459,-1.3946,-1.4494,-1.4618,-1.4293,-1.469,-1.446,-1.3997,-1.4095,-1.405,-1.3992,-1.2614,-1.2032,-1.2227,-1.2246,-1.2537,-1.3175,-1.3585,-1.4023,-1.4775,-1.5477,-1.5531,-1.4983,-1.4923,-1.4623,-1.4082,-1.3995,-1.3734,-1.32,-1.3047,-1.243,-1.1281,0.0,0.0,0.0,0.0,0.0,0.0,0.0,0.0,0.0,0.0,0.0,0.0,0.0,0.0,0.0,-1.0747,0.0,-1.2192,-1.2276,0.0,0.0,0.0,-1.3189,-1.3911,-1.4279,-1.4768,-1.5476,0.0,0.0,-1.6422,-1.6805,-1.6917,-1.6672,-1.641,-1.6167,-1.6011,-1.6324,-1.6566,-1.6766,-1.725,-1.7643,-1.7612,-1.8126,-1.8643,-1.9165,-1.9658,-1.9775,-1.9551,-1.9746,-1.9795,-1.9541,-1.9717,-1.9961,-1.9771,-2.0119,-2.0439,-1.9905,-1.9932,-2.0059,-2.0304,-2.0401,-2.0149,-1.1177,-1.1094,-1.1045,-1.1144,-1.1309,-1.1686,-1.2162,-1.253,-1.2871,-1.2882,-1.284,-1.3113,-1.3322,-1.3267,-1.365,-1.3753,-1.3602,-1.3927,-1.4024,-1.3939,-1.4326,-1.4543,-1.4753,-1.503,-1.5377,-1.5464,-1.5612,-1.5475,-1.5082,-1.5166,-1.4898,-1.4499,-1.4146,-1.3791,-1.3353,-1.3401,-1.3436,-1.3534,-1.4333,-1.4975,-1.5536,-1.5485,-1.5331,-1.4977,-1.4529,-1.4122,-1.3761,-1.33,-1.3077,-1.2852,-1.2647,-1.2143,-1.1553,-1.1304,0.0,0.0,0.0,0.0,0.0,0.0,0.0,0.0,0.0,-1.1019,-1.1494,0.0,-1.1615,0.0,-1.1544,-1.2106,-1.2601,-1.3216,0.0,0.0,-1.4189,-1.4476,-1.5029,-1.5322,-1.5715,-1.6295,-1.6713,-1.7177,-1.7828,-1.8114,-1.8344,-1.8593,-1.7965,-1.7569,-1.7769,-1.7914,-1.804,-1.8156,-1.8447,-1.8634,-1.8605,-1.8856,-1.9195,-1.9697,-1.9853,-1.998,-2.0215,-2.0342,-2.0371,-2.0283,-2.0332,-2.04,-2.0371,-2.0498,-2.0362,-1.9936,-2.0082,-2.0362,-2.0167,-2.0098,-1.9835,-1.209,-1.2285,-1.2346,-1.28,-1.3302,-1.233,-1.2303,-1.317,-1.3535,-1.3925,-1.4255,-1.4539,-1.473,-1.4743,-1.4866,-1.486,-1.4744,-1.4778,-1.4783,-1.4676,-1.5148,-1.5188,-1.5048,-1.5946,-1.6101,-1.5742,-1.6168,-1.6248,-1.5686,-1.5878,-1.5768,-1.5456,-1.5526,-1.5347,-1.4835,-1.4615,-1.4465,-1.4553,-1.5089,-1.5547,-1.5825,-1.5545,-1.5257,-1.4963,-1.4396,-1.3948,-1.3647,-1.3193,-1.2886,-1.2829,-1.2585,-1.2304,-1.179,-1.1669,-1.1372,0.0,0.0,0.0,0.0,0.0,0.0,0.0,0.0,0.0,0.0,0.0,-1.2623,-1.2522,-1.2772,-1.3207,-1.3811,-1.438,-1.4807,-1.5022,-1.5064,-1.5314,-1.5939,-1.607,-1.6453,-1.7277,-1.7562,-1.802,-1.8701,-1.8893,-1.9132,-1.9678,-1.9322,-1.8966,-1.8854,-1.8769,-1.8784,-1.8912,-1.9058,-1.9141,-1.9141,-1.9214,-1.9365,-1.959,-1.9795,-1.9941,-1.999,-2.0146,-2.0225,-2.0049,-2.0146,-2.0264,-2.0072,-2.0101,-1.9972,-1.9524,-1.9562,-1.9687,-1.9706,-1.9627,-1.9469,-1.3254,-1.4057,-1.3725,-1.4155,-1.5062,-1.235,-1.2056,-1.3341,-1.4002,-1.4822,-1.5803,-1.6239,-1.6387,-1.6344,-1.6134,-1.6021,-1.5968,-1.5537,-1.5327,-1.5284,-1.5641,-1.5507,-1.5106,-1.6712,-1.6901,-1.5742,-1.672,-1.6908,-1.6105,-1.6624,-1.6695,-1.6426,-1.6645,-1.656,-1.6273,-1.5608,-1.5363,-1.5825,-1.5825,-1.5812,-1.5772,-1.5524,-1.5237,-1.491,-1.4376,-1.3928,-1.3519,-1.3307,-1.3006,-1.2788,-1.2761,-1.2533,-1.1951,-1.2026,-1.1839,0.0,-1.1581,0.0,0.0,0.0,0.0,0.0,0.0,0.0,0.0,-1.3092,-1.3726,-1.4148,-1.407,-1.4372,-1.5133,-1.5463,-1.5585,-1.5724,-1.57,-1.6038,-1.6792,-1.6793,-1.7259,-1.8399,-1.8523,-1.8754,-1.9362,-1.946,-1.9696,-2.0177,-2.0313,-2.0072,-1.9612,-1.9362,-1.9309,-1.9453,-1.9443,-1.9551,-1.9531,-1.9502,-1.9502,-1.9521,-1.9795,-1.9863,-1.96,-1.9805,-1.9902,-1.9629,-1.9769,-1.9763,-1.9345,-1.9406,-1.9228,-1.8664,-1.8576,-1.8736,-1.9063,-1.9143,-1.9063,-1.4288,-1.438,-1.4316,-1.428,-1.415,-1.3678,-1.4572,-1.6219,-1.6348,-1.6586,-1.6808,-1.6888,-1.677,-1.6603,-1.6549,-1.6425,-1.6231,-1.5946,-1.5715,-1.5526,-1.5601,-1.5594,-1.5575,-1.6666,-1.6979,-1.6867,-1.7495,-1.7668,-1.7265,-1.7371,-1.733,-1.7045,-1.6847,-1.656,-1.6279,0.0,0.0,0.0,-1.5825,-1.5718,-1.5491,-1.5424,-1.5144,-1.4623,-1.4275,0.0,-1.332,-1.2993,-1.2699,-1.2405,-1.2385,0.0,0.0,0.0,0.0,0.0,0.0,0.0,0.0,0.0,0.0,0.0,-1.3245,-1.3652,-1.3621,-1.4274,-1.4749,-1.4814,-1.5016,-1.5275,-1.5414,-1.5856,-1.638,-1.6817,-1.684,-1.7103,-1.7695,-1.7869,-1.8186,-1.8816,-1.9143,-1.9529,-2.002,-2.0255,-2.0411,-2.0489,-2.0566,-2.0459,-2.0382,-2.0265,-2.0322,-2.0322,-2.0264,-2.0293,-2.0322,-2.0293,-2.0234,-2.0342,-2.0361,-2.0391,-2.0293,-2.0332,-2.043,-2.0293,-1.9995,-1.9615,-1.9325,-1.9043,-1.8541,-1.7645,-1.7794,-1.8193,-1.8514,-1.8505,-1.8425,-1.5405,0.0,-1.5443,-1.537,0.0,-1.5551,-1.606,-1.7001,-1.6478,-1.6478,-1.7001,-1.7001,-1.6942,-1.6824,-1.671,-1.6597,-1.6468,-1.6108,-1.5887,-1.5768,-1.6001,-1.6049,-1.6155,-1.7213,-1.7647,-1.7582,-1.8,-1.811,-1.7816,-1.7655,-1.7435,-1.7148,-1.6854,-1.656,-1.6273,-1.5979,-1.5825,-1.5825,-1.5825,-1.5758,-1.5611,-1.5471,-1.5184,-1.475,-1.4315,0.0,0.0,0.0,0.0,0.0,0.0,0.0,0.0,-1.2612,0.0,-1.2682,-1.2675,-1.2675,-1.2764,-1.2893,-1.3127,-1.3355,-1.4337,-1.4858,-1.4642,-1.5054,-1.5444,-1.5622,-1.5731,-1.5976,-1.6239,-1.6653,-1.7,-1.7405,-1.7766,-1.8091,-1.8327,-1.8585,-1.8984,-1.939,-1.9618,-1.9932,-2.0411,-2.0576,-2.0576,-2.0576,-2.0576,-2.0576,-2.0576,-2.0576,-2.0576,-2.0576,-2.0576,-2.0566,-2.0576,-2.0566,-2.0469,-2.0332,-2.042,-2.0459,-2.0273,-2.042,-2.0576,-2.0566,-2.0089,-1.9404,-1.8804,-1.8399,-1.79,-1.7171,-1.7147,-1.7465,-1.7708,-1.7789,-1.7861,-1.6589,-1.6812,-1.6671,-1.6718,-1.7066,-1.7023,-1.7001,-1.6877,0.0,0.0,0.0,-1.7001,-1.7001,-1.699,-1.6807,-1.6721,-1.6694,-1.6231,-1.6011,-1.6122,-1.6317,-1.6537,-1.6537,-1.783,-1.8275,-1.8002,-1.8295,-1.8337,-1.8043,-1.7736,-1.7468,-1.7221,-1.6927,-1.6613,-1.6279,-1.5979,-1.5825,-1.5825,-1.5825,-1.5778,-1.5678,-1.5491,-1.5257,-1.497,-1.4442,-1.4021,-1.3728,-1.344,-1.3267,-1.3213,-1.3206,-1.3206,-1.3206,-1.3206,-1.3206,-1.3213,-1.3253,-1.3293,-1.3287,-1.3333,-1.352,-1.3992,-1.518,-1.5754,-1.5506,-1.5755,-1.6062,-1.6357,-1.6301,-1.6493,-1.7025,-1.7302,-1.7473,-1.7781,-1.8282,-1.8692,-1.8772,-1.9161,-1.946,-1.9872,-2.002,-2.0177,-2.0489,-2.0566,-2.0576,-2.0576,-2.0576,-2.0576,-2.0576,-2.0576,-2.0576,-2.0576,-2.0576,-2.0576,-2.0576,-2.0576,-2.042,-2.0176,-2.0361,-2.042,-2.0195,-2.0322,-2.0537,-2.0401,-1.9923,-1.9131,-1.8197,-1.7743,-1.7334,-1.6839,-1.6659,-1.673,-1.6976,-1.7147,-1.731,-1.7792,-1.7866,-1.7427,-1.7362,-1.7308,-1.7098,-1.7001,-1.7001,-1.6872,-1.6877,-1.7001,-1.7001,-1.7001,-1.7001,-1.6969,-1.6958,-1.6926,-1.6468,-1.6264,-1.6237,-1.6401,-1.6537,-1.6537,-1.783,-1.8275,-1.8008,-1.8407,-1.8337,-1.8043,-1.7736,-1.7562,-1.7488,-1.7235,-1.6814,-1.6293,-1.5979,-1.5825,-1.5825,-1.5825,-1.5585,-1.5104,-1.5291,-1.5257,-1.497,-1.4643,-1.4322,-1.4035,-1.3741,-1.3467,-1.3227,-1.3206,-1.3206,-1.3213,-1.322,-1.3206,-1.322,-1.3447,-1.3499,-1.3581,-1.3821,-1.4122,-1.4615,-1.5141,-1.5606,-1.5944,-1.6493,-1.6928,-1.6976,-1.6716,-1.6756,-1.7049,-1.731,-1.7554,-1.787,-1.8282,-1.8594,-1.9152,-1.9399,-1.9794,-2.0186,-2.042,-2.0489,-2.0566,-2.0576,-2.0576,-2.0576,-2.0576,-2.0576,-2.0576,-2.0576,-2.0576,-2.0576,-2.0576,-2.0576,-2.0566,-2.0566,-2.0478,-2.0488,-2.0498,-2.0585,-2.0332,-2.042,-2.0353,-1.9825,-1.9246,-1.8621,-1.7874,-1.7269,-1.6886,-1.669,-1.6722,-1.673,-1.6812,-1.682,-1.6894,-1.8099,-1.8073,-1.7857,-1.761,-1.7356,-1.7109,-1.7001,-1.7001,-1.7001,-1.7001,-1.7001,-1.7001,-1.7001,-1.7001,-1.7001,-1.7001,-1.699,-1.6651,-1.6556,-1.678,-1.6793,-1.7019,-1.7602,-1.8188,-1.8391,-1.8457,-1.8512,-1.8337,-1.8043,-1.7729,-1.7589,-1.7562,-1.7288,-1.6934,-1.6526,-1.6373,-1.6146,-1.5838,-1.5671,-1.5545,-1.5431,-1.5411,-1.5331,-1.5197,-1.5057,-1.4863,-1.4576,-1.4275,-1.4062,-1.3928,-1.3768,-1.3687,-1.3687,-1.3681,-1.3687,-1.3694,-1.3808,-1.3964,-1.4207,-1.458,-1.4992,-1.5416,-1.5401,-1.5591,-1.6029,-1.6316,-1.6402,-1.6229,-1.673,-1.6902,-1.6656,-1.7139,-1.7619,-1.7781,-1.8353,-1.8913,-1.939,-1.9863,-2.0255,-2.0411,-2.0566,-2.0576,-2.0576,-2.0576,-2.0576,-2.0576,-2.0576,-2.0576,-2.0566,-2.0566,-2.0566,-2.0557,-2.0371,-2.0342,-2.0488,-2.0352,-2.0234,-2.0205,-2.041,-2.0342,-2.0049,-2.0029,-1.9966,-1.9359,-1.8737,-1.8197,-1.7721,-1.7131,-1.6812,-1.673,-1.673,-1.673,-1.673,-1.673,-1.673,-1.8126,-1.8169,-1.8116,-1.7814,-1.7373,-1.7168,-1.706,-1.7007,-1.7001,-1.7001,-1.7001,-1.7001,-1.7001,-1.7001,-1.7001,-1.7001,-1.6964,-1.6832,-1.698,-1.7156,-1.7213,-1.7672,-1.8317,-1.8538,-1.8744,-1.8805,-1.8631,-1.8337,-1.8043,-1.7736,-1.7589,-1.7549,-1.7228,-1.6961,-1.6807,-1.6673,-1.638,-1.5939,-1.5645,-1.5571,-1.5718,-1.5571,-1.5498,-1.5491,-1.5424,-1.5291,-1.5064,-1.4776,-1.4623,-1.4609,-1.4409,-1.4289,-1.4282,-1.4289,-1.4282,-1.4282,-1.43,-1.448,-1.4741,-1.5144,-1.5484,-1.559,-1.5401,-1.5318,-1.559,-1.5756,-1.5748,-1.5733,-1.6648,-1.6984,-1.6648,-1.7302,-1.7861,-1.7861,-1.8585,-1.9231,-1.9715,-2.0264,-2.0566,-2.0566,-2.0576,-2.0576,-2.0576,-2.0576,-2.0576,-2.0576,-2.0576,-2.0576,-2.0566,-2.0498,-2.0439,-2.0459,-2.0195,-1.999,-2.0244,-2.0117,-1.9951,-1.9922,-2.0176,-2.0098,-1.9707,-1.9623,-1.9363,-1.8831,-1.8243,-1.7787,-1.7527,-1.6968,-1.6643,-1.6683,-1.6651,-1.6627,-1.6714,-1.673,-1.673,-1.8202,-1.8358,-1.8175,-1.7814,-1.741,-1.7356,-1.7211,-1.7028,-1.7001,-1.7001,-1.699,-1.7001,-1.7001,-1.7001,-1.7001,-1.699,-1.7087,-1.7166,-1.719,-1.7357,-1.7982,-1.833,-1.8538,-1.901,-1.9212,-1.8918,-1.8631,-1.8337,-1.8036,-1.7736,-1.7589,-1.7522,-1.7027,-1.6901,-1.7027,-1.66,-1.6299,-1.6226,-1.5939,-1.5671,-1.5464,-1.5671,-1.5792,-1.5785,-1.5531,-1.5384,-1.5351,-1.5077,-1.4923,-1.4923,-1.489,-1.4877,-1.487,-1.4966,-1.4966,-1.4952,-1.5053,-1.4956,-1.4776,-1.5144,-1.5075,-1.4419,-1.4664,-1.4657,-1.4419,-1.4657,-1.5311,-1.6057,-1.6566,-1.6812,-1.7057,-1.7789,-1.8273,-1.8256,-1.8904,-1.9539,-2.0108,-2.0264,-2.042,-2.0566,-2.0576,-2.0576,-2.0576,-2.0576,-2.0576,-2.0576,-2.0576,-2.0576,-2.0547,-2.0312,-2.0195,-2.0391,-2.0185,-1.9795,-1.9639,-1.9727,-1.9775,-1.9853,-1.9922,-1.9844,-1.9603,-1.9094,-1.8462,-1.8208,-1.764,-1.722,-1.6887,-1.6508,-1.6389,-1.6571,-1.6524,-1.6389,-1.6635,-1.673,-1.673,-1.7803,-1.8013,-1.8073,-1.7986,-1.7782,-1.7507,-1.7319,-1.7217,-1.7071,-1.7189,-1.734,-1.7065,-1.7001,-1.6996,-1.724,-1.7307,-1.7412,-1.7706,-1.7946,-1.8155,-1.852,-1.8698,-1.9023,-1.9249,-1.9212,-1.8918,-1.8631,-1.8337,-1.8043,-1.7736,-1.7589,-1.7569,-1.7328,-1.7288,-1.7382,-1.7161,-1.6967,-1.6787,-1.65,-1.6206,-1.5919,-1.5685,-1.5658,-1.5798,-1.5712,-1.5651,-1.5625,-1.5378,-1.5224,-1.5204,-1.5064,-1.506,-1.506,-1.506,-1.5136,-1.5383,-1.5806,-1.5826,-1.5347,-1.542,-1.5314,-1.5078,-1.4592,-1.4328,-1.4496,-1.4573,-1.5151,-1.6229,-1.6804,-1.7123,-1.7359,-1.8184,-1.8763,-1.8754,-1.9134,-1.9696,-2.0186,-2.0411,-2.0498,-2.0566,-2.0576,-2.0576,-2.0576,-2.0576,-2.0576,-2.0576,-2.0566,-2.0566,-2.0547,-2.04,-2.0273,-2.0146,-1.9824,-1.9639,-1.957,-1.9307,-1.9336,-1.9463,-1.9541,-1.9502,-1.9083,-1.8619,-1.8008,-1.7672,-1.7132,-1.6752,-1.6501,-1.6341,-1.6269,-1.6412,-1.6595,-1.6571,-1.6714,-1.673,-1.673,-1.7647,-1.7922,-1.8116,-1.8148,-1.8056,-1.7647,-1.7526,-1.7511,-1.7276,-1.7412,-1.7719,-1.75,-1.7324,-1.7313,-1.7581,-1.7634,-1.7787,-1.8165,-1.8555,-1.8835,-1.8877,-1.9083,-1.9379,-1.9366,-1.9212,-1.8931,-1.8718,-1.8417,-1.8056,-1.7729,-1.7589,-1.7575,-1.7508,-1.7502,-1.7569,-1.7515,-1.7361,-1.725,-1.6927,-1.6647,-1.6266,-1.5858,-1.5698,-1.5818,-1.5825,-1.5825,-1.5825,-1.5625,-1.5518,-1.5504,-1.5311,-1.5204,-1.5197,-1.5197,-1.5429,-1.5963,-1.6367,-1.6443,-1.6009,-1.5618,-1.5468,-1.5412,-1.4651,-1.4338,-1.451,-1.465,-1.5151,-1.6229,-1.696,-1.744,-1.7772,-1.8585,-1.9082,-1.9152,-1.9539,-1.9932,-2.0333,-2.0489,-2.0576,-2.0576,-2.0576,-2.0576,-2.0576,-2.0576,-2.0576,-2.0576,-2.0566,-2.0488,-2.042,-2.0352,-2.0244,-1.9941,-1.9473,-1.9248,-1.9463,-1.9121,-1.8857,-1.8955,-1.9102,-1.8971,-1.8485,-1.8037,-1.747,-1.7119,-1.6649,-1.6259,-1.6108,-1.6023,-1.6023,-1.6134,-1.6389,-1.669,-1.673,-1.673,-1.673,-1.7981,-1.8363,-1.8412,-1.8282,-1.8073,-1.7809,-1.7835,-1.7961,-1.7684,-1.7798,-1.8201,-1.8089,-1.8077,-1.8089,-1.7775,-1.7775,-1.8159,-1.862,-1.8841,-1.8903,-1.9161,-1.9386,-1.9366,-1.9366,-1.9219,-1.8978,-1.8898,-1.8584,-1.8056,-1.7736,-1.7589,-1.7575,-1.7341,-1.7328,-1.7508,-1.7321,-1.7277,-1.7174,-1.7101,-1.6854,-1.6366,-1.6253,-1.6072,-1.5879,-1.5832,-1.5825,-1.5825,-1.5812,-1.5805,-1.5805,-1.5765,-1.5765,-1.5772,-1.5765,-1.6099,-1.6661,-1.6784,-1.6645,-1.6389,-1.5853,-1.5313,-1.4764,-1.4596,-1.4376,-1.4318,-1.4587,-1.5151,-1.6064,-1.696,-1.7691,-1.8264,-1.8993,-1.9469,-1.9381,-1.9863,-2.0333,-2.0566,-2.0566,-2.0576,-2.0576,-2.0576,-2.0576,-2.0576,-2.0576,-2.0576,-2.0576,-2.0576,-2.0459,-2.0166,-2.0029,-2.001,-1.9844,-1.9355,-1.864,-1.873,-1.8623,-1.8543,-1.8582,-1.8479,-1.8456,-1.8033,-1.7605,-1.7033,-1.6563,-1.6086,-1.5823,-1.5695,-1.5626,-1.5626,-1.584,-1.6365,-1.6643,-1.6611,-1.6706,-1.673,-1.7782,-1.8212,-1.8218,-1.8245,-1.8266,-1.7889,-1.7934,-1.8126,-1.7839,-1.7925,-1.8465,-1.8319,-1.8465,-1.8976,-1.8524,-1.8477,-1.8601,-1.9056,-1.9168,-1.9155,-1.9296,-1.9366,-1.9366,-1.9366,-1.9325,-1.9199,-1.9005,-1.8624,-1.8063,-1.7736,-1.7589,-1.7575,-1.7482,-1.7482,-1.7515,-1.7398,-1.7235,-1.7368,-1.7074,-1.684,-1.6794,-1.6466,-1.6213,-1.6112,-1.5925,-1.5825,-1.5825,-1.5825,-1.5825,-1.5825,-1.6109,-1.6298,-1.6298,-1.6581,-1.6714,-1.6795,-1.6744,-1.6791,-1.6584,-1.6031,-1.5438,-1.5147,-1.4716,-1.4663,-1.4778,-1.5028,-1.5567,-1.6394,-1.7294,-1.8031,-1.8603,-1.9311,-1.9794,-1.9775,-2.0177,-2.0489,-2.0566,-2.0576,-2.0576,-2.0576,-2.0576,-2.0576,-2.0576,-2.0576,-2.0576,-2.0576,-2.0576,-2.0478,-2.0391,-2.0322,-2.0303,-2.0234,-1.9844,-1.9355,-1.9062,-1.8545,-1.8173,-1.7956,-1.7827,-1.7567,-1.7248,-1.6974,-1.648,-1.6178,-1.5697,-1.5559,-1.5507,-1.5713,-1.5642,-1.5761,-1.6285,-1.6508,-1.6428,-1.6619,-1.6706,-1.768,-1.7949,-1.7976,-1.8062,-1.8148,-1.7782,-1.7824,-1.8277,-1.7984,-1.8239,-1.8816,-1.8665,-1.8896,-1.9316,-1.9103,-1.9063,-1.9043,-1.9336,-1.9366,-1.9366,-1.9366,-1.9366,-1.9366,-1.9366,-1.9366,-1.9319,-1.9065,-1.8664,-1.821,-1.7876,-1.7689,-1.7582,-1.7589,-1.7589,-1.7549,-1.7382,-1.7395,-1.7462,-1.7094,-1.6954,-1.7061,-1.6573,-1.6273,-1.6219,-1.6082,-1.5785,-1.5698,-1.5967,-1.5961,-1.5994,-1.6525,-1.677,-1.6676,-1.7052,-1.7137,-1.6849,-1.6728,-1.6728,-1.6614,-1.6064,-1.5558,-1.5463,-1.5224,-1.5096,-1.5231,-1.5679,-1.6194,-1.677,-1.7465,-1.8201,-1.8692,-1.932,-1.9784,-1.9942,-2.0333,-2.0566,-2.0576,-2.0576,-2.0576,-2.0576,-2.0576,-2.0576,-2.0576,-2.0576,-2.0576,-2.0576,-2.0576,-2.0605,-2.04,-2.0498,-2.042,-2.0195,-1.9844,-1.9424,-1.9023,-1.8447,-1.785,-1.7605,-1.7467,-1.7125,-1.6535,-1.6281,-1.6005,-1.578,-1.5585,-1.5458,-1.5483,-1.5729,-1.5817,-1.5825,-1.6118,-1.6412,-1.6468,-1.6595,-1.6675,-1.7706,-1.7739,-1.7723,-1.7739,-1.7723,-1.7507,-1.7759,-1.8327,-1.8297,-1.8632,-1.9232,-1.9296,-1.9309,-1.9372,-1.9399,-1.9392,-1.9399,-1.9379,-1.9366,-1.9366,-1.9366,-1.9366,-1.9366,-1.9366,-1.9366,-1.9352,-1.9065,-1.8784,-1.8484,-1.8163,-1.7869,-1.7649,-1.7595,-1.7589,-1.7589,-1.7528,-1.7542,-1.7502,-1.7235,-1.7224,-1.7183,-1.6587,-1.6286,-1.6337,-1.6223,-1.5899,-1.5503,-1.6106,-1.6392,-1.6211,-1.6865,-1.703,-1.6763,-1.7052,-1.7037,-1.6648,-1.656,-1.6567,-1.656,-1.6149,-1.5718,-1.5584,-1.5831,-1.5798,-1.5698,-1.6375,-1.6889,-1.6958,-1.7546,-1.8201,-1.8692,-1.9161,-1.9539,-1.9863,-2.0333,-2.0566,-2.0576,-2.0576,-2.0576,-2.0576,-2.0576,-2.0576,-2.0576,-2.0576,-2.0576,-2.0576,-2.0566,-2.0459,-2.0225,-2.0391,-2.0176,-1.9697,-1.9467,-1.9232,-1.8734,-1.8261,-1.7732,-1.7332,-1.7263,-1.6987,-1.6227,-1.5787,-1.561,-1.5381,-1.5372,-1.5245,-1.5292,-1.5523,-1.5674,-1.5761,-1.6071,-1.6246,-1.6317,-1.6404,-1.6627,-1.7572,-1.7712,-1.7717,-1.7626,-1.7491,-1.741,-1.7787,-1.8303,-1.8189,-1.8709,-1.9322,-1.9366,-1.9366,-1.9366,-1.9366,-1.9366,-1.9366,-1.9366,-1.9366,-1.9366,-1.9366,-1.9366,-1.9366,-1.9366,-1.9366,-1.9319,-1.9065,-1.8885,-1.8704,-1.829,-1.7983,-1.7883,-1.7675,-1.7595,-1.7575,-1.7402,-1.7368,-1.7508,-1.7094,-1.7027,-1.7321,-1.6673,-1.6373,-1.6585,-1.6477,-1.6167,-1.5659,-1.6083,-1.6461,-1.6555,-1.7219,-1.7375,-1.7188,-1.7232,-1.7052,-1.6581,-1.6211,-1.6204,-1.6487,-1.6116,-1.5886,-1.614,-1.616,-1.6209,-1.6425,-1.669,-1.702,-1.713,-1.7716,-1.8201,-1.8834,-1.939,-1.9706,-1.9872,-2.0333,-2.0576,-2.0576,-2.0576,-2.0576,-2.0576,-2.0576,-2.0576,-2.0576,-2.0576,-2.0566,-2.0566,-2.0566,-2.0459,-2.043,-2.0449,-2.0615,-2.0195,-1.9705,-1.8936,-1.8505,-1.7835,-1.7082,-1.6797,-1.676,-1.6482,-1.5728,-1.538,-1.5227,-1.5122,-1.5112,-1.5157,-1.5197,-1.5276,-1.5419,-1.5547,-1.5705,-1.5856,-1.5991,-1.6206,-1.6452,-1.7324,-1.7448,-1.7453,-1.7373,-1.7227,-1.7157,-1.7579,-1.8066,-1.8051,-1.8608,-1.9309,-1.9366,-1.9366,-1.9366,-1.9366,-1.9366,-1.9366,-1.9366,-1.9366,-1.9366,-1.9366,-1.9366,-1.9366,-1.9366,-1.9366,-1.9339,-1.9185,-1.8971,-1.8751,-1.8397,-1.8096,-1.7869,-1.7675,-1.7589,-1.7575,-1.7415,-1.7415,-1.7488,-1.7128,-1.7048,-1.7194,-1.6673,-1.6458,-1.6721,-1.6728,-1.6607,-1.6378,-1.6714,-1.6906,-1.7034,-1.7515,-1.7589,-1.7318,-1.7145,-1.677,-1.64,-1.6021,-1.5927,-1.6204,-1.6015,-1.6021,-1.6452,-1.6586,-1.673,-1.7148,-1.7267,-1.7676,-1.789,-1.8129,-1.8531,-1.9161,-1.9469,-1.9784,-2.0029,-2.0411,-2.0576,-2.0576,-2.0576,-2.0576,-2.0576,-2.0576,-2.0576,-2.0576,-2.0333,-2.0401,-2.0479,-2.0401,-2.0401,-2.0489,-2.0557,-2.0518,-2.0245,-1.9458,-1.8805,-1.8237,-1.7432,-1.6457,-1.6237,-1.6123,-1.57,-1.5144,-1.5008,-1.4936,-1.4881,-1.4839,-1.5022,-1.5094,-1.5062,-1.5141,-1.5253,-1.5427,-1.565,-1.588,-1.6103,-1.6317,-1.7007,-1.7001,-1.7012,-1.7001,-1.6937,-1.6903,-1.7275,-1.7952,-1.7992,-1.8458,-1.9173,-1.9366,-1.9366,-1.9366,-1.9366,-1.9366,-1.9366,-1.9366,-1.9366,-1.9366,-1.9366,-1.9366,-1.9366,-1.9366,-1.9366,-1.9359,-1.9345,-1.9085,-1.8698,-1.8517,-1.8203,-1.7782,-1.7669,-1.7589,-1.7575,-1.7575,-1.7562,-1.7535,-1.7248,-1.7094,-1.7128,-1.6639,-1.6551,-1.694,-1.6994,-1.7069,-1.7251,-1.7482,-1.7533,-1.7363,-1.7735,-1.7855,-1.7333,-1.6864,-1.6393,-1.592,-1.5825,-1.5825,-1.5825,-1.592,-1.6116,-1.6669,-1.7095,-1.7415,-1.7707,-1.814,-1.8448,-1.8467,-1.854,-1.8851,-1.9399,-1.9548,-1.9775,-2.0186,-2.0489,-2.0576,-2.0576,-2.0576,-2.0576,-2.0576,-2.0576,-2.0566,-2.0489,-2.001,-2.0089,-2.0089,-2.0001,-2.0157,-2.0235,-2.0275,-2.0284,-1.9726,-1.908,-1.8256,-1.7658,-1.6762,-1.5872,-1.5572,-1.5488,-1.5204,-1.4784,-1.4784,-1.4784,-1.4657,-1.4656,-1.4822,-1.4967,-1.4877,-1.4941,-1.5173,-1.5372,-1.5578,-1.5721,-1.5872,-1.6023,-1.7001,-1.7001,-1.7001,-1.6807,-1.6538,-1.7102,-1.7185,-1.7159,-1.8074,-1.8538,-1.8816,-1.9243,-1.9366,-1.9366,-1.9366,-1.9366,-1.9366,-1.9366,-1.9366,-1.9366,-1.9366,-1.9366,-1.9366,-1.9366,-1.9366,-1.9366,-1.9345,-1.9285,-1.9105,-1.8664,-1.8377,-1.8243,-1.7762,-1.7589,-1.7589,-1.7589,-1.7589,-1.7508,-1.7068,-1.6954,-1.7096,-1.6758,-1.6738,-1.6987,-1.75,-1.7523,-1.7293,-1.7572,-1.7906,-1.799,-1.8026,-1.7885,-1.7333,-1.677,-1.6305,-1.592,-1.5825,-1.5825,-1.5927,-1.6116,-1.6588,-1.7052,-1.7498,-1.7873,-1.7747,-1.8032,-1.8194,-1.8147,-1.8353,-1.8834,-1.9627,-1.9942,-2.0177,-2.0411,-2.0566,-2.0576,-2.0576,-2.0576,-2.0576,-2.0576,-2.0576,-2.0411,-2.0089,-2.0079,-1.9923,-1.9529,-1.9766,-2.0079,-2.0001,-1.9991,-1.9887,-1.9325,-1.862,-1.7746,-1.6917,-1.6038,-1.5357,-1.4944,-1.4848,-1.4848,-1.4641,-1.4641,-1.4641,-1.4569,-1.4631,-1.478,-1.4765,-1.466,-1.4851,-1.511,-1.5086,-1.5181,-1.5284,-1.5419,-1.5594,-1.7001,-1.6996,-1.6904,-1.6764,-1.6702,-1.7049,-1.7276,-1.7361,-1.8189,-1.8698,-1.8914,-1.9243,-1.9366,-1.9366,-1.9366,-1.9366,-1.9366,-1.9366,-1.9366,-1.9366,-1.9366,-1.9366,-1.9366,-1.9366,-1.9366,-1.9345,-1.9239,-1.9098,-1.8918,-1.8524,-1.8263,-1.8043,-1.7756,-1.7595,-1.7589,-1.7589,-1.7589,-1.7508,-1.7128,-1.6947,-1.6901,-1.6842,-1.6922,-1.7223,-1.7781,-1.7819,-1.7652,-1.7958,-1.8237,-1.8162,-1.788,-1.752,-1.7052,-1.6574,-1.6211,-1.6116,-1.5927,-1.592,-1.6292,-1.6393,-1.6676,-1.739,-1.7702,-1.7962,-1.837,-1.837,-1.823,-1.8929,-1.887,-1.925,-1.9863,-2.0264,-2.0489,-2.0566,-2.0576,-2.0576,-2.0576,-2.0576,-2.0576,-2.0576,-2.0566,-2.0323,-1.9678,-1.9766,-1.945,-1.9054,-1.9292,-1.952,-1.9678,-1.9599,-1.9432,-1.9025,-1.8267,-1.7407,-1.6725,-1.5914,-1.5235,-1.4816,-1.4633,-1.4569,-1.4569,-1.4569,-1.4569,-1.4601,-1.4598,-1.4595,-1.4613,-1.4678,-1.4854,-1.4877,-1.4832,-1.4887,-1.507,-1.5181,-1.5324,-1.7001,-1.6985,-1.6759,-1.678,-1.6941,-1.6988,-1.7161,-1.7851,-1.8302,-1.8674,-1.9017,-1.9256,-1.9366,-1.9366,-1.9366,-1.9366,-1.9366,-1.9366,-1.9366,-1.9366,-1.9366,-1.9366,-1.9366,-1.9366,-1.9366,-1.9339,-1.9085,-1.8918,-1.8751,-1.839,-1.8023,-1.7889,-1.7736,-1.7609,-1.7595,-1.7589,-1.7589,-1.7522,-1.7407,-1.7123,-1.7041,-1.7176,-1.7368,-1.7485,-1.784,-1.8179,-1.8281,-1.8549,-1.854,-1.8071,-1.7613,-1.7145,-1.6676,-1.6204,-1.6109,-1.6487,-1.6298,-1.648,-1.7044,-1.6669,-1.6763,-1.7762,-1.7537,-1.7771,-1.8991,-1.8946,-1.9071,-1.9816,-1.9854,-1.9907,-2.0177,-2.0489,-2.0566,-2.0576,-2.0576,-2.0576,-2.0566,-2.0566,-2.0489,-2.0479,-2.0489,-2.0089,-1.9529,-1.9054,-1.8656,-1.8175,-1.8576,-1.8975,-1.9045,-1.8886,-1.8966,-1.8948,-1.8048,-1.7111,-1.6442,-1.587,-1.5241,-1.476,-1.4673,-1.4569,-1.4569,-1.4569,-1.4569,-1.4552,-1.4556,-1.4613,-1.4648,-1.4688,-1.4838,-1.4775,-1.4768,-1.4919,-1.511,-1.5157,-1.5268,-1.7001,-1.699,-1.6759,-1.6689,-1.6772,-1.6786,-1.6701,-1.6608,-1.786,-1.8305,-1.8188,-1.901,-1.9366,-1.9366,-1.9366,-1.9366,-1.9366,-1.9366,-1.9366,-1.9366,-1.9366,-1.9366,-1.9366,-1.9366,-1.9366,-1.9339,-1.9312,-1.9219,-1.9078,-1.8771,-1.8577,-1.8283,-1.7983,-1.7822,-1.7629,-1.7595,-1.7589,-1.76,-1.7497,-1.741,-1.747,-1.7858,-1.8028,-1.8001,-1.8133,-1.8383,-1.8545,-1.8518,-1.8284,-1.801,-1.7613,-1.7333,-1.6951,-1.6676,-1.6487,-1.6676,-1.6864,-1.7052,-1.7333,-1.7692,-1.8056,-1.8149,-1.8509,-1.9043,-1.9034,-1.9222,-1.954,-2.0066,-2.0172,-2.0311,-2.0508,-2.0586,-2.0566,-2.0566,-2.0576,-2.0566,-2.0489,-2.0167,-1.9923,-1.9766,-1.945,-1.8895,-1.8327,-1.8656,-1.8184,-1.7538,-1.7781,-1.8345,-1.8416,-1.8336,-1.8416,-1.8496,-1.7743,-1.6804,-1.6244,-1.571,-1.512,-1.4768,-1.4609,-1.4569,-1.4569,-1.4569,-1.4569,-1.4592,-1.4587,-1.4598,-1.4672,-1.4765,-1.4887,-1.4765,-1.4672,-1.4863,-1.499,-1.5078,-1.5189,-1.6845,-1.6807,-1.6468,-1.6393,-1.6539,-1.6596,-1.656,-1.672,-1.7829,-1.8188,-1.8188,-1.901,-1.9366,-1.9366,-1.9366,-1.9366,-1.9366,-1.9366,-1.9366,-1.9366,-1.9366,-1.9366,-1.9366,-1.9366,-1.9366,-1.9345,-1.9205,-1.9172,-1.9078,-1.8891,-1.8597,-1.8484,-1.8203,-1.7983,-1.7782,-1.7655,-1.7589,-1.758,-1.7523,-1.7498,-1.7648,-1.8023,-1.8496,-1.8388,-1.8454,-1.8597,-1.8533,-1.8597,-1.8375,-1.8156,-1.7895,-1.7426,-1.7052,-1.6958,-1.6958,-1.6958,-1.7145,-1.7792,-1.8249,-1.8249,-1.8342,-1.9088,-1.8951,-1.9233,-1.9491,-1.9701,-2.0017,-2.0629,-2.093,-2.0924,-2.0849,-2.04,-2.0362,-2.0566,-2.0576,-2.0489,-2.0167,-1.9766,-1.9599,-1.9441,-1.9125,-1.8487,-1.8175,-1.8095,-1.7781,-1.7139,-1.7456,-1.8023,-1.8023,-1.7934,-1.7861,-1.7781,-1.7212,-1.6557,-1.6014,-1.5459,-1.4967,-1.468,-1.4585,-1.4569,-1.4569,-1.4569,-1.4569,-1.4584,-1.4598,-1.4788,-1.4846,-1.4887,-1.4906,-1.4977,-1.4998,-1.4895,-1.4895,-1.5062,-1.5157,-1.6716,-1.6678,-1.6237,-1.6194,-1.6436,-1.649,-1.6554,-1.6977,-1.7854,-1.8225,-1.8466,-1.905,-1.9366,-1.9366,-1.9366,-1.9366,-1.9366,-1.9366,-1.9366,-1.9366,-1.9366,-1.9366,-1.9366,-1.9366,-1.9366,-1.9332,-1.9178,-1.9065,-1.8985,-1.8758,-1.8684,-1.849,-1.8263,-1.8043,-1.7923,-1.7736,-1.7589,-1.7613,-1.7701,-1.7754,-1.7796,-1.826,-1.8847,-1.898,-1.8751,-1.8684,-1.8581,-1.8545,-1.8601,-1.8422,-1.821,-1.7684,-1.7246,-1.7145,-1.7419,-1.7419,-1.7606,-1.8164,-1.8896,-1.8711,-1.8711,-2.0184,-1.9044,-1.9118,-2.0277,-2.0456,-2.073,-2.1191,-2.1625,-2.1284,-2.1189,-2.0426,-2.0284,-2.0489,-2.0576,-2.0323,-1.9835,-1.9608,-1.945,-1.9125,-1.8487,-1.7772,-1.761,-1.7448,-1.7131,-1.6976,-1.7294,-1.7538,-1.7619,-1.7538,-1.7456,-1.7375,-1.6894,-1.6579,-1.6079,-1.5642,-1.5125,-1.4767,-1.4648,-1.4569,-1.4569,-1.4569,-1.4569,-1.4569,-1.4648,-1.4798,-1.499,-1.4988,-1.5075,-1.5237,-1.5165,-1.4975,-1.4982,-1.5078,-1.5221,-1.6947,-1.6926,-1.6657,-1.6678,-1.6754,-1.629,-1.6336,-1.6761,-1.7381,-1.773,-1.8095,-1.8998,-1.9366,-1.9366,-1.9366,-1.9366,-1.9366,-1.9366,-1.9366,-1.9366,-1.9366,-1.9366,-1.9366,-1.9366,-1.9366,-1.9359,-1.9285,-1.9259,-1.9259,-1.9225,-1.8878,-1.8571,-1.8397,-1.8176,-1.7816,-1.7602,-1.7582,-1.7752,-1.8133,-1.8261,-1.8478,-1.9124,-1.9618,-1.9558,-1.9145,-1.8859,-1.8688,-1.8419,-1.8334,-1.8664,-1.8334,-1.8079,-1.7893,-1.7986,-1.7986,-1.7986,-1.8265,-1.8812,-1.9455,-1.9737,-1.9828,-2.0206,-1.9966,-2.0191,-2.0953,-2.1065,-2.1392,-2.1815,-2.1759,-2.1177,-2.1189,-2.0267,-2.0136,-2.0411,-2.0411,-2.0245,-1.9775,-1.9301,-1.8745,-1.8256,-1.7619,-1.7139,-1.7131,-1.7049,-1.6894,-1.6812,-1.6976,-1.7131,-1.7057,-1.7057,-1.6976,-1.6894,-1.673,-1.6524,-1.6222,-1.5825,-1.5396,-1.5054,-1.4855,-1.4577,-1.4569,-1.4569,-1.4569,-1.4664,-1.48,-1.4927,-1.5006,-1.5118,-1.5292,-1.5515,-1.5292,-1.503,-1.5229,-1.5435,-1.5666,-1.6829,-1.6786,-1.6441,-1.635,-1.6366,-1.5978,-1.6128,-1.6641,-1.7179,-1.7781,-1.8307,-1.8953,-1.9366,-1.9366,-1.9366,-1.9366,-1.9366,-1.9366,-1.9366,-1.9366,-1.9366,-1.9366,-1.9366,-1.9366,-1.9366,-1.9366,-1.9366,-1.9359,-1.9345,-1.9178,-1.8971,-1.8731,-1.8444,-1.8096,-1.7849,-1.7669,-1.7813,-1.8039,-1.8437,-1.8817,-1.8932,-1.9789,-1.9995,-1.9781,-1.9423,-1.9137,-1.9074,-1.8706,-1.8558,-1.8727,-1.8819,-1.8904,-1.8819,-1.8812,-1.8627,-1.8357,-1.8819,-1.9371,-1.9828,-2.0201,-2.0464,-2.0898,-2.0704,-2.098,-2.1444,-2.1725,-2.1926,-2.2131,-2.1466,-2.0763,-2.0676,-1.978,-1.9417,-1.9627,-1.9784,-1.9539,-1.9073,-1.8683,-1.8112,-1.7456,-1.7302,-1.7057,-1.6812,-1.673,-1.673,-1.673,-1.673,-1.673,-1.673,-1.673,-1.673,-1.6698,-1.6683,-1.6516,-1.6238,-1.5856,-1.5578,-1.5284,-1.4975,-1.4768,-1.4664,-1.4711,-1.4871,-1.4967,-1.5022,-1.5149,-1.5396,-1.5634,-1.5721,-1.5745,-1.5547,-1.5435,-1.561,-1.5809,-1.5999,-1.6705,-1.663,-1.6301,-1.6252,-1.6298,-1.6079,-1.6356,-1.6912,-1.7415,-1.7997,-1.8498,-1.916,-1.9366,-1.9366,-1.9366,-1.9366,-1.9366,-1.9366,-1.9366,-1.9366,-1.9366,-1.9366,-1.9366,-1.9366,-1.9366,-1.9359,-1.9252,-1.9285,-1.9205,-1.9058,-1.8891,-1.8591,-1.8203,-1.7989,-1.7876,-1.7669,-1.7918,-1.8345,-1.8722,-1.9095,-1.9714,-1.9909,-1.9916,-1.994,-1.9646,-1.9471,-1.9439,-1.8965,-1.8879,-1.9018,-1.9217,-1.9396,-1.9453,-1.9496,-1.9088,-1.855,-1.9004,-1.9646,-2.011,-2.0382,-2.0736,-2.1454,-2.1096,-2.1416,-2.1706,-2.1926,-2.2083,-2.2035,-2.1137,-2.0264,-2.0151,-1.9129,-1.87,-1.8913,-1.9082,-1.8834,-1.8434,-1.8112,-1.787,-1.7465,-1.7221,-1.6976,-1.673,-1.673,-1.673,-1.673,-1.673,-1.673,-1.673,-1.673,-1.6722,-1.6667,-1.6611,-1.6484,-1.6206,-1.5817,-1.5602,-1.5435,-1.5125,-1.4863,-1.4911,-1.499,-1.5094,-1.5221,-1.5459,-1.5618,-1.5888,-1.6015,-1.5881,-1.5818,-1.5801,-1.5864,-1.6071,-1.6103,-1.6166,-1.6845,-1.6673,-1.6813,-1.7141,-1.7275,-1.7022,-1.7305,-1.7961,-1.8127,-1.845,-1.8813,-1.9128,-1.9366,-1.9366,-1.9366,-1.9366,-1.9366,-1.9366,-1.9366,-1.9366,-1.9366,-1.9366,-1.9366,-1.9366,-1.9332,-1.9285,-1.9098,-1.8991,-1.8918,-1.8865,-1.8624,-1.8257,-1.8103,-1.7923,-1.7702,-1.7622,-1.7898,-1.8408,-1.8909,-1.9708,-2.0429,-2.0234,-2.0138,-2.017,-2.0019,-1.9805,-1.9765,-1.9208,-1.9011,-1.9542,-1.9098,-1.9103,-1.9271,-1.9063,-1.8944,-1.8727,-1.892,-1.9279,-1.9977,-2.0257,-2.0593,-2.1248,-2.1429,-2.1689,-2.1806,-2.1854,-2.1824,-2.1883,-2.0717,-1.9998,-1.9724,-1.895,-1.8718,-1.8674,-1.8754,-1.8514,-1.8201,-1.7959,-1.7716,-1.7465,-1.7139,-1.6976,-1.6738,-1.673,-1.673,-1.673,-1.673,-1.673,-1.673,-1.673,-1.673,-1.669,-1.6675,-1.6563,-1.6397,-1.5968,-1.5753,-1.5618,-1.534,-1.5054,-1.5141,-1.5261,-1.5356,-1.5515,-1.5785,-1.5991,-1.6071,-1.6119,-1.5968,-1.5921,-1.596,-1.6182,-1.6555,-1.6508,-1.6373,-1.6754,-1.6673,-1.677,-1.7058,-1.7309,-1.7183,-1.7478,-1.8157,-1.8418,-1.8719,-1.9044,-1.9316,-1.9366,-1.9366,-1.9366,-1.9366,-1.9366,-1.9366,-1.9366,-1.9359,-1.9359,-1.9359,-1.9366,-1.9352,-1.9312,-1.9098,-1.8951,-1.8684,-1.8571,-1.8424,-1.8243,-1.8076,-1.7869,-1.7729,-1.7589,-1.7589,-1.7898,-1.8527,-1.9257,-2.0086,-2.0633,-2.0647,-2.0527,-2.0662,-2.0337,-2.0186,-1.9984,-1.9349,-1.9117,-1.9445,-1.9067,-1.8855,-1.8965,-1.8762,-1.8582,-1.8342,-1.8265,-1.854,-1.929,-1.9604,-2.0056,-2.026,-2.079,-2.125,-2.1655,-2.1522,-2.1284,-2.1493,-2.0246,-1.9443,-1.9057,-1.836,-1.8218,-1.8184,-1.8434,-1.8193,-1.7951,-1.7878,-1.7644,-1.7392,-1.7147,-1.6976,-1.6812,-1.682,-1.673,-1.673,-1.673,-1.673,-1.673,-1.673,-1.673,-1.673,-1.6722,-1.6698,-1.654,-1.6269,-1.6071,-1.5904,-1.5674,-1.5459,-1.5467,-1.5547,-1.5682,-1.5904,-1.6206,-1.6277,-1.6332,-1.6269,-1.6174,-1.619,-1.6141,-1.6403,-1.6651,-1.6683,-1.6579,-1.6642,-1.6833,-1.6888,-1.7241,-1.7562,-1.7467,-1.7851,-1.8564,-1.8667,-1.8894,-1.9249,-1.9366,-1.9366,-1.9366,-1.9366,-1.9366,-1.9366,-1.9366,-1.9366,-1.9359,-1.9292,-1.9239,-1.9185,-1.9165,-1.9005,-1.8811,-1.8657,-1.8444,-1.8183,-1.7989,-1.7949,-1.7923,-1.7722,-1.7609,-1.7589,-1.7694,-1.7898,-1.8743,-1.9569,-2.0292,-2.079,-2.0805,-2.0805,-2.0766,-2.0514,-2.024,-2.0155,-1.9598,-1.9282,-1.9246,-1.9155,-1.8938,-1.8689,-1.8377,-1.8191,-1.7916,-1.7707,-1.7657,-1.836,-1.8838,-1.9142,-1.9362,-1.972,-2.0694,-2.1646,-2.0997,-2.0375,-2.0588,-1.9734,-1.8804,-1.827,-1.7942,-1.7861,-1.7781,-1.7781,-1.77,-1.7619,-1.7627,-1.7554,-1.731,-1.7139,-1.7057,-1.6976,-1.6894,-1.6812,-1.673,-1.673,-1.673,-1.673,-1.673,-1.673,-1.673,-1.673,-1.673,-1.6635,-1.6476,-1.6325,-1.619,-1.5952,-1.5769,-1.5713,-1.5888,-1.6095,-1.6349,-1.6524,-1.6395,-1.63,-1.6308,-1.6397,-1.6379,-1.6435,-1.6458,-1.6635,-1.6698,-1.673,-1.6497,-1.7219,-1.7434,-1.799,-1.8633,-1.8722,-1.8912,-1.9249,-1.9249,-1.9366,-1.9366,-1.9366,-1.9366,-1.9366,-1.9366,-1.9366,-1.9366,-1.9366,-1.9339,-1.9252,-1.9118,-1.9005,-1.8911,-1.8764,-1.8584,-1.8484,-1.835,-1.8176,-1.7976,-1.7769,-1.7675,-1.7602,-1.7609,-1.7595,-1.7694,-1.7694,-1.8213,-1.9056,-1.9783,-2.0395,-2.0617,-2.0702,-2.0623,-2.0696,-2.0132,-1.9836,-2.0097,-1.9626,-1.928,-1.9197,-1.9026,-1.8768,-1.8312,-1.7949,-1.7757,-1.7551,-1.7261,-1.7208,-1.7629,-1.8347,-1.9099,-1.9397,-1.9562,-1.9977,-2.1079,-2.0125,-1.9597,-1.9515,-1.9055,-1.8574,-1.8138,-1.787,-1.7781,-1.7789,-1.7789,-1.77,-1.7619,-1.7619,-1.7538,-1.7302,-1.7139,-1.7139,-1.7139,-1.6976,-1.6812,-1.673,-1.673,-1.673,-1.673,-1.673,-1.673,-1.673,-1.673,-1.6722,-1.669,-1.6563,-1.642,-1.6365,-1.6238,-1.6015,-1.5848,-1.6103,-1.642,-1.6365,-1.6436,-1.6316,-1.6244,-1.6411,-1.6571,-1.6667,-1.6714,-1.6675,-1.6667,-1.6714,-1.673,-1.6486,-1.8161,-1.7655,-1.7949,-1.8828,-1.8828,-1.903,-1.9392,-1.9366,-1.9366,-1.9366,-1.9366,-1.9366,-1.9366,-1.9366,-1.9366,-1.9366,-1.9366,-1.9259,-1.9112,-1.8971,-1.8824,-1.8684,-1.8524,-1.841,-1.823,-1.8063,-1.7909,-1.7742,-1.7635,-1.7609,-1.7589,-1.7589,-1.7589,-1.7694,-1.7898,-1.8527,-1.916,-1.9783,-2.0395,-2.0743,-2.0615,-2.0567,-2.0759,-2.0093,-1.9796,-1.9899,-1.9243,-1.8957,-1.8833,-1.8528,-1.8146,-1.7917,-1.7505,-1.7312,-1.7237,-1.6918,-1.7008,-1.7015,-1.7602,-1.7995,-1.8475,-1.8604,-1.9065,-2.0271,-1.92,-1.8949,-1.8848,-1.8679,-1.821,-1.8031,-1.7951,-1.787,-1.787,-1.787,-1.7708,-1.77,-1.77,-1.7619,-1.7456,-1.7383,-1.731,-1.7229,-1.7147,-1.6976,-1.673,-1.673,-1.673,-1.673,-1.673,-1.673,-1.673,-1.673,-1.673,-1.6706,-1.6611,-1.6516,-1.65,-1.6492,-1.6333,-1.6174,-1.6373,-1.6595,-1.6492,-1.6436,-1.6435,-1.6514,-1.6585,-1.6714,-1.673,-1.673,-1.6722,-1.673,-1.673,-1.673,-1.696,-1.8696,-1.8037,-1.8239,-1.8951,-1.8951,-1.9083,-1.9392,-1.9366,-1.9366,-1.9366,-1.9366,-1.9366,-1.9366,-1.9366,-1.9366,-1.9332,-1.9259,-1.9112,-1.8925,-1.8731,-1.8564,-1.839,-1.8223,-1.8043,-1.7929,-1.7889,-1.7762,-1.7629,-1.7595,-1.7589,-1.7589,-1.7589,-1.7589,-1.7694,-1.8108,-1.8736,-1.9264,-1.9879,-2.0395,-2.0767,-2.0397,-2.0264,-2.0397,-1.957,-1.9176,-1.9265,-1.8797,-1.8414,-1.8226,-1.8011,-1.7702,-1.744,-1.7186,-1.7028,-1.7016,-1.7053,-1.7124,-1.7152,-1.7223,-1.7508,-1.8256,-1.8115,-1.859,-1.8841,-1.8589,-1.8438,-1.8632,-1.8322,-1.8031,-1.8031,-1.7951,-1.7951,-1.7951,-1.7951,-1.787,-1.7781,-1.77,-1.77,-1.7619,-1.7546,-1.7465,-1.7383,-1.7302,-1.6976,-1.6812,-1.673,-1.673,-1.673,-1.673,-1.673,-1.673,-1.673,-1.673,-1.6722,-1.6659,-1.6611,-1.6627,-1.6627,-1.6659,-1.6619,-1.673,-1.673,-1.6643,-1.6627,-1.6714,-1.673,-1.6722,-1.6722,-1.673,-1.673,-1.673,-1.673,-1.673,-1.673,-1.7878,-1.8784,-1.8431,-1.868,-1.9289,-1.9379,-1.9379,-1.9366,-1.9366,-1.9366,-1.9366,-1.9366,-1.9366,-1.9359,-1.9332,-1.9292,-1.9232,-1.9052,-1.8871,-1.8718,-1.8404,-1.8143,-1.7983,-1.7849,-1.7762,-1.7635,-1.7642,-1.7655,-1.7589,-1.7589,-1.7589,-1.7589,-1.7589,-1.7589,-1.7687,-1.8108,-1.8743,-1.9272,-1.9879,-2.0395,-2.0641,-2.0187,-2.0015,-1.9926,-1.8942,-1.8416,-1.8554,-1.8422,-1.806,-1.7823,-1.7971,-1.7661,-1.736,-1.7285,-1.7253,-1.7456,-1.733,-1.7465,-1.7699,-1.7542,-1.7916,-1.8387,-1.8102,-1.8271,-1.8659,-1.8452,-1.8049,-1.8339,-1.8066,-1.8031,-1.8031,-1.8031,-1.8031,-1.8031,-1.8031,-1.7951,-1.7861,-1.7789,-1.7789,-1.7789,-1.77,-1.77,-1.7538,-1.7383,-1.7057,-1.6812,-1.673,-1.673,-1.673,-1.673,-1.673,-1.673,-1.673,-1.673,-1.673,-1.673,-1.6714,-1.673,-1.673,-1.673,-1.673,-1.673,-1.673,-1.673,-1.673,-1.673,-1.673,-1.673,-1.673,-1.673,-1.673,-1.673,-1.673,-1.673,-1.673,-1.7756,-1.9148,-1.8336,-1.8532,-1.9366,-1.9366,-1.9366,-1.9366,-1.9366,-1.9366,-1.9366,-1.9366,-1.9366,-1.9319,-1.9152,-1.9072,-1.9018,-1.8771,-1.8591,-1.833,-1.8103,-1.7929,-1.7769,-1.7675,-1.7589,-1.7589,-1.7589,-1.7589,-1.7589,-1.7589,-1.7589,-1.7589,-1.7694,-1.7589,-1.7905,-1.8429,-1.9168,-1.948,-2.0094,-2.0704,-2.0783,-2.0124,-1.9765,-1.9945,-1.8635,-1.8032,-1.829,-1.8108,-1.7793,-1.7687,-1.7839,-1.7832,-1.7563,-1.7562,-1.7881,-1.7823,-1.7745,-1.7794,-1.8033,-1.8078,-1.7982,-1.8078,-1.8154,-1.8085,-1.8284,-1.8134,-1.8049,-1.8031,-1.8031,-1.8031,-1.8031,-1.8031,-1.8031,-1.8031,-1.8031,-1.7951,-1.7951,-1.7951,-1.7959,-1.7951,-1.787,-1.7789,-1.7708,-1.7538,-1.7221,-1.6976,-1.6894,-1.6738,-1.6738,-1.673,-1.673,-1.673,-1.673,-1.673,-1.673,-1.673,-1.673,-1.673,-1.673,-1.673,-1.673,-1.673,-1.673,-1.673,-1.673,-1.673,-1.673,-1.673,-1.673,-1.673,-1.673,-1.673,-1.673,-1.673,-1.673,-1.8286,-1.9249,-1.8655,-1.8706,-1.9239,-1.9319,-1.9319,-1.9219,-1.9112,-1.9065,-1.9052,-1.9052,-1.9045,-1.8991,-1.8885,-1.8771,-1.8738,-1.847,-1.8303,-1.8029,-1.7909,-1.7769,-1.7642,-1.7589,-1.7589,-1.7589,-1.7589,-1.7589,-1.7589,-1.7589,-1.7589,-1.7694,-1.7799,-1.7905,-1.822,-1.875,-1.9376,-1.9783,-2.0403,-2.0814,-2.0664,-2.0146,-1.958,-1.9354,-1.8683,-1.7922,-1.7948,-1.7793,-1.7582,-1.7681,-1.7786,-1.7898,-1.7907,-1.7984,-1.8223,-1.8152,-1.7938,-1.7927,-1.791,-1.7933,-1.7807,-1.7846,-1.8054,-1.8121,-1.8074,-1.804,-1.804,-1.8031,-1.8031,-1.8031,-1.8031,-1.8031,-1.8031,-1.8031,-1.8031,-1.7951,-1.7951,-1.7959,-1.7959,-1.8031,-1.7951,-1.787,-1.7789,-1.7627,-1.7456,-1.7221,-1.6976,-1.6902,-1.6738,-1.6738,-1.673,-1.673,-1.673,-1.6738,-1.673,-1.673,-1.673,-1.673,-1.673,-1.6812,-1.6812,-1.6894,-1.6894,-1.6812,-1.673,-1.673,-1.673,-1.673,-1.673,-1.673,-1.673,-1.673,-1.673,-1.673,-1.673,-1.9345,-1.9345,-1.9352,-1.9178,-1.8985,-1.9138,-1.9118,-1.8891,-1.8637,-1.8531,-1.8524,-1.8571,-1.8604,-1.8544,-1.8497,-1.8477,-1.841,-1.8163,-1.8043,-1.7936,-1.7756,-1.7635,-1.7602,-1.7589,-1.7589,-1.7589,-1.7589,-1.7589,-1.7589,-1.7589,-1.7589,-1.7826,-1.8135,-1.8366,-1.88,-1.9189,-1.9695,-2.0086,-2.0506,-2.0814,-2.068,-1.9864,-1.9531,-1.9027,-1.838,-1.7843,-1.7674,-1.764,-1.7522,-1.7627,-1.783,-1.7962,-1.8012,-1.7943,-1.8138,-1.811,-1.7949,-1.7779,-1.7811,-1.7842,-1.7921,-1.8087,-1.8313,-1.83,-1.816,-1.8031,-1.8031,-1.8031,-1.8031,-1.8031,-1.8031,-1.8031,-1.8031,-1.8031,-1.8031,-1.8031,-1.8031,-1.8031,-1.8031,-1.8031,-1.8031,-1.7951,-1.7951,-1.7789,-1.7538,-1.7456,-1.7221,-1.7057,-1.6894,-1.6738,-1.6738,-1.682,-1.682,-1.6738,-1.6738,-1.673,-1.673,-1.673,-1.6886,-1.6968,-1.7057,-1.7057,-1.6968,-1.6894,-1.6812,-1.6738,-1.6738,-1.673,-1.673,-1.673,-1.673,-1.673,-1.673,-1.673,-1.673,-1.8938,-1.8771,-1.8958,-1.8885,-1.8617,-1.8484,-1.8484,-1.8584,-1.8517,-1.849,-1.8497,-1.849,-1.843,-1.8477,-1.8277,-1.8196,-1.8063,-1.7903,-1.7762,-1.7669,-1.7642,-1.7602,-1.7589,-1.7589,-1.7589,-1.7589,-1.7589,-1.7589,-1.7687,-1.7694,-1.8153,-1.8503,-1.8618,-1.9074,-1.953,-1.9889,-2.0021,-2.0189,-2.0712,-2.0814,-2.0617,-1.9894,-1.948,-1.8959,-1.822,-1.7694,-1.7569,-1.7382,-1.7328,-1.7392,-1.7592,-1.7652,-1.7764,-1.7945,-1.8195,-1.7989,-1.796,-1.7978,-1.8325,-1.8193,-1.8242,-1.8479,-1.8658,-1.8317,-1.816,-1.8031,-1.8031,-1.8031,-1.8031,-1.8031,-1.8031,-1.8031,-1.8031,-1.8031,-1.8031,-1.8031,-1.8031,-1.8031,-1.8031,-1.8031,-1.8031,-1.8031,-1.7951,-1.787,-1.7708,-1.7538,-1.7456,-1.7302,-1.7139,-1.6902,-1.682,-1.6894,-1.6902,-1.6902,-1.6812,-1.6894,-1.673,-1.673,-1.6968,-1.7131,-1.7131,-1.7131,-1.7131,-1.7049,-1.6976,-1.6812,-1.6738,-1.6738,-1.6894,-1.6738,-1.6738,-1.673,-1.673,-1.673,-1.673,-1.8657,-1.8524,-1.8677,-1.8584,-1.829,-1.7996,-1.7976,-1.8116,-1.8136,-1.813,-1.813,-1.8116,-1.813,-1.8083,-1.7936,-1.7862,-1.7842,-1.7722,-1.7615,-1.7615,-1.7589,-1.7589,-1.7589,-1.7589,-1.7589,-1.7589,-1.7687,-1.7687,-1.7898,-1.824,-1.8682,-1.9241,-1.9103,-1.9709,-2.0286,-2.0373,-2.0418,-2.0506,-2.0712,-2.0814,-2.0514,-1.9894,-1.948,-1.9063,-1.8213,-1.7687,-1.7549,-1.7295,-1.7264,-1.7306,-1.7465,-1.7682,-1.7837,-1.8291,-1.8081,-1.7836,-1.7934,-1.8145,-1.8388,-1.8411,-1.8594,-1.8709,-1.8557,-1.8269,-1.8113,-1.8031,-1.8031,-1.8031,-1.8031,-1.8031,-1.8031,-1.8031,-1.8031,-1.8031,-1.8031,-1.8031,-1.8031,-1.8031,-1.8031,-1.8031,-1.8031,-1.8031,-1.7951,-1.787,-1.7789,-1.77,-1.7619,-1.7465,-1.7302,-1.7139,-1.7057,-1.7057,-1.7057,-1.7066,-1.7057,-1.7057,-1.6976,-1.6894,-1.7139,-1.7221,-1.7212,-1.7212,-1.7294,-1.7212,-1.7131,-1.7057,-1.6902,-1.6976,-1.6976,-1.6902,-1.682,-1.6894,-1.6812,-1.6738,-1.6738,-1.843,-1.8397,-1.8417,-1.825,-1.7989,-1.7716,-1.7615,-1.7589,-1.7642,-1.7602,-1.7622,-1.7609,-1.7655,-1.7716,-1.7662,-1.7649,-1.7655,-1.7602,-1.7589,-1.7589,-1.7589,-1.7589,-1.7589,-1.7589,-1.7589,-1.7582,-1.7793,-1.801,-1.8534,-1.8883,-1.9223,-1.9824,-2.0009,-2.0406,-2.094,-2.0914,-2.0861,-2.0845,-2.0877,-2.0822,-2.0506,-1.9894,-1.9272,-1.8952,-1.8325,-1.7582,-1.7502,-1.7439,-1.7217,-1.7421,-1.7417,-1.7704,-1.8072,-1.8409,-1.7912,-1.7799,-1.7811,-1.8087,-1.8253,-1.8271,-1.8406,-1.8447,-1.8221,-1.8093,-1.8053,-1.804,-1.8031,-1.8031,-1.8031,-1.8031,-1.8031,-1.8031,-1.8031,-1.8031,-1.8031,-1.8031,-1.8031,-1.8031,-1.8031,-1.8031,-1.8031,-1.8031,-1.8031,-1.7951,-1.787,-1.7789,-1.77,-1.7627,-1.7546,-1.7465,-1.7383,-1.7212,-1.7221,-1.7221,-1.7221,-1.7221,-1.7139,-1.7229,-1.7302,-1.7383,-1.7383,-1.7465,-1.7538,-1.7383,-1.7302,-1.7221,-1.7139,-1.7221,-1.7221,-1.7139,-1.7139,-1.7139,-1.7057,-1.6984,-1.6902,-1.8009,-1.7802,-1.7796,-1.7749,-1.7695,-1.7615,-1.7589,-1.7589,-1.7589,-1.7589,-1.7589,-1.7589,-1.7589,-1.7589,-1.7589,-1.7589,-1.7589,-1.7589,-1.7589,-1.7589,-1.7589,-1.7589,-1.7589,-1.7687,-1.7694,-1.7793,-1.8003,-1.8534,-1.9056,-1.9338,-1.9866,-2.0642,-2.0734,-2.0878,-2.1728,-2.1624,-2.1314,-2.125,-2.098,-2.0656,-2.0197,-1.968,-1.9168,-1.8639,-1.7905,-1.7694,-1.7435,-1.7101,-1.7117,-1.7155,-1.6683,-1.6861,-1.7275,-1.7809,-1.7728,-1.75,-1.7707,-1.798,-1.8261,-1.8258,-1.8399,-1.8356,-1.8226,-1.8121,-1.7993,-1.7968,-1.8031,-1.8031,-1.8031,-1.8031,-1.8031,-1.8031,-1.8031,-1.8031,-1.8031,-1.8031,-1.8031,-1.8031,-1.8031,-1.8031,-1.8031,-1.8031,-1.8031,-1.8031,-1.7959,-1.7959,-1.7951,-1.7951,-1.787,-1.7789,-1.7708,-1.7546,-1.7383,-1.7383,-1.7465,-1.7383,-1.7302,-1.7383,-1.7465,-1.7546,-1.7627,-1.7627,-1.7627,-1.7465,-1.7392,-1.7383,-1.7465,-1.7465,-1.7465,-1.7383,-1.7302,-1.7302,-1.7383,-1.731,-1.7229,-1.7742,-1.7589,-1.7589,-1.7589,-1.7589,-1.7589,-1.7589,-1.7589,-1.7589,-1.7589,-1.7589,-1.7589,-1.7589,-1.7582,-1.7589,-1.7582,-1.7582,-1.7589,-1.7589,-1.7589,-1.7694,-1.7589,-1.7687,-1.7898,-1.8003,-1.8101,-1.884,-1.9368,-1.9732,-2.0051,-2.0608,-2.1255,-2.1254,-2.1438,-2.2307,-2.1941,-2.156,-2.1441,-2.1003,-2.0439,-1.9813,-1.9376,-1.8959,-1.8429,-1.8003,-1.7694,-1.7388,-1.7054,-1.7002,-1.7055,-1.6945,-1.6883,-1.724,-1.7697,-1.7777,-1.768,-1.7863,-1.8126,-1.8319,-1.8425,-1.841,-1.838,-1.8263,-1.801,-1.7976,-1.8031,-1.8031,-1.8031,-1.8031,-1.8031,-1.8031,-1.8031,-1.8031,-1.8031,-1.8031,-1.8031,-1.8031,-1.8031,-1.8031,-1.8031,-1.8031,-1.8031,-1.8031,-1.8031,-1.7959,-1.7959,-1.8031,-1.8031,-1.8031,-1.8031,-1.7951,-1.7789,-1.7627,-1.7546,-1.7619,-1.7546,-1.7392,-1.7546,-1.7627,-1.7708,-1.7789,-1.7716,-1.7716,-1.7635,-1.7546,-1.7627,-1.7708,-1.77,-1.77,-1.7538,-1.7546,-1.7554,-1.7554,-1.7554,-1.7627,-1.7522,-1.7528,-1.7569,-1.7589,-1.7589,-1.7589,-1.7589,-1.7589,-1.7589,-1.7687,-1.7793,-1.7793,-1.7681,-1.7582,-1.7793,-1.7687,-1.7786,-1.8213,-1.8003,-1.801,-1.8003,-1.8115,-1.822,-1.8318,-1.8569,-1.9031,-1.9688,-2.0165,-2.0442,-2.081,-2.1231,-2.1814,-2.1854,-2.1814,-2.214,-2.2069,-2.1695,-2.127,-2.0864,-2.0106,-1.9583,-1.9175,-1.8743,-1.8318,-1.7898,-1.7589,-1.7408,-1.7148,-1.7022,-1.7078,-1.7241,-1.7167,-1.7153,-1.7478,-1.7658,-1.7714,-1.79,-1.8171,-1.8433,-1.8514,-1.8546,-1.8489,-1.8206,-1.8036,-1.8019,-1.8049,-1.8049,-1.8031,-1.8031,-1.8031,-1.8031,-1.8031,-1.8031,-1.8031,-1.8031,-1.8031,-1.8031,-1.8031,-1.8031,-1.8031,-1.8031,-1.8031,-1.8031,-1.8031,-1.8031,-1.8031,-1.8031,-1.8031,-1.8031,-1.8031,-1.7951,-1.787,-1.7708,-1.7708,-1.77,-1.7708,-1.7554,-1.7708,-1.7789,-1.787,-1.787,-1.7789,-1.7789,-1.7789,-1.7781,-1.7789,-1.7789,-1.7789,-1.7781,-1.7781,-1.7708,-1.7708,-1.7789,-1.7789,-1.787,-1.7228,-1.7351,-1.7482,-1.7582,-1.7582,-1.7687,-1.7589,-1.7589,-1.7687,-1.7891,-1.8408,-1.8513,-1.8311,-1.7694,-1.8311,-1.852,-1.8415,-1.8736,-1.9049,-1.9056,-1.8743,-1.8855,-1.8981,-1.9024,-1.9545,-2.0031,-2.0437,-2.0832,-2.1,-2.1415,-2.1767,-2.1894,-2.191,-2.1886,-2.191,-2.1791,-2.1584,-2.1207,-2.0697,-1.9993,-1.9301,-1.8826,-1.8318,-1.7898,-1.7694,-1.7589,-1.7482,-1.7241,-1.7171,-1.7117,-1.7063,-1.6964,-1.7052,-1.7239,-1.7426,-1.7621,-1.79,-1.808,-1.8186,-1.8386,-1.8477,-1.8414,-1.8129,-1.8102,-1.8108,-1.8027,-1.8002,-1.804,-1.8031,-1.8031,-1.8031,-1.8031,-1.8031,-1.8031,-1.8031,-1.8031,-1.8031,-1.8031,-1.8031,-1.8031,-1.8031,-1.8031,-1.8031,-1.8031,-1.8031,-1.8031,-1.8031,-1.8031,-1.8031,-1.8031,-1.8031,-1.7951,-1.787,-1.787,-1.787,-1.787,-1.7789,-1.787,-1.7951,-1.7951,-1.7951,-1.7781,-1.7781,-1.7861,-1.7861,-1.7781,-1.7861,-1.787,-1.7951,-1.7951,-1.7951,-1.7951,-1.7951,-1.7951,-1.8121]},{"header":{"parameterUnit":"m.s-1","parameterCategory":1,"la1":31.0,"la2":29.5877,"lo1":-88.7671,"lo2":-86.6584,"dy":0.0162,"dx":0.0185,"nx":115,"ny":88,"refTime":"2023-08-14T12:00:00:Z","depth":0,"parameterNumber":3,"parameterNumberName":"V-component_of_WINDS"},"data":[0.0,0.0,0.0,0.0,0.0,0.0,0.0,0.0,0.0,0.0,0.0,0.0,0.0,0.0,0.0,0.0,0.0,0.0,0.0,0.0,0.0,0.0,0.0,0.0,0.0,0.0,0.0,0.0,0.0,0.0,0.0,0.0,0.0,0.0,0.0,0.0,0.0,0.0,0.0,0.0,0.0,0.0,0.0,0.0,0.0,0.0,0.0,0.0,0.0,0.0,0.0,0.0,0.0,0.0,0.0,0.0,0.0,0.0,0.0,0.0,0.0,0.0,0.0,0.0,0.0,0.0,0.0,0.0,0.0,0.0,0.0,0.0,0.0,0.0,0.0,0.0,0.0,0.0,0.0,0.0,0.0,0.0,0.0,0.0,0.0,0.0,0.0,0.0,0.0,0.0,0.0,0.0,0.0,0.0,0.0,0.0,0.0,0.0,0.0,0.0,0.0,0.0,0.0,0.0,0.0,0.0,0.0,0.0,0.0,0.0,0.0,0.0,0.0,0.0,0.0,0.0,0.0,0.0,0.0,0.0,0.0,0.0,0.0,0.0,0.0,0.0,0.0,0.0,0.0,0.0,0.0,0.0,0.0,0.0,0.0,0.0,0.0,0.0,0.0,0.0,0.0,0.0,0.0,0.0,0.0,0.0,0.0,0.0,0.0,0.0,0.0,0.0,0.0,0.0,0.0,0.0,0.0,0.0,0.0,0.0,0.0,0.0,0.0,0.0,0.0,0.0,0.0,0.0,0.0,0.0,0.0,0.0,0.0,0.0,0.0,0.0,0.0,0.0,0.0,0.0,0.0,0.0,0.0,0.0,0.0,0.0,0.0,0.0,0.0,0.0,0.0,0.0,0.0,0.0,0.0,0.0,0.0,0.0,0.0,0.0,0.0,0.0,0.0,0.0,0.0,0.0,0.0,0.0,0.0,0.0,0.0,0.0,0.0,0.0,0.0,0.0,0.0,0.0,0.0,0.0,0.0,0.0,0.0,0.0,0.0,0.0,0.0,0.0,0.0,0.0,0.0,0.0,0.0,0.0,0.0,0.0,0.0,0.0,0.0,0.0,0.0,0.0,0.0,0.0,0.0,0.0,0.0,0.0,0.0,0.0,0.0,0.0,0.0,0.0,0.0,0.0,0.0,0.0,0.0,0.0,0.0,0.0,0.0,0.0,0.0,0.0,0.0,0.0,0.0,0.0,0.0,0.0,0.0,0.0,0.0,0.0,0.0,0.0,0.0,0.0,0.0,0.0,0.0,0.0,0.0,0.0,0.0,0.0,0.0,0.0,0.0,0.0,0.0,0.0,0.0,0.0,0.0,0.0,0.0,0.0,0.0,0.0,0.0,0.0,0.0,0.0,0.0,0.0,0.0,0.0,0.0,0.0,0.0,0.0,0.0,0.0,0.0,0.0,0.0,0.0,0.0,0.0,0.0,0.0,0.0,0.0,0.0,0.0,0.0,0.0,0.0,0.0,0.0,0.0,0.0,0.0,0.0,0.0,0.0,0.0,0.0,0.0,0.0,0.0,0.0,0.0,0.0,0.0,0.0,0.0,0.0,0.0,0.0,0.0,0.0,0.0,0.0,0.0,0.0,0.0,0.0,0.0,0.0,0.0,0.0,0.0,0.0,0.0,0.0,0.0,0.0,0.0,0.0,0.0,0.0,0.0,0.0,0.0,0.0,0.0,0.0,0.0,0.0,0.0,0.0,0.0,0.0,0.0,0.0,0.0,0.0,0.0,0.0,0.0,0.0,0.0,0.0,0.0,0.0,0.0,0.0,0.0,0.0,0.0,0.0,0.0,0.0,0.0,0.0,0.0,0.0,0.0,0.0,0.0,0.0,0.0,0.0,0.0,0.0,0.0,0.0,0.0,0.0,0.0,0.0,0.0,0.0,0.0,0.0,0.0,0.0,0.0,0.0,0.0,0.0,0.0,0.0,0.0,0.0,0.0,0.0,0.0,0.0,0.0,0.0,0.0,0.0,0.0,0.0,0.0,0.0,0.0,0.0,0.0,0.0,0.0,0.0,0.0,0.0,0.0,0.0,0.0,0.0,0.0,0.0,0.0,0.0,0.0,0.0,0.0,0.0,0.0,0.0,0.0,0.0,0.0,0.0,0.0,0.0,0.0,0.0,0.0,0.0,0.0,0.0,0.0,0.0,0.0,0.0,0.0,0.0,0.0,0.0,0.0,0.0,0.0,0.0,0.0,0.0,0.0,0.0,0.0,0.0,0.0,0.0,0.0,0.0,0.0,0.0,0.0,0.0,0.0,0.0,0.0,0.0,0.0,0.0,0.0,0.0,0.0,0.0,0.0,0.0,0.0,0.0,0.0,0.0,0.0,0.0,0.0,0.0,0.0,0.0,0.0,0.0,0.0,0.0,0.0,0.0,0.0,0.0,0.0,0.0,0.0,0.0,0.0,0.0,0.0,0.0,0.0,0.0,0.0,0.0,0.0,0.0,0.0,0.0,0.0,0.0,0.0,0.0,0.0,0.0,0.0,0.0,0.0,0.0,0.0,0.0,0.0,0.0,0.0,0.0,0.0,0.0,0.0,0.0,0.0,0.0,0.0,0.0,0.0,0.0,0.0,0.0,0.0,0.0,0.0,0.0,0.0,0.0,0.0,0.0,0.0,0.0,0.0,0.0,0.0,0.0,0.0,0.0,0.0,0.0,0.0,0.0,0.0,0.0,0.0,0.0,0.0,0.0,0.0,0.0,0.0,0.0,0.0,0.0,0.0,0.0,0.0,0.0,0.0,0.0,0.0,0.0,0.0,0.0,0.0,0.0,0.0,0.0,0.0,0.0,0.0,0.0,0.0,0.0,0.0,0.0,0.0,0.0,0.0,0.0,0.0,0.0,0.0,0.0,0.0,0.0,0.0,0.0,0.0,0.0,0.0,0.0,0.0,0.0,0.0,0.0,0.0,0.0,0.0,0.0,0.0,0.0,0.0,0.0,0.0,0.0,0.0,0.0,0.0,0.0,0.0,0.0,0.0,0.0,0.0,0.0,0.0,0.0,0.0,0.0,0.0,0.0,0.0,0.0,0.0,0.0,0.0,0.0,0.0,0.0,0.0,0.0,0.0,0.0,0.0,0.0,0.0,0.0,0.0,0.0,0.0,0.0,0.0,0.0,0.0,0.0,0.0,0.0,0.0,0.0,0.0,0.0,0.0,0.0,0.0,0.0,0.0,0.0,0.0,0.0,0.0,0.0,0.0,0.0,0.0,0.0,0.0,0.0,0.0,0.0,0.0,0.0,0.0,0.0,0.0,0.0,0.0,0.0,0.0,0.0,0.0,0.0,0.0,0.0,0.0,0.0,0.0,0.0,0.0,0.0,0.0,0.0,0.0,0.0,0.0,0.0,0.0,0.0,0.0,0.0,0.0,0.0,0.0,0.0,0.0,0.0,0.0,0.0,0.0,0.0,0.0,0.0,0.0,0.0,0.0,0.0,0.0,0.0,0.0,0.0,0.0,0.0,0.0,0.0,0.0,0.0,0.0,0.0,0.0,0.0,0.0,0.0,0.0,0.0,0.0,0.0,0.0,0.0,0.0,0.0,0.0,0.0,0.0,0.0,0.0,0.0,0.0,0.0,0.0,0.0,0.0,0.0,0.0,0.0,0.0,0.0,0.0,0.0,0.0,0.0,0.0,0.0,0.0,0.0,0.0,0.0,0.0,0.0,0.0,0.0,0.0,0.0,0.0,0.0,0.0,0.0,0.0,0.0,0.0,0.0,0.0,0.0,0.0,0.0,0.0,0.0,0.0,0.0,0.0,0.0,0.0,0.0,0.0,0.0,0.0,0.0,0.0,0.0,0.0,0.0,0.0,0.0,0.0,0.0,0.0,0.0,0.0,0.0,0.0,0.0,0.0,0.0,0.0,0.0,0.0,0.0,0.0,0.0,0.0,0.0,0.0,0.0,0.0,0.0,0.0,0.0,0.0,0.0,0.0,0.0,0.0,0.0,0.0,0.0,0.0,0.0,0.0,0.0,0.0,0.0,0.0,0.0,0.0,0.0,0.0,0.0,0.0,0.0,0.0,0.0,0.0,0.0,0.0,0.0,0.0,0.0,0.0,0.0,0.0,0.0,0.0,0.0,0.0,0.0,0.0,0.0,0.0,0.0,0.0,0.0,0.0,0.0,0.0,0.0,0.0,0.0,0.0,0.0,0.0,0.0,0.0,0.0,0.0,0.0,0.0,0.0,0.0,0.0,0.0,0.0,0.0,0.0,0.0,0.0,0.0,0.0,0.0,0.0,0.0,0.0,0.0,0.0,0.0,-1.1174,0.0,0.0,0.0,0.0,0.0,0.0,0.0,0.0,0.0,0.0,0.0,0.0,0.0,0.0,0.0,0.0,0.0,0.0,0.0,0.0,0.0,0.0,0.0,0.0,0.0,0.0,0.0,0.0,0.0,0.0,0.0,0.0,0.0,0.0,0.0,0.0,0.0,0.0,0.0,0.0,0.0,0.0,0.0,0.0,0.0,0.0,0.0,0.0,0.0,0.0,0.0,0.0,0.0,0.0,0.0,0.0,0.0,0.0,0.0,0.0,0.0,0.0,0.0,0.0,0.0,0.0,0.0,0.0,0.0,0.0,0.0,0.0,0.0,0.0,0.0,0.0,0.0,0.0,0.0,0.0,0.0,0.0,0.0,0.0,0.0,0.0,0.0,0.0,0.0,0.0,0.0,0.0,0.0,0.0,0.0,0.0,0.0,0.0,0.0,0.0,0.0,0.0,0.0,0.0,0.0,0.0,0.0,0.0,0.0,0.0,-1.5557,-1.4628,-1.3685,-1.2785,-1.1894,0.0,0.0,0.0,0.0,0.0,0.0,0.0,0.0,0.0,0.0,0.0,0.0,0.0,0.0,0.0,0.0,0.0,0.0,0.0,0.0,0.0,0.0,0.0,0.0,0.0,0.0,0.0,0.0,0.0,0.0,0.0,0.0,0.0,0.0,0.0,0.0,0.0,0.0,0.0,0.0,0.0,0.0,0.0,0.0,0.0,0.0,0.0,0.0,0.0,0.0,0.0,0.0,0.0,0.0,0.0,0.0,0.0,0.0,0.0,0.0,0.0,0.0,0.0,0.0,0.0,0.0,0.0,0.0,0.0,0.0,0.0,0.0,0.0,0.0,0.0,0.0,0.0,0.0,0.0,0.0,0.0,0.0,0.0,0.0,0.0,0.0,0.0,0.0,0.0,0.0,0.0,0.0,0.0,0.0,0.0,0.0,0.0,0.0,0.0,0.0,0.0,0.0,0.0,0.0,0.0,0.0,0.0,0.0,0.0,0.0,0.0,0.0,-1.445,-1.3585,-1.268,0.0,0.0,0.0,0.0,0.0,0.0,0.0,0.0,0.0,0.0,0.0,0.0,0.0,0.0,0.0,0.0,0.0,0.0,0.0,0.0,0.0,0.0,0.0,0.0,0.0,0.0,0.0,0.0,0.0,0.0,0.0,0.0,0.0,0.0,0.0,0.0,0.0,0.0,0.0,0.0,0.0,0.0,0.0,0.0,0.0,0.0,0.0,0.0,0.0,0.0,0.0,0.0,0.0,0.0,0.0,0.0,0.0,0.0,0.0,0.0,0.0,0.0,0.0,0.0,0.0,0.0,0.0,0.0,0.0,0.0,0.0,0.0,0.0,0.0,0.0,0.0,0.0,0.0,0.0,0.0,0.0,0.0,0.0,0.0,0.0,0.0,0.0,0.0,0.0,0.0,0.0,0.0,0.0,0.0,0.0,0.0,0.0,0.0,0.0,0.0,0.0,0.0,0.0,0.0,0.0,0.0,0.0,0.0,0.0,0.0,-1.6285,-1.548,-1.5201,0.0,-1.3251,0.0,0.0,0.0,0.0,0.0,0.0,0.0,0.0,0.0,0.0,0.0,0.0,0.0,0.0,0.0,0.0,0.0,0.0,0.0,0.0,0.0,0.0,0.0,0.0,0.0,0.0,0.0,0.0,0.0,0.0,0.0,0.0,0.0,0.0,0.0,0.0,0.0,0.0,0.0,0.0,0.0,0.0,0.0,0.0,0.0,0.0,0.0,0.0,0.0,0.0,0.0,0.0,0.0,0.0,0.0,0.0,0.0,0.0,0.0,0.0,0.0,0.0,0.0,0.0,0.0,0.0,0.0,0.0,0.0,0.0,0.0,0.0,0.0,0.0,0.0,0.0,0.0,0.0,0.0,0.0,0.0,0.0,0.0,0.0,0.0,0.0,0.0,0.0,0.0,0.0,0.0,0.0,0.0,0.0,0.0,0.0,0.0,0.0,0.0,0.0,0.0,0.0,0.0,0.0,0.0,0.0,0.0,0.0,0.0,0.0,-1.662,-1.617,-1.5659,-1.4709,0.0,0.0,0.0,0.0,0.0,0.0,0.0,0.0,0.0,0.0,0.0,0.0,0.0,0.0,0.0,0.0,0.0,0.0,0.0,0.0,0.0,0.0,0.0,0.0,0.0,0.0,0.0,0.0,0.0,0.0,0.0,0.0,0.0,0.0,0.0,0.0,0.0,0.0,0.0,0.0,0.0,0.0,0.0,0.0,0.0,0.0,0.0,0.0,0.0,0.0,0.0,0.0,0.0,0.0,0.0,0.0,0.0,0.0,0.0,0.0,0.0,0.0,0.0,0.0,0.0,0.0,0.0,0.0,0.0,0.0,0.0,0.0,0.0,0.0,0.0,0.0,0.0,0.0,0.0,0.0,0.0,0.0,0.0,0.0,0.0,0.0,0.0,0.0,0.0,0.0,0.0,0.0,0.0,0.0,0.0,0.0,0.0,0.0,0.0,0.0,0.0,0.0,0.0,0.0,0.0,0.0,0.0,0.0,0.0,0.0,-1.7059,-1.6866,-1.6686,-1.5994,-1.5058,-1.3854,0.0,0.0,0.0,0.0,0.0,0.0,0.0,0.0,0.0,0.0,0.0,0.0,0.0,0.0,0.0,0.0,0.0,0.0,0.0,0.0,0.0,0.0,0.0,0.0,0.0,0.0,0.0,0.0,0.0,0.0,0.0,0.0,0.0,0.0,0.0,0.0,0.0,0.0,0.0,0.0,0.0,0.0,0.0,0.0,0.0,0.0,0.0,0.0,0.0,0.0,0.0,0.0,0.0,0.0,0.0,0.0,0.0,0.0,0.0,0.0,0.0,0.0,0.0,0.0,0.0,0.0,0.0,0.0,0.0,0.0,0.0,0.0,0.0,0.0,0.0,0.0,0.0,0.0,0.0,0.0,0.0,0.0,0.0,0.0,0.0,0.0,0.0,0.0,0.0,0.0,0.0,0.0,0.0,0.0,0.0,0.0,0.0,0.0,0.0,0.0,0.0,0.0,0.0,0.0,0.0,0.0,0.0,0.0,-1.7384,-1.7265,-1.7099,-1.6956,-1.6289,-1.5572,0.0,0.0,0.0,0.0,0.0,0.0,0.0,0.0,0.0,0.0,0.0,0.0,0.0,0.0,0.0,0.0,0.0,0.0,0.0,0.0,0.0,0.0,0.0,0.0,0.0,0.0,0.0,0.0,0.0,0.0,0.0,0.0,0.0,0.0,0.0,0.0,0.0,0.0,0.0,0.0,0.0,0.0,0.0,0.0,0.0,0.0,0.0,0.0,0.0,0.0,0.0,0.0,0.0,0.0,0.0,0.0,0.0,0.0,0.0,0.0,0.0,0.0,0.0,0.0,0.0,0.0,0.0,0.0,0.0,0.0,0.0,0.0,0.0,0.0,0.0,0.0,0.0,0.0,0.0,0.0,0.0,0.0,0.0,0.0,0.0,0.0,0.0,0.0,0.0,0.0,0.0,0.0,0.0,0.0,0.0,0.0,0.0,0.0,0.0,0.0,0.0,0.0,0.0,0.0,0.0,0.0,0.0,0.0,0.0,-1.7542,-1.7305,-1.7199,-1.7175,-1.6889,-1.6464,0.0,0.0,0.0,0.0,0.0,0.0,0.0,0.0,0.0,0.0,0.0,0.0,0.0,0.0,0.0,0.0,0.0,0.0,0.0,0.0,0.0,0.0,0.0,0.0,0.0,0.0,0.0,0.0,0.0,0.0,0.0,0.0,0.0,0.0,0.0,0.0,0.0,0.0,0.0,0.0,0.0,0.0,0.0,0.0,0.0,0.0,0.0,0.0,0.0,0.0,0.0,0.0,0.0,0.0,0.0,0.0,0.0,0.0,0.0,0.0,0.0,0.0,0.0,0.0,0.0,0.0,0.0,0.0,0.0,0.0,0.0,0.0,0.0,0.0,0.0,0.0,0.0,0.0,0.0,0.0,0.0,0.0,0.0,0.0,0.0,0.0,0.0,0.0,0.0,0.0,0.0,0.0,0.0,0.0,0.0,0.0,0.0,0.0,0.0,0.0,0.0,0.0,0.0,0.0,0.0,0.0,0.0,0.0,0.0,-1.8017,0.0,-1.812,-1.8145,-1.7872,-1.7448,0.0,0.0,0.0,0.0,0.0,0.0,0.0,0.0,0.0,0.0,0.0,0.0,0.0,0.0,0.0,0.0,0.0,0.0,0.0,0.0,0.0,0.0,0.0,0.0,0.0,0.0,0.0,0.0,0.0,0.0,0.0,0.0,0.0,0.0,0.0,0.0,0.0,0.0,0.0,0.0,0.0,0.0,0.0,0.0,0.0,0.0,0.0,0.0,0.0,0.0,0.0,0.0,0.0,0.0,0.0,0.0,0.0,0.0,0.0,0.0,0.0,0.0,0.0,0.0,0.0,0.0,0.0,0.0,0.0,0.0,0.0,0.0,0.0,0.0,0.0,0.0,0.0,0.0,0.0,0.0,0.0,0.0,0.0,0.0,0.0,0.0,0.0,0.0,0.0,0.0,0.0,0.0,0.0,0.0,0.0,0.0,0.0,0.0,0.0,0.0,0.0,0.0,0.0,0.0,0.0,0.0,0.0,0.0,-1.8454,-1.8934,-1.9613,-1.9951,-1.9985,-1.9234,-1.8525,0.0,0.0,0.0,0.0,0.0,0.0,0.0,0.0,0.0,0.0,0.0,0.0,0.0,0.0,0.0,0.0,0.0,0.0,0.0,0.0,0.0,0.0,0.0,0.0,0.0,0.0,0.0,0.0,0.0,0.0,0.0,0.0,0.0,0.0,0.0,0.0,0.0,0.0,0.0,0.0,0.0,0.0,0.0,0.0,0.0,0.0,0.0,0.0,0.0,0.0,0.0,0.0,0.0,0.0,0.0,0.0,0.0,0.0,0.0,0.0,0.0,0.0,0.0,0.0,0.0,0.0,0.0,0.0,0.0,0.0,0.0,0.0,0.0,0.0,0.0,0.0,0.0,0.0,0.0,0.0,0.0,0.0,0.0,0.0,0.0,0.0,0.0,0.0,0.0,0.0,0.0,0.0,0.0,0.0,0.0,0.0,0.0,0.0,0.0,0.0,0.0,0.0,0.0,0.0,0.0,0.0,0.0,0.0,0.0,-2.0783,-2.0933,-2.1028,-2.1028,-2.0788,-2.0045,0.0,0.0,0.0,0.0,0.0,0.0,0.0,0.0,0.0,0.0,0.0,0.0,0.0,0.0,0.0,0.0,0.0,0.0,0.0,0.0,0.0,0.0,0.0,0.0,0.0,0.0,0.0,0.0,0.0,0.0,0.0,0.0,0.0,0.0,0.0,0.0,0.0,0.0,0.0,0.0,0.0,0.0,0.0,0.0,0.0,0.0,0.0,0.0,0.0,0.0,0.0,0.0,0.0,0.0,0.0,0.0,0.0,0.0,0.0,0.0,0.0,0.0,0.0,0.0,0.0,0.0,0.0,0.0,0.0,0.0,0.0,0.0,0.0,0.0,0.0,0.0,0.0,0.0,0.0,0.0,0.0,0.0,0.0,0.0,0.0,0.0,0.0,0.0,0.0,0.0,0.0,0.0,0.0,0.0,0.0,0.0,0.0,0.0,0.0,0.0,0.0,0.0,0.0,0.0,0.0,0.0,0.0,0.0,0.0,-2.4496,-2.385,-2.3467,-2.3398,-2.2867,-2.1979,-2.0691,0.0,0.0,0.0,0.0,0.0,0.0,0.0,0.0,0.0,0.0,0.0,0.0,0.0,0.0,0.0,0.0,0.0,0.0,0.0,0.0,0.0,0.0,0.0,0.0,0.0,0.0,0.0,0.0,0.0,0.0,0.0,0.0,0.0,0.0,0.0,0.0,0.0,0.0,0.0,0.0,0.0,0.0,0.0,0.0,0.0,0.0,0.0,0.0,0.0,0.0,0.0,0.0,0.0,0.0,0.0,0.0,0.0,0.0,0.0,0.0,0.0,0.0,0.0,0.0,0.0,0.0,0.0,0.0,0.0,0.0,0.0,0.0,0.0,0.0,0.0,0.0,0.0,0.0,0.0,0.0,0.0,0.0,0.0,0.0,0.0,0.0,0.0,0.0,0.0,0.0,0.0,0.0,0.0,0.0,0.0,0.0,0.0,0.0,0.0,0.0,0.0,0.0,0.0,0.0,0.0,0.0,0.0,0.0,-2.9529,-2.8057,-2.7101,-2.6795,-2.5446,-2.4226,0.0,0.0,0.0,0.0,0.0,0.0,0.0,0.0,0.0,0.0,0.0,0.0,0.0,0.0,0.0,0.0,0.0,0.0,0.0,0.0,0.0,0.0,0.0,0.0,0.0,0.0,0.0,0.0,0.0,0.0,0.0,0.0,0.0,0.0,0.0,0.0,0.0,0.0,0.0,0.0,0.0,0.0,0.0,0.0,0.0,0.0,0.0,0.0,0.0,0.0,0.0,0.0,0.0,0.0,0.0,0.0,0.0,0.0,0.0,0.0,0.0,0.0,0.0,0.0,0.0,0.0,0.0,0.0,0.0,0.0,0.0,0.0,0.0,0.0,0.0,0.0,0.0,0.0,0.0,0.0,0.0,0.0,0.0,0.0,0.0,0.0,0.0,0.0,0.0,0.0,0.0,0.0,0.0,0.0,0.0,0.0,0.0,0.0,0.0,0.0,0.0,0.0,0.0,0.0,0.0,0.0,0.0,0.0,0.0,-3.0459,-3.1906,-3.1686,-2.9771,-2.8657,-2.6907,0.0,0.0,0.0,0.0,0.0,0.0,0.0,0.0,0.0,0.0,0.0,0.0,0.0,0.0,0.0,0.0,0.0,0.0,0.0,0.0,0.0,0.0,0.0,0.0,0.0,0.0,0.0,0.0,0.0,0.0,0.0,0.0,0.0,0.0,0.0,0.0,0.0,0.0,0.0,0.0,0.0,0.0,0.0,0.0,0.0,0.0,0.0,0.0,0.0,0.0,0.0,0.0,0.0,0.0,0.0,0.0,0.0,0.0,0.0,0.0,0.0,0.0,0.0,0.0,0.0,0.0,0.0,0.0,0.0,0.0,0.0,0.0,0.0,0.0,0.0,0.0,0.0,0.0,0.0,0.0,0.0,0.0,0.0,0.0,0.0,0.0,0.0,0.0,0.0,0.0,0.0,0.0,0.0,0.0,0.0,0.0,0.0,0.0,0.0,0.0,0.0,0.0,0.0,0.0,0.0,0.0,0.0,0.0,-3.0277,-3.3084,-3.5157,-3.5539,-3.4157,-3.2206,-2.9683,0.0,0.0,0.0,0.0,0.0,0.0,0.0,0.0,0.0,0.0,0.0,0.0,0.0,0.0,0.0,0.0,0.0,0.0,0.0,0.0,0.0,0.0,0.0,0.0,0.0,0.0,0.0,0.0,0.0,0.0,0.0,0.0,0.0,0.0,0.0,0.0,0.0,0.0,0.0,0.0,0.0,0.0,0.0,0.0,0.0,0.0,0.0,0.0,0.0,0.0,0.0,0.0,0.0,0.0,0.0,0.0,0.0,0.0,0.0,0.0,0.0,0.0,0.0,0.0,0.0,0.0,0.0,0.0,0.0,0.0,0.0,0.0,0.0,0.0,0.0,0.0,0.0,0.0,0.0,0.0,0.0,0.0,0.0,0.0,0.0,0.0,0.0,0.0,0.0,0.0,0.0,0.0,0.0,0.0,0.0,0.0,0.0,0.0,0.0,0.0,0.0,0.0,0.0,0.0,0.0,0.0,0.0,0.0,-3.2748,-3.6106,-3.7612,-3.8488,-3.8713,-3.5579,-3.2293,0.0,0.0,0.0,0.0,0.0,0.0,0.0,0.0,0.0,0.0,0.0,0.0,0.0,0.0,0.0,0.0,0.0,0.0,0.0,0.0,0.0,0.0,0.0,0.0,0.0,0.0,0.0,0.0,0.0,0.0,0.0,0.0,0.0,0.0,0.0,0.0,0.0,0.0,0.0,0.0,0.0,0.0,0.0,0.0,0.0,0.0,0.0,0.0,0.0,0.0,0.0,0.0,0.0,0.0,0.0,0.0,0.0,0.0,0.0,0.0,0.0,0.0,0.0,0.0,0.0,0.0,0.0,0.0,0.0,0.0,0.0,0.0,0.0,0.0,0.0,0.0,0.0,0.0,0.0,0.0,0.0,0.0,0.0,0.0,0.0,0.0,0.0,0.0,0.0,0.0,0.0,0.0,0.0,0.0,0.0,0.0,0.0,0.0,0.0,0.0,0.0,0.0,0.0,0.0,0.0,0.0,0.0,0.0,-3.2857,-3.6124,-3.7772,-3.8939,-3.9625,-3.6943,-3.3998,0.0,0.0,0.0,0.0,0.0,0.0,0.0,0.0,0.0,0.0,0.0,0.0,0.0,0.0,0.0,0.0,0.0,0.0,0.0,0.0,0.0,0.0,0.0,0.0,0.0,0.0,0.0,0.0,0.0,0.0,0.0,0.0,0.0,0.0,0.0,0.0,0.0,0.0,0.0,0.0,0.0,0.0,0.0,0.0,0.0,0.0,0.0,0.0,-1.4325,0.0,0.0,0.0,0.0,0.0,0.0,0.0,0.0,0.0,0.0,0.0,0.0,0.0,0.0,0.0,0.0,0.0,0.0,0.0,0.0,0.0,0.0,0.0,0.0,0.0,0.0,0.0,0.0,0.0,0.0,0.0,0.0,0.0,0.0,0.0,0.0,0.0,0.0,0.0,0.0,0.0,0.0,0.0,0.0,0.0,0.0,0.0,0.0,0.0,0.0,0.0,0.0,0.0,0.0,0.0,0.0,0.0,0.0,0.0,-3.4073,-3.7283,-3.8988,-4.0047,-4.0377,-3.8755,-3.5978,0.0,0.0,0.0,0.0,0.0,0.0,0.0,0.0,0.0,0.0,0.0,0.0,0.0,0.0,0.0,0.0,0.0,0.0,0.0,0.0,0.0,0.0,0.0,0.0,0.0,0.0,0.0,0.0,0.0,0.0,0.0,0.0,0.0,0.0,0.0,0.0,0.0,0.0,0.0,0.0,0.0,0.0,0.0,0.0,0.0,0.0,0.0,0.0,0.0,0.0,0.0,0.0,0.0,0.0,0.0,0.0,0.0,0.0,0.0,0.0,0.0,0.0,0.0,0.0,0.0,0.0,0.0,0.0,0.0,0.0,0.0,0.0,0.0,0.0,0.0,0.0,0.0,0.0,0.0,0.0,0.0,0.0,0.0,0.0,0.0,0.0,0.0,0.0,0.0,0.0,0.0,0.0,0.0,0.0,0.0,0.0,0.0,0.0,0.0,0.0,0.0,0.0,0.0,0.0,0.0,0.0,0.0,-3.2173,-3.5385,-3.8597,-4.0157,-4.1038,-4.1277,-4.0267,-3.7588,-3.3164,0.0,0.0,0.0,0.0,0.0,0.0,0.0,0.0,0.0,0.0,0.0,0.0,0.0,0.0,0.0,0.0,0.0,0.0,0.0,0.0,0.0,0.0,0.0,0.0,0.0,0.0,0.0,0.0,0.0,0.0,0.0,0.0,0.0,0.0,0.0,0.0,0.0,0.0,-1.3197,-1.5199,0.0,0.0,0.0,0.0,0.0,0.0,0.0,0.0,-1.6327,0.0,0.0,0.0,0.0,0.0,0.0,0.0,0.0,0.0,0.0,0.0,0.0,0.0,0.0,0.0,0.0,0.0,0.0,0.0,0.0,0.0,0.0,0.0,0.0,0.0,0.0,0.0,0.0,0.0,0.0,0.0,0.0,0.0,0.0,0.0,0.0,0.0,0.0,0.0,0.0,0.0,0.0,0.0,0.0,0.0,0.0,0.0,0.0,0.0,0.0,0.0,0.0,0.0,0.0,0.0,0.0,-2.8998,-3.2173,-3.5385,-3.8615,-3.9606,-4.0744,-4.1974,-4.001,-3.7551,-3.466,0.0,0.0,0.0,0.0,0.0,0.0,0.0,0.0,0.0,0.0,0.0,0.0,0.0,0.0,0.0,0.0,0.0,0.0,0.0,0.0,0.0,0.0,0.0,0.0,0.0,0.0,0.0,0.0,0.0,0.0,0.0,0.0,0.0,0.0,0.0,0.0,0.0,0.0,0.0,-1.6458,-1.7085,0.0,0.0,0.0,0.0,0.0,0.0,0.0,0.0,-1.701,0.0,0.0,0.0,0.0,0.0,0.0,0.0,0.0,0.0,0.0,0.0,0.0,0.0,0.0,0.0,0.0,0.0,0.0,0.0,0.0,0.0,0.0,0.0,0.0,0.0,0.0,0.0,0.0,0.0,0.0,0.0,0.0,0.0,0.0,0.0,0.0,0.0,0.0,0.0,0.0,0.0,0.0,0.0,0.0,0.0,0.0,0.0,0.0,0.0,0.0,0.0,0.0,0.0,0.0,0.0,-2.8957,-3.2192,-3.5183,-3.801,-3.968,-4.0891,-4.1625,-4.0139,-3.7973,0.0,0.0,0.0,0.0,0.0,0.0,0.0,0.0,0.0,0.0,0.0,0.0,0.0,0.0,0.0,0.0,0.0,0.0,0.0,0.0,0.0,0.0,0.0,0.0,0.0,0.0,0.0,0.0,0.0,0.0,0.0,0.0,0.0,0.0,0.0,0.0,0.0,0.0,0.0,0.0,-1.7788,-1.7979,-1.81,0.0,0.0,0.0,0.0,0.0,0.0,-1.8585,-1.817,0.0,0.0,0.0,0.0,0.0,0.0,0.0,0.0,0.0,0.0,0.0,0.0,0.0,0.0,0.0,0.0,0.0,0.0,0.0,0.0,0.0,0.0,0.0,0.0,0.0,0.0,0.0,0.0,0.0,0.0,0.0,0.0,0.0,0.0,0.0,0.0,0.0,0.0,0.0,0.0,0.0,0.0,0.0,0.0,0.0,0.0,0.0,0.0,0.0,0.0,0.0,0.0,0.0,0.0,0.0,-2.9219,-3.2247,-3.5147,-3.79,-3.9863,-4.102,-4.1295,-4.0115,-3.8028,0.0,0.0,0.0,0.0,0.0,0.0,0.0,0.0,0.0,0.0,0.0,0.0,0.0,0.0,0.0,0.0,0.0,0.0,0.0,0.0,0.0,0.0,0.0,0.0,0.0,0.0,0.0,0.0,0.0,0.0,0.0,0.0,0.0,0.0,0.0,0.0,0.0,0.0,0.0,0.0,0.0,-1.8975,-1.9,-1.953,0.0,0.0,0.0,0.0,-2.0119,-1.9883,0.0,0.0,0.0,0.0,0.0,0.0,0.0,0.0,0.0,0.0,0.0,0.0,0.0,0.0,0.0,0.0,0.0,0.0,0.0,0.0,0.0,0.0,0.0,0.0,0.0,0.0,0.0,0.0,0.0,0.0,0.0,0.0,0.0,0.0,0.0,0.0,0.0,0.0,0.0,0.0,0.0,0.0,0.0,0.0,0.0,0.0,0.0,0.0,0.0,0.0,0.0,0.0,0.0,0.0,0.0,0.0,-2.9971,-3.2522,-3.5679,-3.9405,-3.9882,-4.0708,-4.2066,-3.9375,-3.6948,0.0,0.0,0.0,0.0,0.0,0.0,0.0,0.0,0.0,0.0,0.0,0.0,0.0,0.0,0.0,0.0,0.0,0.0,0.0,0.0,0.0,0.0,0.0,0.0,0.0,0.0,0.0,0.0,0.0,0.0,0.0,0.0,0.0,0.0,0.0,0.0,0.0,0.0,0.0,0.0,0.0,-1.9891,-2.0023,-2.0001,-1.9942,0.0,0.0,-2.0851,-2.0935,-2.1978,0.0,0.0,0.0,0.0,0.0,0.0,0.0,0.0,0.0,0.0,0.0,0.0,0.0,0.0,0.0,0.0,0.0,0.0,0.0,0.0,0.0,0.0,0.0,0.0,0.0,0.0,0.0,0.0,0.0,0.0,0.0,0.0,0.0,0.0,0.0,0.0,0.0,0.0,0.0,0.0,0.0,0.0,0.0,0.0,0.0,0.0,0.0,0.0,0.0,0.0,0.0,0.0,0.0,0.0,0.0,-2.6195,-3.0184,-3.2748,-3.5505,-3.8444,-3.966,-4.0533,-4.1095,-3.8921,-3.6971,0.0,0.0,0.0,0.0,0.0,0.0,0.0,0.0,0.0,0.0,0.0,0.0,0.0,0.0,0.0,0.0,0.0,0.0,0.0,0.0,0.0,0.0,0.0,0.0,0.0,0.0,0.0,0.0,0.0,0.0,0.0,0.0,0.0,0.0,0.0,0.0,0.0,0.0,0.0,0.0,0.0,0.0,-2.0815,-2.1779,0.0,0.0,0.0,-2.3042,-2.3025,0.0,0.0,0.0,0.0,0.0,0.0,0.0,0.0,0.0,0.0,0.0,0.0,0.0,0.0,0.0,0.0,0.0,0.0,0.0,0.0,0.0,0.0,0.0,0.0,0.0,0.0,0.0,0.0,0.0,0.0,0.0,0.0,0.0,0.0,0.0,0.0,0.0,0.0,0.0,0.0,0.0,0.0,0.0,0.0,0.0,0.0,0.0,0.0,0.0,0.0,0.0,0.0,0.0,0.0,0.0,0.0,0.0,-3.0637,-3.3054,-3.5551,-3.818,-3.95,-4.0216,-4.0232,-3.8358,0.0,0.0,0.0,0.0,0.0,0.0,0.0,0.0,0.0,0.0,0.0,0.0,0.0,0.0,0.0,0.0,0.0,0.0,0.0,0.0,0.0,0.0,0.0,0.0,0.0,0.0,0.0,-1.1172,0.0,0.0,0.0,0.0,0.0,0.0,0.0,0.0,0.0,0.0,0.0,0.0,0.0,0.0,-2.2446,-2.2084,-2.3439,-2.4215,0.0,0.0,-2.4794,-2.4842,-2.4201,-2.363,0.0,0.0,0.0,0.0,0.0,0.0,0.0,0.0,0.0,0.0,0.0,0.0,0.0,0.0,0.0,0.0,0.0,0.0,0.0,0.0,0.0,0.0,0.0,0.0,0.0,0.0,0.0,0.0,0.0,0.0,0.0,0.0,0.0,0.0,0.0,0.0,0.0,0.0,0.0,0.0,0.0,0.0,0.0,0.0,0.0,0.0,0.0,0.0,0.0,0.0,0.0,0.0,0.0,0.0,0.0,-3.1685,-3.35,-3.6285,-4.0095,-3.9682,-3.972,-4.0402,-3.734,-3.5237,0.0,0.0,0.0,0.0,0.0,0.0,0.0,0.0,0.0,0.0,0.0,0.0,0.0,0.0,0.0,0.0,0.0,0.0,0.0,0.0,0.0,0.0,0.0,0.0,0.0,0.0,0.0,0.0,0.0,0.0,0.0,0.0,0.0,0.0,0.0,0.0,0.0,0.0,0.0,0.0,0.0,-2.3545,-2.4201,-2.4465,-2.4836,0.0,0.0,-2.5652,-2.5717,-2.6673,-2.6539,-2.3849,0.0,0.0,0.0,0.0,0.0,0.0,0.0,0.0,0.0,0.0,0.0,0.0,0.0,0.0,0.0,0.0,0.0,0.0,0.0,0.0,0.0,0.0,0.0,0.0,0.0,0.0,0.0,0.0,0.0,0.0,0.0,0.0,0.0,0.0,0.0,0.0,0.0,0.0,0.0,0.0,0.0,0.0,0.0,0.0,0.0,0.0,0.0,0.0,0.0,0.0,0.0,0.0,0.0,-2.8054,-3.2608,-3.3936,-3.6237,-3.9517,-3.9671,-3.9701,-3.9818,-3.7605,-3.5787,0.0,0.0,0.0,0.0,0.0,0.0,0.0,0.0,0.0,0.0,0.0,0.0,0.0,0.0,0.0,0.0,0.0,0.0,0.0,0.0,0.0,0.0,0.0,0.0,0.0,0.0,0.0,0.0,-1.4751,-1.527,-1.6237,0.0,0.0,0.0,0.0,0.0,0.0,0.0,0.0,0.0,0.0,-2.5404,-2.5314,-2.619,0.0,0.0,-2.7164,-2.7284,-2.6742,-2.6727,-2.6339,-2.5118,-2.4028,0.0,0.0,0.0,0.0,0.0,0.0,0.0,0.0,0.0,0.0,0.0,0.0,0.0,0.0,0.0,0.0,0.0,0.0,0.0,0.0,0.0,0.0,0.0,0.0,0.0,0.0,0.0,0.0,0.0,0.0,0.0,0.0,0.0,0.0,0.0,0.0,0.0,0.0,0.0,0.0,0.0,0.0,0.0,0.0,0.0,0.0,0.0,0.0,0.0,0.0,0.0,0.0,-2.9083,-3.3283,-3.4519,-3.6531,-3.932,-3.9712,-3.9735,-3.9414,-3.781,-3.6128,0.0,0.0,0.0,0.0,0.0,0.0,0.0,0.0,0.0,0.0,0.0,0.0,0.0,0.0,0.0,0.0,0.0,0.0,0.0,0.0,0.0,0.0,0.0,0.0,0.0,0.0,0.0,0.0,-1.6321,-1.676,-1.7178,0.0,0.0,0.0,0.0,0.0,0.0,0.0,0.0,0.0,0.0,-2.6334,-2.6177,-2.7125,-2.7822,-2.7676,-2.7962,-2.808,-2.7627,-2.6919,-2.6203,-2.5682,0.0,0.0,0.0,0.0,0.0,0.0,0.0,0.0,0.0,0.0,0.0,0.0,0.0,0.0,0.0,0.0,0.0,0.0,0.0,0.0,0.0,0.0,0.0,0.0,0.0,0.0,0.0,0.0,0.0,0.0,-2.4098,0.0,0.0,0.0,0.0,0.0,0.0,0.0,0.0,0.0,0.0,0.0,0.0,0.0,0.0,0.0,0.0,0.0,0.0,0.0,0.0,0.0,0.0,-3.096,-3.3563,-3.5266,-3.733,-3.9705,-3.9804,-3.9731,-3.9502,-3.7754,-3.6,-3.4204,0.0,0.0,0.0,0.0,0.0,0.0,0.0,0.0,0.0,0.0,0.0,0.0,0.0,0.0,0.0,0.0,0.0,0.0,0.0,0.0,0.0,0.0,0.0,0.0,0.0,0.0,-1.6935,-1.7693,-1.8117,0.0,0.0,0.0,0.0,0.0,0.0,0.0,0.0,0.0,0.0,-2.5229,-2.6043,-2.6774,-2.704,-2.7493,-2.8247,-2.7861,-2.7667,-2.828,-2.7648,-2.6602,0.0,0.0,0.0,0.0,0.0,0.0,0.0,0.0,0.0,0.0,0.0,0.0,0.0,0.0,0.0,0.0,0.0,0.0,0.0,0.0,0.0,0.0,0.0,0.0,0.0,0.0,0.0,-2.9461,-2.9462,0.0,0.0,0.0,0.0,0.0,0.0,0.0,0.0,0.0,0.0,0.0,-3.4529,-3.4981,0.0,0.0,0.0,0.0,0.0,0.0,0.0,0.0,0.0,0.0,0.0,0.0,-3.1655,-3.5094,-3.5814,-3.7591,-4.0472,-4.0585,-4.0508,-4.0218,-3.9048,-3.6742,-3.3239,0.0,0.0,0.0,0.0,0.0,0.0,0.0,0.0,0.0,0.0,0.0,0.0,0.0,0.0,0.0,0.0,0.0,0.0,0.0,0.0,0.0,0.0,0.0,0.0,0.0,-1.8143,0.0,0.0,0.0,0.0,0.0,0.0,0.0,0.0,0.0,0.0,0.0,-2.462,-2.5489,-2.6627,-2.7485,-2.7791,-2.7989,-2.8236,0.0,0.0,0.0,0.0,0.0,0.0,0.0,0.0,0.0,0.0,0.0,0.0,0.0,0.0,-2.5488,-2.2755,-2.1821,-2.149,-2.1467,0.0,0.0,0.0,0.0,0.0,0.0,0.0,0.0,0.0,0.0,0.0,0.0,0.0,0.0,-3.4352,0.0,-3.4492,0.0,0.0,0.0,0.0,0.0,0.0,0.0,0.0,-3.634,-3.7637,-3.8206,-3.869,-3.9081,0.0,-3.9086,-3.7147,0.0,0.0,0.0,0.0,0.0,0.0,0.0,0.0,-3.3091,-3.5943,-3.6927,-3.8527,-4.0747,-4.1136,-4.1158,-4.084,-3.9389,-3.7137,-3.399,-3.2063,-3.0149,0.0,0.0,0.0,0.0,0.0,0.0,0.0,0.0,0.0,0.0,0.0,0.0,0.0,0.0,0.0,0.0,0.0,0.0,0.0,0.0,0.0,0.0,0.0,-1.9738,0.0,0.0,0.0,0.0,0.0,0.0,0.0,0.0,0.0,-2.4112,-2.5216,-2.6132,-2.6498,-2.7575,-2.8232,-2.7991,0.0,0.0,0.0,0.0,0.0,0.0,0.0,-2.9954,-2.9575,-2.9524,-2.9833,-3.0741,-3.1121,-3.0946,-2.9959,0.0,0.0,-2.5169,-2.4154,-2.3917,-2.4171,-2.4831,-2.5541,-2.6302,-2.7385,-2.818,0.0,0.0,0.0,0.0,0.0,0.0,0.0,0.0,-3.7271,-3.7705,0.0,-3.8038,0.0,0.0,0.0,0.0,0.0,-3.6742,0.0,0.0,-3.911,-4.0685,-4.2234,-4.2259,-4.2686,-4.3415,-4.2699,-4.1895,-4.0877,-3.7759,0.0,0.0,0.0,0.0,0.0,0.0,-3.5258,-3.612,-3.8508,-4.008,-4.0731,-4.1509,-4.1716,-4.1256,-3.8835,-3.714,-3.6285,-3.3972,-3.2258,-3.1371,-2.9009,0.0,0.0,0.0,0.0,0.0,0.0,0.0,0.0,0.0,0.0,0.0,0.0,0.0,0.0,0.0,0.0,0.0,0.0,0.0,0.0,-2.0537,0.0,0.0,0.0,0.0,0.0,0.0,0.0,0.0,0.0,0.0,-2.6667,-2.716,-2.7531,-2.749,0.0,0.0,0.0,0.0,-2.8568,-2.8647,-2.9323,-2.9795,-2.9677,-3.0196,-3.0402,-2.9696,0.0,0.0,-3.1696,-3.156,-3.1472,-3.1309,-3.1343,-3.0378,-2.752,-2.6877,-2.6996,-2.7688,-2.8399,-2.9245,-2.9989,-3.0548,-3.0954,-4.8317,0.0,0.0,0.0,0.0,-4.3374,-4.478,-4.6627,-4.6627,-4.6033,-4.5036,-4.3714,0.0,0.0,0.0,0.0,0.0,0.0,-4.0806,-4.092,-4.3024,-4.4296,-4.4794,-4.5341,-4.5726,-4.5933,-4.5735,-4.4936,-4.3551,-4.2558,-4.004,-3.6193,0.0,0.0,0.0,0.0,-3.7222,-3.8641,-3.982,-4.1027,-4.2379,-4.2472,-4.2147,-4.1329,-3.8835,-3.7386,-3.7129,-3.533,-3.3927,-3.3083,-3.1254,0.0,0.0,0.0,0.0,0.0,0.0,0.0,0.0,0.0,0.0,0.0,0.0,0.0,0.0,0.0,0.0,0.0,0.0,0.0,-2.2066,-2.2869,-2.3538,0.0,0.0,0.0,0.0,0.0,0.0,0.0,0.0,0.0,-3.0427,-2.9425,-2.8724,0.0,0.0,-2.9408,-2.9086,-2.9275,-2.9429,-2.9462,-2.9954,0.0,-3.0387,-3.0864,-3.1182,-3.0959,-3.2098,-3.3213,-3.3717,-3.41,-3.4167,-3.3626,-3.3558,-3.3068,-3.1765,-3.0159,-2.9465,-3.0074,-3.0412,-3.0801,-3.1512,-3.2256,-3.2754,-5.5566,-5.0084,-4.851,-4.8125,-4.8663,-4.9163,-5.0221,-5.1544,-5.1195,-5.0383,-4.9261,-4.777,-4.6344,-4.4985,-4.3605,0.0,0.0,0.0,-4.383,-4.4188,-4.5237,-4.6111,-4.6769,-4.7159,-4.7609,-4.7969,-4.7571,-4.6877,-4.5998,-4.5246,-4.3437,-4.0502,0.0,0.0,-3.7328,-3.816,-3.9019,-3.999,-4.0977,-4.195,-4.2843,-4.3002,-4.2474,-4.1254,-3.9724,-3.8615,-3.7973,-3.7019,-3.5973,-3.4835,-3.3496,-3.1265,0.0,0.0,0.0,0.0,0.0,0.0,0.0,0.0,0.0,0.0,0.0,-2.0223,0.0,0.0,0.0,0.0,-2.1326,-2.2424,-2.395,-2.4531,0.0,0.0,0.0,0.0,0.0,0.0,0.0,-3.0233,-3.0642,-3.1331,-3.2634,-3.1913,-3.1298,-3.1338,-3.1008,-3.0644,-3.0213,0.0,-3.011,-3.0093,-3.0574,-3.0967,-3.102,-3.1542,-3.1986,-3.2236,-3.3192,-3.3914,-3.4134,-3.4735,-3.4878,-3.4303,-3.4303,-3.4336,-3.3922,-3.2949,-3.229,-3.2459,-3.2493,-3.2747,-3.3457,-3.3964,-3.4261,-6.1075,-5.9229,-5.5445,-5.3759,-5.3586,-5.3643,-5.3582,-5.336,-5.2556,-5.2035,-5.172,-5.0618,-4.9608,-4.8654,-4.7862,0.0,-4.7354,-4.6544,-4.6572,-4.7249,-4.6515,-4.6936,-4.8239,-4.8159,-4.857,-4.944,-4.8426,-4.8047,-4.8021,-4.6464,-4.5599,-4.5413,-4.2585,-4.0619,-3.9682,-4.0371,-4.069,-4.055,-4.2121,-4.2841,-4.2608,-4.3106,-4.2671,-4.1167,-4.1001,-4.0175,-3.8689,-3.845,-3.7734,-3.6266,-3.5365,-3.3469,-3.0375,0.0,0.0,0.0,0.0,0.0,0.0,0.0,0.0,0.0,0.0,0.0,0.0,0.0,0.0,0.0,-2.3047,0.0,-2.5561,-2.5738,0.0,0.0,0.0,-2.861,-2.9329,-3.0796,-3.2033,-3.2629,0.0,0.0,-3.367,-3.4265,-3.4493,-3.3808,-3.2913,-3.2074,-3.1255,-3.1026,-3.0831,-3.0879,-3.1281,-3.1666,-3.1773,-3.2202,-3.2785,-3.3363,-3.4049,-3.4252,-3.3863,-3.4201,-3.4286,-3.3846,-3.415,-3.4573,-3.4592,-3.5023,-3.5402,-3.4651,-3.4523,-3.4742,-3.5345,-3.5514,-3.5433,-6.181,-6.1349,-6.0325,-5.8697,-5.6855,-5.7436,-5.7218,-5.6518,-5.6882,-5.6359,-5.5066,-5.4097,-5.2456,-5.0392,-5.0067,-4.9593,-4.9047,-4.9382,-4.9314,-4.9013,-4.9959,-4.9896,-4.9019,-4.9548,-4.9523,-4.9046,-4.8773,-4.8345,-4.7835,-4.7378,-4.6541,-4.5294,-4.4526,-4.3409,-4.2031,-4.218,-4.2292,-4.2281,-4.315,-4.349,-4.3272,-4.2834,-4.2121,-4.1148,-3.9918,-3.8799,-3.7808,-3.6541,-3.5687,-3.5312,-3.4513,-3.3138,-3.1107,-3.0033,0.0,0.0,0.0,0.0,0.0,0.0,0.0,0.0,0.0,-2.404,-2.4789,0.0,-2.5486,0.0,-2.4615,-2.5667,-2.7333,-2.7864,0.0,0.0,-3.0429,-3.1221,-3.2601,-3.3046,-3.351,-3.4164,-3.4266,-3.4451,-3.4801,-3.4983,-3.5238,-3.5526,-3.451,-3.3571,-3.3244,-3.3166,-3.3054,-3.2923,-3.294,-3.3104,-3.3053,-3.3158,-3.3414,-3.4117,-3.4387,-3.4607,-3.5013,-3.5233,-3.5284,-3.5131,-3.5216,-3.5334,-3.5284,-3.5504,-3.5627,-3.5598,-3.5494,-3.5447,-3.5827,-3.5888,-3.5968,-6.2195,-6.1759,-6.1368,-6.0217,-5.8787,-5.9936,-5.9802,-5.8797,-5.9215,-5.8562,-5.7175,-5.6217,-5.4975,-5.3615,-5.3155,-5.2691,-5.2277,-5.1963,-5.1555,-5.118,-5.1551,-5.1274,-5.0399,-5.0573,-5.0298,-4.9551,-4.9394,-4.8915,-4.8277,-4.8153,-4.7469,-4.6194,-4.5737,-4.489,-4.3703,-4.3365,-4.323,-4.318,-4.3513,-4.36,-4.3479,-4.2708,-4.1919,-4.1111,-3.9551,-3.8322,-3.7496,-3.6248,-3.5404,-3.5009,-3.4578,-3.3578,-3.1957,-3.1419,-3.0216,0.0,0.0,0.0,0.0,0.0,0.0,0.0,0.0,0.0,0.0,0.0,-2.8352,-2.7798,-2.7705,-2.8322,-2.9958,-3.0317,-3.0871,-3.185,-3.2305,-3.3029,-3.4181,-3.4659,-3.5084,-3.5621,-3.5612,-3.5558,-3.5734,-3.5721,-3.5794,-3.6054,-3.5402,-3.4751,-3.4367,-3.4035,-3.3714,-3.3598,-3.3515,-3.349,-3.349,-3.3448,-3.3541,-3.3931,-3.4286,-3.4539,-3.4624,-3.4895,-3.503,-3.4726,-3.4895,-3.5098,-3.5118,-3.5528,-3.5847,-3.5959,-3.6028,-3.6071,-3.6105,-3.6148,-3.6233,-6.2357,-6.15,-6.0654,-6.0114,-5.9853,-6.1387,-6.1306,-6.0179,-6.0049,-5.9449,-5.8468,-5.7578,-5.715,-5.7,-5.6267,-5.5873,-5.5685,-5.4183,-5.3451,-5.3301,-5.2383,-5.1933,-5.1828,-5.1435,-5.088,-5.0309,-4.9972,-4.9455,-4.8839,-4.8623,-4.8144,-4.7369,-4.636,-4.5498,-4.4709,-4.4076,-4.3686,-4.3479,-4.3479,-4.3442,-4.3332,-4.2653,-4.1864,-4.0965,-3.9496,-3.8267,-3.7397,-3.656,-3.5734,-3.4899,-3.4825,-3.4202,-3.2834,-3.2598,-3.1876,0.0,-3.0367,0.0,0.0,0.0,0.0,0.0,0.0,0.0,0.0,-3.0109,-3.1196,-3.1778,-3.1235,-3.1355,-3.2639,-3.2786,-3.2858,-3.2965,-3.3668,-3.4394,-3.5009,-3.5809,-3.6388,-3.6701,-3.6748,-3.6609,-3.6224,-3.6216,-3.6088,-3.5844,-3.5722,-3.5477,-3.5019,-3.4397,-3.3956,-3.3694,-3.3677,-3.3863,-3.3829,-3.3778,-3.3778,-3.3812,-3.4286,-3.4404,-3.3947,-3.4303,-3.4472,-3.3998,-3.4414,-3.4754,-3.4721,-3.5557,-3.6163,-3.6238,-3.6458,-3.6574,-3.6426,-3.6385,-3.6426,-6.1888,-6.2287,-6.14,-6.0646,-6.0095,-6.1065,-6.0697,-5.9489,-5.9453,-5.9306,-5.9102,-5.8896,-5.8483,-5.7901,-5.7713,-5.7281,-5.6605,-5.561,-5.4803,-5.4146,-5.3962,-5.3069,-5.175,-5.2065,-5.1491,-5.0047,-4.9748,-4.9209,-4.842,-4.8382,-4.794,-4.715,-4.6287,-4.5498,-4.4727,0.0,0.0,0.0,-4.3479,-4.3185,-4.2561,-4.2378,-4.1607,-4.0175,-3.9221,0.0,-3.6597,-3.5697,-3.489,-3.4082,-3.4027,0.0,0.0,0.0,0.0,0.0,0.0,0.0,0.0,0.0,0.0,0.0,-3.3198,-3.2757,-3.1327,-3.1872,-3.2364,-3.2506,-3.295,-3.3326,-3.3628,-3.4198,-3.473,-3.5257,-3.5506,-3.5857,-3.6482,-3.6636,-3.6676,-3.6533,-3.6385,-3.6156,-3.5932,-3.58,-3.5711,-3.5667,-3.5622,-3.5616,-3.548,-3.5277,-3.5199,-3.5199,-3.5098,-3.5148,-3.5199,-3.5148,-3.5047,-3.5233,-3.5267,-3.5318,-3.5148,-3.5216,-3.5385,-3.5148,-3.5521,-3.5754,-3.5778,-3.6195,-3.6586,-3.6788,-3.689,-3.6891,-3.6731,-3.6713,-3.6753,-6.2364,0.0,-6.1368,-6.052,0.0,-6.0131,-5.9936,-5.929,-5.9417,-5.9417,-5.929,-5.929,-5.9084,-5.8671,-5.8276,-5.7882,-5.7431,-5.6174,-5.5404,-5.4991,-5.4455,-5.3749,-5.2839,-5.2977,-5.236,-5.1062,-5.048,-4.9756,-4.8948,-4.8508,-4.7902,-4.7113,-4.6305,-4.5498,-4.4709,-4.3901,-4.3479,-4.3479,-4.3479,-4.3296,-4.2892,-4.2506,-4.1717,-4.0524,-3.9331,0.0,0.0,0.0,0.0,0.0,0.0,0.0,0.0,-3.4651,0.0,-3.4376,-3.4358,-3.4358,-3.4366,-3.4714,-3.4877,-3.479,-3.5263,-3.5004,-3.3673,-3.3812,-3.4086,-3.4478,-3.4921,-3.526,-3.5634,-3.5917,-3.6251,-3.6491,-3.6426,-3.6484,-3.6759,-3.6673,-3.6468,-3.6276,-3.6131,-3.5958,-3.5711,-3.5639,-3.5639,-3.5639,-3.5639,-3.5639,-3.5639,-3.5639,-3.5639,-3.5639,-3.5639,-3.5622,-3.5639,-3.5622,-3.5453,-3.5216,-3.5368,-3.5436,-3.5115,-3.5368,-3.5639,-3.5622,-3.5871,-3.6113,-3.6121,-3.6504,-3.6904,-3.7033,-3.7195,-3.7241,-3.7126,-3.7087,-3.7031,-6.3009,-6.2201,-6.1147,-6.0283,-5.9515,-5.9365,-5.929,-5.9346,0.0,0.0,0.0,-5.929,-5.929,-5.9253,-5.8614,-5.8314,-5.822,-5.6605,-5.5836,-5.5763,-5.4647,-5.4091,-5.4091,-5.3678,-5.3074,-5.228,-5.1308,-5.038,-4.9572,-4.8728,-4.7994,-4.7315,-4.6507,-4.5645,-4.4727,-4.3901,-4.3479,-4.3479,-4.3479,-4.3351,-4.3075,-4.2561,-4.1919,-4.113,-3.968,-3.8524,-3.7716,-3.6927,-3.645,-3.6303,-3.6285,-3.6285,-3.6285,-3.6285,-3.6285,-3.6303,-3.6413,-3.6523,-3.6505,-3.6633,-3.6648,-3.645,-3.6648,-3.6448,-3.5661,-3.5595,-3.5864,-3.6524,-3.6613,-3.6827,-3.7358,-3.7317,-3.7259,-3.7069,-3.6869,-3.6684,-3.6643,-3.6419,-3.6216,-3.6036,-3.5932,-3.5844,-3.5667,-3.5622,-3.5639,-3.5639,-3.5639,-3.5639,-3.5639,-3.5639,-3.5639,-3.5639,-3.5639,-3.5639,-3.5639,-3.5639,-3.5368,-3.4945,-3.5267,-3.5368,-3.4979,-3.5199,-3.5571,-3.5694,-3.5941,-3.617,-3.63,-3.6784,-3.7173,-3.7164,-3.7416,-3.7577,-3.7466,-3.741,-3.7334,-6.3086,-6.2821,-6.1281,-6.0548,-6.036,-5.9628,-5.929,-5.929,-5.9327,-5.9346,-5.929,-5.929,-5.929,-5.929,-5.9178,-5.914,-5.9027,-5.7431,-5.6718,-5.6624,-5.4928,-5.4091,-5.4091,-5.3678,-5.3074,-5.2299,-5.1268,-5.038,-4.9572,-4.8728,-4.8251,-4.8049,-4.7352,-4.6195,-4.4764,-4.3901,-4.3479,-4.3479,-4.3479,-4.2818,-4.1497,-4.2011,-4.1919,-4.113,-4.023,-3.935,-3.856,-3.7753,-3.7,-3.634,-3.6285,-3.6285,-3.6303,-3.6321,-3.6285,-3.6321,-3.6945,-3.7342,-3.7312,-3.7973,-3.8279,-3.8072,-3.795,-3.7444,-3.6451,-3.6827,-3.7145,-3.7251,-3.7326,-3.7415,-3.7411,-3.7334,-3.722,-3.7048,-3.6869,-3.669,-3.6402,-3.6293,-3.6079,-3.5861,-3.5728,-3.5667,-3.5622,-3.5639,-3.5639,-3.5639,-3.5639,-3.5639,-3.5639,-3.5639,-3.5639,-3.5639,-3.5639,-3.5639,-3.5622,-3.5622,-3.547,-3.5487,-3.5504,-3.5476,-3.5216,-3.5368,-3.561,-3.595,-3.6197,-3.6545,-3.6851,-3.7246,-3.7485,-3.7487,-3.7559,-3.7577,-3.754,-3.7558,-3.7503,-6.312,-6.3026,-6.2275,-6.1412,-6.0529,-5.9666,-5.929,-5.929,-5.929,-5.929,-5.929,-5.929,-5.929,-5.929,-5.929,-5.929,-5.9253,-5.807,-5.7264,-5.6649,-5.536,-5.4392,-5.3774,-5.3579,-5.3034,-5.2121,-5.121,-5.038,-4.9572,-4.871,-4.8324,-4.8251,-4.7498,-4.6526,-4.5406,-4.4984,-4.436,-4.3516,-4.3057,-4.2708,-4.2396,-4.2341,-4.2121,-4.1754,-4.1368,-4.0836,-4.0047,-3.9221,-3.8634,-3.8267,-3.7826,-3.7606,-3.7606,-3.7588,-3.7606,-3.7624,-3.7936,-3.8108,-3.7997,-3.8232,-3.8303,-3.8156,-3.8119,-3.7873,-3.7308,-3.7524,-3.7721,-3.7774,-3.7577,-3.7521,-3.7631,-3.7392,-3.7147,-3.7069,-3.6811,-3.6527,-3.6276,-3.6019,-3.58,-3.5711,-3.5622,-3.5639,-3.5639,-3.5639,-3.5639,-3.5639,-3.5639,-3.5639,-3.5622,-3.5622,-3.5622,-3.5605,-3.5284,-3.5233,-3.5487,-3.525,-3.5047,-3.4996,-3.5351,-3.5233,-3.4726,-3.4692,-3.5111,-3.5471,-3.5803,-3.63,-3.6946,-3.7374,-3.754,-3.7577,-3.7577,-3.7577,-3.7577,-3.7577,-3.7577,-6.3214,-6.3364,-6.3177,-6.2125,-6.0586,-5.9872,-5.9497,-5.9309,-5.929,-5.929,-5.929,-5.929,-5.929,-5.929,-5.929,-5.929,-5.9159,-5.8221,-5.7323,-5.6557,-5.5436,-5.4388,-5.3576,-5.3459,-5.2931,-5.2018,-5.1187,-5.038,-4.9572,-4.8728,-4.8324,-4.8214,-4.7333,-4.6599,-4.6177,-4.581,-4.5002,-4.3791,-4.2983,-4.2782,-4.3185,-4.2782,-4.258,-4.2561,-4.2378,-4.2011,-4.1387,-4.0598,-4.0175,-4.0139,-3.9588,-3.9258,-3.9239,-3.9258,-3.9239,-3.9239,-3.9025,-3.8729,-3.8401,-3.8201,-3.8086,-3.8106,-3.8119,-3.8153,-3.8106,-3.8038,-3.802,-3.7984,-3.7613,-3.7484,-3.7613,-3.7317,-3.7031,-3.7031,-3.6673,-3.636,-3.6122,-3.5817,-3.5622,-3.5622,-3.5639,-3.5639,-3.5639,-3.5639,-3.5639,-3.5639,-3.5639,-3.5639,-3.5622,-3.5504,-3.5402,-3.5436,-3.4979,-3.4624,-3.5064,-3.4844,-3.4556,-3.4506,-3.4945,-3.481,-3.4134,-3.4159,-3.4576,-3.5046,-3.5422,-3.6068,-3.6953,-3.7234,-3.738,-3.747,-3.7398,-3.7345,-3.7541,-3.7577,-3.7577,-6.3477,-6.4021,-6.3383,-6.2125,-6.0717,-6.0529,-6.0022,-5.9384,-5.929,-5.929,-5.9253,-5.929,-5.929,-5.929,-5.929,-5.9253,-5.9103,-5.7492,-5.6669,-5.6332,-5.4533,-5.3613,-5.3459,-5.3314,-5.2784,-5.1977,-5.1187,-5.038,-4.9554,-4.8728,-4.8324,-4.8141,-4.6783,-4.6434,-4.6783,-4.5608,-4.4782,-4.458,-4.3791,-4.3057,-4.2488,-4.3057,-4.3387,-4.3369,-4.2671,-4.2268,-4.2176,-4.1423,-4.1001,-4.1001,-4.091,-4.0873,-4.0855,-4.084,-4.084,-4.0804,-3.9995,-3.9217,-3.8492,-3.8201,-3.8271,-3.8564,-3.8451,-3.8433,-3.8564,-3.8433,-3.8135,-3.7827,-3.7649,-3.754,-3.7429,-3.7087,-3.6851,-3.6816,-3.6509,-3.6174,-3.5905,-3.5817,-3.5728,-3.5622,-3.5639,-3.5639,-3.5639,-3.5639,-3.5639,-3.5639,-3.5639,-3.5639,-3.5588,-3.5182,-3.4979,-3.5318,-3.4962,-3.4286,-3.4015,-3.4167,-3.4252,-3.4387,-3.4506,-3.437,-3.4126,-3.3921,-3.418,-3.4978,-3.5574,-3.6103,-3.6841,-3.7077,-3.6809,-3.722,-3.7113,-3.6809,-3.7362,-3.7577,-3.7577,-6.2088,-6.282,-6.3026,-6.2726,-6.2013,-6.1055,-6.0398,-6.0041,-5.9534,-5.8972,-5.854,-5.9028,-5.929,-5.9271,-5.8672,-5.8428,-5.8315,-5.7021,-5.6065,-5.5463,-5.4559,-5.392,-5.335,-5.3248,-5.2784,-5.1977,-5.1187,-5.038,-4.9572,-4.8728,-4.8324,-4.8269,-4.7609,-4.7498,-4.7755,-4.715,-4.6617,-4.6122,-4.5333,-4.4525,-4.3736,-4.3094,-4.302,-4.3406,-4.3167,-4.3002,-4.2928,-4.2249,-4.1827,-4.1772,-4.1387,-4.1097,-4.1097,-4.1097,-4.1027,-4.0873,-3.9872,-3.917,-3.8961,-3.8407,-3.8386,-3.9024,-3.8771,-3.8578,-3.8515,-3.8465,-3.8219,-3.7774,-3.7522,-3.7356,-3.7226,-3.6873,-3.6626,-3.6609,-3.6367,-3.6088,-3.5861,-3.5711,-3.5684,-3.5622,-3.5639,-3.5639,-3.5639,-3.5639,-3.5639,-3.5639,-3.5622,-3.5622,-3.5588,-3.5334,-3.5115,-3.4895,-3.4336,-3.4015,-3.3897,-3.344,-3.3491,-3.3711,-3.3846,-3.3778,-3.3388,-3.3247,-3.3515,-3.4683,-3.5127,-3.572,-3.6631,-3.6702,-3.6542,-3.6863,-3.7273,-3.722,-3.7541,-3.7577,-3.7577,-6.1543,-6.2501,-6.3177,-6.3289,-6.297,-6.1543,-6.0623,-6.0078,-5.9272,-5.8315,-5.7508,-5.8146,-5.8484,-5.8447,-5.7958,-5.7677,-5.7282,-5.6323,-5.5455,-5.47,-5.4437,-5.3889,-5.3243,-5.3206,-5.2784,-5.2013,-5.1426,-5.06,-4.9609,-4.871,-4.8324,-4.8288,-4.8104,-4.8086,-4.8269,-4.8122,-4.77,-4.7075,-4.6507,-4.5736,-4.469,-4.3571,-4.313,-4.3461,-4.3479,-4.3479,-4.3479,-4.2928,-4.2635,-4.2598,-4.2066,-4.1772,-4.1754,-4.1754,-4.1544,-4.1048,-4.0257,-3.9698,-3.9623,-3.9148,-3.9018,-3.9376,-3.9186,-3.8865,-3.8551,-3.8415,-3.8219,-3.7774,-3.7431,-3.7188,-3.7052,-3.6673,-3.6461,-3.6402,-3.6174,-3.5958,-3.5756,-3.5667,-3.5639,-3.5639,-3.5639,-3.5639,-3.5639,-3.5639,-3.5639,-3.5639,-3.5622,-3.5487,-3.5368,-3.525,-3.5064,-3.4539,-3.3728,-3.3339,-3.3711,-3.3119,-3.2662,-3.2831,-3.3085,-3.3025,-3.2672,-3.2877,-3.3204,-3.4524,-3.471,-3.5066,-3.5758,-3.5989,-3.5989,-3.6238,-3.6809,-3.7487,-3.7577,-3.7577,-3.7577,-6.2707,-6.404,-6.4209,-6.3759,-6.3026,-6.2106,-6.0695,-5.9211,-5.8295,-5.732,-5.6434,-5.6511,-5.6474,-5.6511,-5.7245,-5.7245,-5.6304,-5.5247,-5.4718,-5.4511,-5.3737,-5.3261,-5.3206,-5.3206,-5.2803,-5.2142,-5.1922,-5.1059,-4.9609,-4.8728,-4.8324,-4.8288,-4.7645,-4.7609,-4.8104,-4.759,-4.7149,-4.7186,-4.6985,-4.6305,-4.4966,-4.4654,-4.4158,-4.3626,-4.3497,-4.3479,-4.3479,-4.3442,-4.3424,-4.3424,-4.3314,-4.3314,-4.3332,-4.3314,-4.2774,-4.176,-4.1542,-4.1198,-4.0564,-4.0504,-4.0419,-4.002,-3.9832,-3.9496,-3.881,-3.8501,-3.8219,-3.7845,-3.7431,-3.7091,-3.6834,-3.6485,-3.6233,-3.6259,-3.6019,-3.5756,-3.5622,-3.5622,-3.5639,-3.5639,-3.5639,-3.5639,-3.5639,-3.5639,-3.5639,-3.5639,-3.5639,-3.5436,-3.4928,-3.4692,-3.4658,-3.437,-3.3525,-3.2449,-3.2442,-3.2256,-3.228,-3.2347,-3.2496,-3.2621,-3.3213,-3.364,-3.3977,-3.4339,-3.4694,-3.4922,-3.5044,-3.5096,-3.5096,-3.5578,-3.6756,-3.738,-3.7309,-3.7523,-3.7577,-6.2013,-6.3514,-6.3533,-6.3627,-6.3702,-6.2388,-6.1033,-5.9753,-5.8349,-5.685,-5.5588,-5.5965,-5.5588,-5.434,-5.5362,-5.5625,-5.5192,-5.4188,-5.3755,-5.3718,-5.3377,-5.3206,-5.3206,-5.3206,-5.3096,-5.2747,-5.2215,-5.1169,-4.9627,-4.8728,-4.8324,-4.8288,-4.8031,-4.8031,-4.8122,-4.7479,-4.7352,-4.7719,-4.6911,-4.6269,-4.614,-4.5241,-4.4544,-4.4268,-4.3754,-4.3479,-4.3479,-4.3479,-4.3479,-4.3479,-4.3375,-4.3304,-4.3304,-4.3196,-4.2705,-4.1832,-4.1705,-4.156,-4.1307,-4.0959,-4.1019,-4.1335,-4.0432,-3.9745,-3.9264,-3.8645,-3.8052,-3.7703,-3.7299,-3.697,-3.6708,-3.6318,-3.6079,-3.6045,-3.5844,-3.5667,-3.5622,-3.5639,-3.5639,-3.5639,-3.5639,-3.5639,-3.5639,-3.5639,-3.5639,-3.5639,-3.5639,-3.547,-3.5318,-3.5199,-3.5165,-3.5047,-3.437,-3.3525,-3.3017,-3.2121,-3.1636,-3.1737,-3.1832,-3.2021,-3.2438,-3.278,-3.3053,-3.3917,-3.4443,-3.4741,-3.4829,-3.5293,-3.5132,-3.54,-3.6577,-3.7077,-3.6899,-3.7327,-3.7523,-6.1656,-6.2595,-6.2688,-6.2989,-6.3289,-6.2013,-6.0658,-5.9318,-5.7917,-5.6134,-5.4644,-5.4985,-5.4492,-5.3432,-5.3944,-5.4207,-5.4151,-5.3487,-5.3206,-5.3206,-5.3206,-5.3206,-5.3206,-5.3206,-5.3206,-5.3078,-5.238,-5.1279,-5.0031,-4.9114,-4.86,-4.8306,-4.8324,-4.8324,-4.8214,-4.7755,-4.7792,-4.7976,-4.6966,-4.6581,-4.6874,-4.5535,-4.4709,-4.4562,-4.3593,-4.3078,-4.313,-4.3281,-4.3263,-4.3063,-4.305,-4.3123,-4.316,-4.3013,-4.2684,-4.2232,-4.2196,-4.2196,-4.2178,-4.1847,-4.1891,-4.2197,-4.1266,-4.0376,-3.9677,-3.8808,-3.8151,-3.7666,-3.7241,-3.6908,-3.6684,-3.6335,-3.6062,-3.5975,-3.5756,-3.5622,-3.5639,-3.5639,-3.5639,-3.5639,-3.5639,-3.5639,-3.5639,-3.5639,-3.5639,-3.5639,-3.5639,-3.5509,-3.5334,-3.5504,-3.5368,-3.4979,-3.437,-3.3643,-3.2949,-3.1952,-3.155,-3.1598,-3.1675,-3.1706,-3.2105,-3.2301,-3.2634,-3.3458,-3.4001,-3.4316,-3.4775,-3.5328,-3.5525,-3.5543,-3.6203,-3.6863,-3.6988,-3.7273,-3.7452,-6.175,-6.1862,-6.1806,-6.1862,-6.1806,-6.1055,-5.9475,-5.7686,-5.6732,-5.5284,-5.3566,-5.3377,-5.3414,-5.3225,-5.3298,-5.328,-5.3298,-5.3243,-5.3206,-5.3206,-5.3206,-5.3206,-5.3206,-5.3206,-5.3206,-5.317,-5.238,-5.161,-5.0784,-4.9903,-4.9095,-4.8489,-4.8343,-4.8324,-4.8324,-4.8159,-4.8196,-4.8086,-4.7352,-4.7002,-4.6892,-4.5571,-4.4745,-4.4581,-4.3103,-4.2244,-4.2307,-4.2792,-4.2704,-4.223,-4.2541,-4.2958,-4.3105,-4.3013,-4.2976,-4.3087,-4.3142,-4.316,-4.3142,-4.3193,-4.2894,-4.2527,-4.2061,-4.1154,-3.9852,-3.9049,-3.8382,-3.7646,-3.7203,-3.6908,-3.6684,-3.6419,-3.6174,-3.6019,-3.5756,-3.5622,-3.5639,-3.5639,-3.5639,-3.5639,-3.5639,-3.5639,-3.5639,-3.5639,-3.5639,-3.5639,-3.5622,-3.5436,-3.503,-3.5318,-3.4945,-3.4117,-3.3889,-3.382,-3.2778,-3.1788,-3.1662,-3.1593,-3.1631,-3.178,-3.2546,-3.2913,-3.2911,-3.3557,-3.3926,-3.424,-3.4347,-3.4865,-3.5204,-3.54,-3.6096,-3.6488,-3.6649,-3.6845,-3.7345,-6.128,-6.1768,-6.1787,-6.1468,-6.0999,-6.0717,-5.91,-5.675,-5.6397,-5.5114,-5.345,-5.3206,-5.3206,-5.3206,-5.3206,-5.3206,-5.3206,-5.3206,-5.3206,-5.3206,-5.3206,-5.3206,-5.3206,-5.3206,-5.3206,-5.3078,-5.238,-5.1885,-5.1389,-5.0251,-4.9407,-4.9132,-4.8563,-4.8343,-4.8288,-4.781,-4.7719,-4.8104,-4.6966,-4.6783,-4.759,-4.581,-4.4984,-4.526,-4.3779,-4.2393,-4.1332,-4.1358,-4.1524,-4.176,-4.1829,-4.2208,-4.2811,-4.292,-4.3013,-4.3196,-4.3358,-4.3339,-4.3232,-4.3393,-4.3353,-4.2883,-4.2375,-4.1414,-4.0149,-3.9319,-3.8452,-3.7589,-3.7143,-3.6908,-3.6568,-3.6276,-3.6105,-3.6036,-3.5756,-3.5639,-3.5639,-3.5639,-3.5639,-3.5639,-3.5639,-3.5639,-3.5639,-3.5639,-3.5622,-3.5622,-3.5622,-3.5436,-3.5385,-3.5419,-3.5526,-3.4979,-3.4652,-3.3987,-3.3042,-3.2342,-3.2127,-3.1925,-3.1856,-3.2001,-3.279,-3.317,-3.3219,-3.3375,-3.3743,-3.4044,-3.4133,-3.4311,-3.4633,-3.4918,-3.5275,-3.5614,-3.5917,-3.6399,-3.6952,-6.0417,-6.0848,-6.0867,-6.0586,-6.0079,-5.9835,-5.8408,-5.6437,-5.597,-5.4818,-5.3414,-5.3206,-5.3206,-5.3206,-5.3206,-5.3206,-5.3206,-5.3206,-5.3206,-5.3206,-5.3206,-5.3206,-5.3206,-5.3206,-5.3206,-5.3133,-5.2711,-5.2123,-5.1518,-5.0545,-4.9719,-4.9095,-4.8563,-4.8324,-4.8288,-4.7847,-4.7847,-4.8049,-4.7058,-4.6838,-4.7241,-4.581,-4.4912,-4.5022,-4.3579,-4.2159,-4.1053,-4.0601,-4.0563,-4.1123,-4.1515,-4.2204,-4.2864,-4.2975,-4.3123,-4.3286,-4.3428,-4.3463,-4.3339,-4.341,-4.3428,-4.3141,-4.265,-4.1669,-4.0398,-3.9475,-3.8564,-3.7298,-3.6965,-3.6766,-3.6419,-3.6233,-3.6062,-3.5949,-3.5711,-3.5639,-3.5639,-3.5639,-3.5639,-3.5639,-3.5639,-3.5639,-3.5639,-3.5756,-3.5694,-3.565,-3.5694,-3.5694,-3.5667,-3.5605,-3.5537,-3.5243,-3.4568,-3.3926,-3.3414,-3.2959,-3.2649,-3.2388,-3.2161,-3.237,-3.2849,-3.2933,-3.2965,-3.3033,-3.333,-3.374,-3.3901,-3.383,-3.4008,-3.4258,-3.465,-3.515,-3.5667,-3.6167,-3.6649,-5.9309,-5.929,-5.9328,-5.929,-5.9065,-5.8465,-5.7398,-5.6083,-5.5373,-5.4374,-5.3401,-5.3206,-5.3206,-5.3206,-5.3206,-5.3206,-5.3206,-5.3206,-5.3206,-5.3206,-5.3206,-5.3206,-5.3206,-5.3206,-5.3206,-5.3188,-5.3151,-5.2435,-5.1371,-5.0875,-5.0013,-4.8857,-4.8545,-4.8324,-4.8288,-4.8288,-4.8251,-4.8177,-4.7388,-4.6966,-4.7058,-4.5407,-4.4565,-4.4418,-4.2868,-4.1722,-4.1139,-4.0446,-4.0083,-4.0412,-4.1782,-4.258,-4.29,-4.3087,-4.3268,-4.3444,-4.3479,-4.3479,-4.3479,-4.3444,-4.3393,-4.3142,-4.2848,-4.2044,-4.0241,-3.9576,-3.8677,-3.7038,-3.6783,-3.6602,-3.6293,-3.6191,-3.6045,-3.5861,-3.5667,-3.5639,-3.5639,-3.5639,-3.5639,-3.5639,-3.5639,-3.5622,-3.5667,-3.5915,-3.5871,-3.5871,-3.5898,-3.581,-3.5766,-3.5654,-3.5311,-3.5044,-3.4778,-3.4335,-3.3921,-3.3436,-3.309,-3.2648,-3.2472,-3.2606,-3.282,-3.282,-3.282,-3.292,-3.3112,-3.3487,-3.3616,-3.3612,-3.3755,-3.4079,-3.4526,-3.4989,-3.5311,-3.565,-3.5989,-5.929,-5.929,-5.929,-5.8614,-5.7676,-5.7735,-5.665,-5.4839,-5.4812,-5.4223,-5.3506,-5.323,-5.3206,-5.3206,-5.3206,-5.3206,-5.3206,-5.3206,-5.3206,-5.3206,-5.3206,-5.3206,-5.3206,-5.3206,-5.3206,-5.3206,-5.3151,-5.2986,-5.2491,-5.1279,-5.049,-5.0123,-4.8802,-4.8324,-4.8324,-4.8324,-4.8324,-4.8104,-4.6893,-4.6581,-4.6654,-4.4821,-4.3889,-4.4254,-4.3043,-4.1787,-4.0739,-4.0173,-4.0217,-4.0885,-4.1956,-4.2652,-4.29,-4.3123,-4.3322,-4.3444,-4.3479,-4.3479,-4.3463,-4.3393,-4.3214,-4.3013,-4.277,-4.1851,-4.0096,-3.9797,-3.8797,-3.7413,-3.6811,-3.6568,-3.6148,-3.5975,-3.5844,-3.5711,-3.5622,-3.5639,-3.5639,-3.5639,-3.5639,-3.5639,-3.5639,-3.5711,-3.5871,-3.5854,-3.5941,-3.6156,-3.6028,-3.5854,-3.5898,-3.5881,-3.5693,-3.5778,-3.5578,-3.5018,-3.4493,-3.4005,-3.3504,-3.2983,-3.277,-3.277,-3.2884,-3.2884,-3.2884,-3.2916,-3.3251,-3.3591,-3.3555,-3.3516,-3.3752,-3.3937,-3.3883,-3.4097,-3.4329,-3.4633,-3.5025,-5.929,-5.9271,-5.8952,-5.8464,-5.7771,-5.7099,-5.6071,-5.5062,-5.4362,-5.392,-5.341,-5.323,-5.3206,-5.3206,-5.3206,-5.3206,-5.3206,-5.3206,-5.3206,-5.3206,-5.3206,-5.3206,-5.3206,-5.3206,-5.3206,-5.3151,-5.2858,-5.2472,-5.1977,-5.0894,-5.0178,-4.9572,-4.8783,-4.8343,-4.8324,-4.8324,-4.8324,-4.8104,-4.7058,-4.6562,-4.6434,-4.4748,-4.3798,-4.3722,-4.2928,-4.198,-4.0841,-4.0814,-4.1203,-4.1769,-4.2379,-4.2824,-4.3013,-4.3178,-4.3358,-4.3393,-4.3463,-4.3444,-4.3286,-4.3268,-4.316,-4.2772,-4.2474,-4.1558,-4.0308,-3.962,-3.8435,-3.7352,-3.6835,-3.6395,-3.6019,-3.5817,-3.5667,-3.5622,-3.5639,-3.5639,-3.5639,-3.5639,-3.5639,-3.5639,-3.5622,-3.5739,-3.6054,-3.6028,-3.6199,-3.6409,-3.6284,-3.6139,-3.6054,-3.6097,-3.6165,-3.616,-3.6046,-3.5492,-3.4868,-3.4322,-3.3624,-3.3084,-3.2866,-3.2916,-3.2916,-3.2916,-3.2916,-3.2987,-3.3373,-3.3566,-3.3409,-3.3359,-3.3559,-3.3612,-3.3312,-3.3437,-3.3847,-3.4097,-3.4418,-5.929,-5.9234,-5.8445,-5.852,-5.8596,-5.6444,-5.5697,-5.5767,-5.4303,-5.3474,-5.3332,-5.3267,-5.3206,-5.3206,-5.3206,-5.3206,-5.3206,-5.3206,-5.3206,-5.3206,-5.3206,-5.3206,-5.3206,-5.3206,-5.3206,-5.3133,-5.2435,-5.1977,-5.1518,-5.0527,-4.9517,-4.915,-4.8728,-4.8379,-4.8343,-4.8324,-4.8324,-4.8141,-4.7184,-4.6415,-4.5883,-4.4746,-4.3812,-4.3007,-4.2544,-4.206,-4.1546,-4.1663,-4.2136,-4.2573,-4.2786,-4.2975,-4.316,-4.3339,-4.3375,-4.3232,-4.3304,-4.3214,-4.2995,-4.3142,-4.3105,-4.2619,-4.2078,-4.1363,-4.0495,-3.95,-3.8461,-3.7664,-3.6758,-3.6285,-3.5844,-3.5667,-3.5622,-3.5639,-3.5639,-3.5639,-3.5622,-3.5622,-3.5667,-3.565,-3.5667,-3.5871,-3.6156,-3.6409,-3.6615,-3.6856,-3.6655,-3.6451,-3.6392,-3.6474,-3.6433,-3.6399,-3.6199,-3.5874,-3.5261,-3.4622,-3.3835,-3.3152,-3.2955,-3.2916,-3.2916,-3.2916,-3.2916,-3.3073,-3.3476,-3.3409,-3.3094,-3.3184,-3.3523,-3.338,-3.3169,-3.3508,-3.3937,-3.4044,-3.4294,-5.929,-5.9253,-5.8445,-5.8201,-5.8015,-5.6219,-5.549,-5.562,-5.4162,-5.3539,-5.3579,-5.3314,-5.3206,-5.3206,-5.3206,-5.3206,-5.3206,-5.3206,-5.3206,-5.3206,-5.3206,-5.3206,-5.3206,-5.3206,-5.3206,-5.3133,-5.3059,-5.2803,-5.2417,-5.1573,-5.1041,-5.0233,-4.9407,-4.8967,-4.8434,-4.8343,-4.8324,-4.8029,-4.6797,-4.5953,-4.5512,-4.4479,-4.3523,-4.2667,-4.1952,-4.1779,-4.1899,-4.1591,-4.1801,-4.2429,-4.2786,-4.29,-4.3032,-4.316,-4.3232,-4.316,-4.3087,-4.3013,-4.29,-4.2711,-4.2537,-4.2498,-4.2065,-4.1547,-4.0819,-4.0299,-3.9406,-3.8547,-3.7541,-3.6642,-3.5881,-3.5656,-3.5622,-3.5622,-3.5639,-3.5622,-3.5667,-3.5827,-3.5941,-3.6028,-3.6199,-3.6492,-3.6759,-3.6615,-3.6873,-3.7185,-3.7069,-3.6794,-3.6736,-3.6776,-3.6736,-3.6696,-3.6784,-3.645,-3.5439,-3.4673,-3.3761,-3.3169,-3.3005,-3.2916,-3.2916,-3.2916,-3.2916,-3.3162,-3.3548,-3.3373,-3.3148,-3.3555,-3.4035,-3.3555,-3.3148,-3.3384,-3.3669,-3.3865,-3.4115,-5.8746,-5.8614,-5.7431,-5.7169,-5.7208,-5.5583,-5.5023,-5.5117,-5.407,-5.3579,-5.3579,-5.3314,-5.3206,-5.3206,-5.3206,-5.3206,-5.3206,-5.3206,-5.3206,-5.3206,-5.3206,-5.3206,-5.3206,-5.3206,-5.3206,-5.3151,-5.2766,-5.2674,-5.2417,-5.1903,-5.1096,-5.0784,-5.0013,-4.9407,-4.8857,-4.8508,-4.8324,-4.7974,-4.6558,-4.5585,-4.5381,-4.4053,-4.305,-4.2544,-4.194,-4.177,-4.1627,-4.177,-4.1761,-4.2006,-4.2415,-4.2862,-4.3013,-4.305,-4.305,-4.305,-4.2975,-4.2691,-4.2476,-4.2476,-4.2436,-4.2127,-4.1825,-4.1481,-4.0863,-4.0393,-3.9713,-3.9002,-3.8151,-3.7172,-3.6293,-3.5875,-3.5807,-3.5622,-3.5639,-3.5667,-3.5827,-3.6028,-3.6097,-3.6182,-3.635,-3.6678,-3.6856,-3.6895,-3.7069,-3.7392,-3.7223,-3.6952,-3.6952,-3.6974,-3.7031,-3.7069,-3.7337,-3.697,-3.5757,-3.4722,-3.3616,-3.3166,-3.2952,-3.2916,-3.2916,-3.2916,-3.2916,-3.3144,-3.3373,-3.3609,-3.3541,-3.4035,-3.4282,-3.4038,-3.3687,-3.3455,-3.3455,-3.383,-3.4044,-5.8295,-5.8164,-5.6624,-5.6474,-5.6851,-5.5227,-5.5004,-5.5529,-5.4144,-5.369,-5.3629,-5.3424,-5.3206,-5.3206,-5.3206,-5.3206,-5.3206,-5.3206,-5.3206,-5.3206,-5.3206,-5.3206,-5.3206,-5.3206,-5.3206,-5.3115,-5.2692,-5.238,-5.216,-5.1536,-5.1334,-5.0802,-5.0178,-4.9572,-4.9242,-4.8728,-4.8324,-4.8066,-4.672,-4.5654,-4.5469,-4.4083,-4.3345,-4.2882,-4.2364,-4.1966,-4.1734,-4.1899,-4.2024,-4.1377,-4.2131,-4.2693,-4.2956,-4.2975,-4.2844,-4.2844,-4.2768,-4.2534,-4.2192,-4.2274,-4.2274,-4.1613,-4.131,-4.1233,-4.0893,-4.0147,-3.961,-3.9233,-3.8615,-3.7619,-3.6886,-3.6287,-3.5851,-3.5667,-3.5639,-3.5739,-3.5968,-3.6114,-3.6199,-3.635,-3.6678,-3.7052,-3.7129,-3.7206,-3.7374,-3.7466,-3.7299,-3.7185,-3.7147,-3.7185,-3.7223,-3.7261,-3.7503,-3.7238,-3.6114,-3.5132,-3.3972,-3.3362,-3.3094,-3.2916,-3.2916,-3.2916,-3.2916,-3.2916,-3.3094,-3.3434,-3.3669,-3.3862,-3.4059,-3.4222,-3.4062,-3.3633,-3.3651,-3.3865,-3.4187,-5.9102,-5.9027,-5.8089,-5.8164,-5.8427,-5.6345,-5.6047,-5.7041,-5.4708,-5.4164,-5.4475,-5.3649,-5.3206,-5.3206,-5.3206,-5.3206,-5.3206,-5.3206,-5.3206,-5.3206,-5.3206,-5.3206,-5.3206,-5.3206,-5.3206,-5.3188,-5.2986,-5.2913,-5.2913,-5.2821,-5.1867,-5.1022,-5.0545,-4.9939,-4.8948,-4.8361,-4.8306,-4.8119,-4.6931,-4.6063,-4.545,-4.5054,-4.4586,-4.3929,-4.3001,-4.2358,-4.2221,-4.236,-4.2418,-4.2167,-4.2418,-4.2591,-4.267,-4.2631,-4.2631,-4.2631,-4.2512,-4.2251,-4.1959,-4.1849,-4.1805,-4.1429,-4.0937,-4.0718,-4.0683,-4.0251,-3.9812,-3.9559,-3.8853,-3.7814,-3.6886,-3.6376,-3.5956,-3.5711,-3.5711,-3.5783,-3.6045,-3.6301,-3.6591,-3.6816,-3.7147,-3.7392,-3.7374,-3.7411,-3.7503,-3.754,-3.7466,-3.7374,-3.7429,-3.7429,-3.7466,-3.7503,-3.7577,-3.7113,-3.6435,-3.5543,-3.4579,-3.3812,-3.3366,-3.2934,-3.2916,-3.2916,-3.2916,-3.313,-3.3241,-3.3526,-3.3705,-3.3955,-3.4347,-3.4847,-3.4347,-3.3758,-3.4204,-3.4668,-3.5186,-5.8689,-5.8539,-5.7338,-5.7018,-5.7075,-5.5723,-5.5334,-5.5733,-5.4485,-5.3921,-5.3931,-5.3521,-5.3206,-5.3206,-5.3206,-5.3206,-5.3206,-5.3206,-5.3206,-5.3206,-5.3206,-5.3206,-5.3206,-5.3206,-5.3206,-5.3206,-5.3206,-5.3188,-5.3151,-5.2692,-5.2123,-5.1463,-5.0674,-4.9719,-4.904,-4.8545,-4.8284,-4.7929,-4.7106,-4.6282,-4.5707,-4.5513,-4.491,-4.4428,-4.3625,-4.2983,-4.284,-4.2512,-4.2427,-4.231,-4.2269,-4.221,-4.2269,-4.2251,-4.2333,-4.2472,-4.2269,-4.2019,-4.1805,-4.1648,-4.1498,-4.1237,-4.0854,-4.0735,-4.0758,-4.0431,-3.9966,-3.9518,-3.9127,-3.8042,-3.7109,-3.662,-3.6327,-3.6148,-3.6062,-3.6174,-3.6444,-3.6667,-3.693,-3.7223,-3.7317,-3.7429,-3.754,-3.7577,-3.7577,-3.7577,-3.7577,-3.7577,-3.7577,-3.7577,-3.7577,-3.7505,-3.747,-3.7095,-3.647,-3.5614,-3.4989,-3.4329,-3.3633,-3.3169,-3.313,-3.3237,-3.3401,-3.3616,-3.374,-3.4026,-3.4579,-3.5114,-3.5311,-3.5364,-3.4918,-3.4668,-3.5061,-3.5507,-3.5935,-5.8258,-5.7995,-5.6849,-5.6213,-5.5915,-5.5165,-5.4778,-5.4466,-5.3999,-5.3788,-5.3721,-5.3364,-5.3206,-5.3206,-5.3206,-5.3206,-5.3206,-5.3206,-5.3206,-5.3206,-5.3206,-5.3206,-5.3206,-5.3206,-5.3206,-5.3188,-5.2894,-5.2986,-5.2766,-5.2362,-5.1903,-5.1077,-5.0013,-4.9426,-4.9114,-4.8545,-4.8245,-4.7791,-4.7225,-4.6675,-4.6162,-4.5247,-4.4732,-4.4785,-4.4125,-4.3732,-4.3661,-4.3102,-4.2905,-4.2715,-4.2412,-4.2072,-4.2197,-4.2048,-4.2127,-4.2409,-4.2187,-4.1892,-4.1692,-4.156,-4.1363,-4.0995,-4.0961,-4.0706,-4.0397,-3.9966,-3.9634,-3.9146,-3.8528,-3.8112,-3.7308,-3.6943,-3.6702,-3.6527,-3.6461,-3.6568,-3.6771,-3.693,-3.7048,-3.7241,-3.7354,-3.7466,-3.7577,-3.7577,-3.7577,-3.7577,-3.7577,-3.7577,-3.7577,-3.7577,-3.7559,-3.7434,-3.7309,-3.7023,-3.6399,-3.5525,-3.5043,-3.4668,-3.3972,-3.3384,-3.3491,-3.3669,-3.3901,-3.4187,-3.4722,-3.5079,-3.5685,-3.5971,-3.5881,-3.5738,-3.5489,-3.5632,-3.6096,-3.6167,-3.631,-5.8746,-5.8145,-5.8633,-5.8334,-5.7398,-5.6556,-5.6164,-5.5691,-5.4177,-5.3964,-5.4252,-5.3645,-5.3206,-5.3206,-5.3206,-5.3206,-5.3206,-5.3206,-5.3206,-5.3206,-5.3206,-5.3206,-5.3206,-5.3206,-5.3115,-5.2986,-5.2472,-5.2179,-5.1977,-5.183,-5.1169,-5.016,-4.9738,-4.9242,-4.8636,-4.8416,-4.819,-4.7955,-4.7697,-4.7288,-4.6704,-4.5445,-4.5231,-4.5302,-4.4963,-4.4482,-4.4392,-4.3913,-4.3721,-4.3893,-4.2894,-4.2656,-4.303,-4.2567,-4.2299,-4.231,-4.2246,-4.2061,-4.1648,-4.1534,-4.1303,-4.0816,-4.0302,-3.974,-3.9542,-3.9024,-3.8772,-3.9276,-3.8356,-3.7611,-3.7292,-3.6991,-3.6737,-3.665,-3.6609,-3.6731,-3.6908,-3.7027,-3.7143,-3.7241,-3.7392,-3.7466,-3.7594,-3.7577,-3.7577,-3.7577,-3.7577,-3.7577,-3.7577,-3.7577,-3.7577,-3.7487,-3.7452,-3.7202,-3.6827,-3.5864,-3.5382,-3.5079,-3.4454,-3.3812,-3.4008,-3.4276,-3.449,-3.4847,-3.5453,-3.5917,-3.6309,-3.6416,-3.6291,-3.6183,-3.6059,-3.6559,-3.7184,-3.7077,-3.6774,-5.8427,-5.8145,-5.8483,-5.8053,-5.7061,-5.6201,-5.5435,-5.4661,-5.3872,-5.3603,-5.3778,-5.3432,-5.3206,-5.3206,-5.3206,-5.3206,-5.3206,-5.3206,-5.3206,-5.3188,-5.3188,-5.3188,-5.3206,-5.317,-5.3059,-5.2472,-5.2068,-5.1334,-5.1022,-5.0618,-5.0123,-4.9664,-4.9095,-4.871,-4.8324,-4.8324,-4.819,-4.7951,-4.7663,-4.732,-4.6892,-4.6373,-4.6105,-4.6409,-4.5677,-4.5338,-4.515,-4.4767,-4.4229,-4.4192,-4.359,-4.3363,-4.3102,-4.2893,-4.2992,-4.2436,-4.2512,-4.2136,-4.1368,-4.1566,-4.135,-4.0858,-4.0151,-3.9755,-3.9268,-3.8628,-3.8201,-3.8576,-3.8077,-3.755,-3.72,-3.7026,-3.6943,-3.6873,-3.6771,-3.6891,-3.7009,-3.7066,-3.72,-3.7297,-3.741,-3.7466,-3.754,-3.7558,-3.7577,-3.7577,-3.7577,-3.7577,-3.7577,-3.7577,-3.7577,-3.7577,-3.7559,-3.7505,-3.7148,-3.6542,-3.6096,-3.5721,-3.5204,-3.4722,-3.474,-3.4918,-3.5221,-3.5721,-3.6399,-3.6774,-3.6899,-3.6756,-3.6541,-3.6577,-3.6684,-3.7059,-3.7398,-3.747,-3.7238,-5.7564,-5.7753,-5.794,-5.7286,-5.6125,-5.5397,-5.4535,-5.3533,-5.3455,-5.3355,-5.3248,-5.3206,-5.3206,-5.3206,-5.3206,-5.3206,-5.3206,-5.3206,-5.3206,-5.3188,-5.3004,-5.2858,-5.2711,-5.2656,-5.2215,-5.1683,-5.1261,-5.0674,-4.9958,-4.9426,-4.9315,-4.9242,-4.8691,-4.8379,-4.8324,-4.8286,-4.819,-4.7888,-4.7536,-4.7232,-4.6972,-4.673,-4.673,-4.6641,-4.6347,-4.5998,-4.6078,-4.5616,-4.4881,-4.5066,-4.4319,-4.3817,-4.3499,-4.3292,-4.3116,-4.2724,-4.2747,-4.2366,-4.1725,-4.1576,-4.1523,-4.1054,-4.021,-3.9541,-3.9251,-3.8671,-3.8119,-3.8116,-3.7707,-3.7306,-3.7048,-3.6992,-3.7031,-3.7069,-3.7069,-3.7108,-3.7147,-3.7164,-3.722,-3.7334,-3.7392,-3.7429,-3.7466,-3.7503,-3.754,-3.7577,-3.7577,-3.7577,-3.7577,-3.7577,-3.7577,-3.7577,-3.7577,-3.7577,-3.7362,-3.7006,-3.6667,-3.6363,-3.5828,-3.5418,-3.5293,-3.5685,-3.6149,-3.672,-3.7113,-3.7041,-3.6827,-3.6845,-3.6827,-3.7006,-3.7131,-3.7184,-3.7362,-3.7505,-3.7577,-5.6142,-5.6762,-5.7472,-5.6625,-5.4892,-5.4759,-5.4156,-5.3248,-5.3248,-5.3206,-5.3206,-5.3206,-5.3206,-5.3206,-5.3206,-5.3206,-5.3206,-5.3206,-5.3133,-5.2894,-5.2527,-5.2215,-5.1958,-5.1555,-5.1059,-5.0784,-5.0417,-4.9939,-4.9389,-4.882,-4.8563,-4.8361,-4.8379,-4.8343,-4.8286,-4.8286,-4.8072,-4.7765,-4.7468,-4.7187,-4.6856,-4.6498,-4.632,-4.6757,-4.6578,-4.6449,-4.706,-4.6518,-4.626,-4.6633,-4.5371,-4.4484,-4.4484,-4.3873,-4.3403,-4.317,-4.2992,-4.2592,-4.2039,-4.1944,-4.1908,-4.1361,-4.033,-3.9208,-3.9026,-3.7455,-3.7051,-3.7689,-3.7398,-3.705,-3.6983,-3.7048,-3.7069,-3.7087,-3.7087,-3.7108,-3.7147,-3.7147,-3.7185,-3.7317,-3.7392,-3.7392,-3.7392,-3.7466,-3.754,-3.7577,-3.7577,-3.7577,-3.7577,-3.7577,-3.7577,-3.7577,-3.7577,-3.7559,-3.7487,-3.7202,-3.6881,-3.6756,-3.647,-3.5971,-3.5596,-3.6167,-3.6881,-3.6756,-3.6916,-3.6863,-3.6916,-3.7077,-3.722,-3.7434,-3.7541,-3.7452,-3.7434,-3.7541,-3.7577,-5.5656,-5.5482,-5.5993,-5.5654,-5.4681,-5.4681,-5.4115,-5.328,-5.3206,-5.3206,-5.3206,-5.3206,-5.3206,-5.3206,-5.3206,-5.3206,-5.3206,-5.3206,-5.2913,-5.2509,-5.2123,-5.172,-5.1334,-5.0894,-5.0582,-5.0086,-4.9627,-4.9205,-4.8746,-4.8453,-4.8379,-4.8324,-4.8324,-4.8324,-4.8286,-4.819,-4.7951,-4.7723,-4.7468,-4.7187,-4.6864,-4.6302,-4.6195,-4.69,-4.6488,-4.6636,-4.7165,-4.7331,-4.7215,-4.6907,-4.644,-4.6066,-4.5485,-4.4724,-4.4233,-4.3759,-4.3506,-4.2904,-4.2649,-4.2495,-4.2139,-4.0539,-3.9446,-3.866,-3.8528,-3.728,-3.7189,-3.7393,-3.726,-3.6926,-3.697,-3.7009,-3.7048,-3.7048,-3.7048,-3.7126,-3.7108,-3.7108,-3.7147,-3.7223,-3.7279,-3.7334,-3.7372,-3.741,-3.7466,-3.7577,-3.7577,-3.7577,-3.7577,-3.7577,-3.7577,-3.7577,-3.7577,-3.7577,-3.7523,-3.7309,-3.7095,-3.7059,-3.7041,-3.6684,-3.6328,-3.6774,-3.7273,-3.7041,-3.6916,-3.7131,-3.7309,-3.747,-3.7541,-3.7577,-3.7577,-3.7559,-3.7577,-3.7577,-3.7577,-5.5044,-5.4685,-5.47,-5.451,-5.4267,-5.4267,-5.3889,-5.328,-5.3206,-5.3206,-5.3206,-5.3206,-5.3206,-5.3206,-5.3206,-5.3206,-5.3115,-5.2913,-5.2509,-5.1995,-5.1463,-5.1004,-5.0527,-5.0068,-4.9572,-4.926,-4.915,-4.8802,-4.8434,-4.8343,-4.8324,-4.8324,-4.8324,-4.8324,-4.8286,-4.8111,-4.787,-4.7681,-4.7407,-4.7187,-4.6918,-4.6355,-4.6328,-4.691,-4.6668,-4.6873,-4.7386,-4.772,-4.766,-4.7481,-4.7229,-4.7033,-4.6338,-4.5662,-4.5241,-4.4619,-4.3852,-4.3194,-4.3267,-4.2629,-4.1751,-4.006,-3.9071,-3.8327,-3.779,-3.7283,-3.7184,-3.737,-3.7154,-3.697,-3.697,-3.7009,-3.7009,-3.7009,-3.7009,-3.7048,-3.7069,-3.7108,-3.7108,-3.7147,-3.7203,-3.7241,-3.7279,-3.7317,-3.7466,-3.754,-3.7577,-3.7577,-3.7577,-3.7577,-3.7577,-3.7577,-3.7577,-3.7577,-3.7559,-3.7416,-3.7309,-3.7345,-3.7345,-3.7416,-3.7327,-3.7577,-3.7577,-3.738,-3.7345,-3.7541,-3.7577,-3.7559,-3.7559,-3.7577,-3.7577,-3.7577,-3.7577,-3.7577,-3.7577,-5.4218,-5.4552,-5.3909,-5.3492,-5.3359,-5.3243,-5.3243,-5.3206,-5.3206,-5.3206,-5.3206,-5.3206,-5.3206,-5.3188,-5.3115,-5.3004,-5.2839,-5.2344,-5.1848,-5.1426,-5.0563,-4.9848,-4.9407,-4.904,-4.8802,-4.8453,-4.8471,-4.8508,-4.8324,-4.8324,-4.8324,-4.8324,-4.8324,-4.8324,-4.8267,-4.8111,-4.7888,-4.7699,-4.7407,-4.7187,-4.691,-4.6426,-4.6585,-4.6942,-4.6884,-4.7052,-4.7711,-4.7992,-4.7983,-4.7988,-4.7432,-4.7236,-4.7056,-4.5624,-4.524,-4.5475,-4.3995,-4.35,-4.3806,-4.235,-4.096,-3.9656,-3.8819,-3.8091,-3.7837,-3.7416,-3.7005,-3.7189,-3.704,-3.697,-3.697,-3.697,-3.697,-3.697,-3.697,-3.7009,-3.7031,-3.7087,-3.7087,-3.7087,-3.7108,-3.7108,-3.7185,-3.7279,-3.7429,-3.754,-3.7577,-3.7577,-3.7577,-3.7577,-3.7577,-3.7577,-3.7577,-3.7577,-3.7577,-3.7577,-3.7541,-3.7577,-3.7577,-3.7577,-3.7577,-3.7577,-3.7577,-3.7577,-3.7577,-3.7577,-3.7577,-3.7577,-3.7577,-3.7577,-3.7577,-3.7577,-3.7577,-3.7577,-3.7577,-5.3847,-5.37,-5.3632,-5.344,-5.3206,-5.3206,-5.3206,-5.3206,-5.3206,-5.3206,-5.3206,-5.3206,-5.3206,-5.3078,-5.2619,-5.2399,-5.2252,-5.1573,-5.1077,-5.0362,-4.9738,-4.926,-4.882,-4.8563,-4.8324,-4.8324,-4.8324,-4.8324,-4.8324,-4.8324,-4.8324,-4.8324,-4.8286,-4.8324,-4.8208,-4.801,-4.7741,-4.7615,-4.7338,-4.7053,-4.6954,-4.656,-4.6564,-4.7273,-4.7007,-4.7284,-4.7959,-4.8111,-4.8229,-4.8267,-4.7712,-4.7693,-4.7606,-4.6355,-4.5981,-4.613,-4.5049,-4.4041,-4.3268,-4.1827,-4.0867,-3.9669,-3.8492,-3.7703,-3.7281,-3.718,-3.7005,-3.697,-3.697,-3.697,-3.697,-3.697,-3.697,-3.697,-3.697,-3.7009,-3.7009,-3.7009,-3.7027,-3.7009,-3.7048,-3.7087,-3.7126,-3.7185,-3.7354,-3.7466,-3.7503,-3.7594,-3.7594,-3.7577,-3.7577,-3.7577,-3.7577,-3.7577,-3.7577,-3.7577,-3.7577,-3.7577,-3.7577,-3.7577,-3.7577,-3.7577,-3.7577,-3.7577,-3.7577,-3.7577,-3.7577,-3.7577,-3.7577,-3.7577,-3.7577,-3.7577,-3.7577,-3.7577,-3.7577,-5.3484,-5.3248,-5.3418,-5.3193,-5.2858,-5.3078,-5.3078,-5.2803,-5.2509,-5.238,-5.2344,-5.2344,-5.2325,-5.2179,-5.1885,-5.1573,-5.1481,-5.0747,-5.0288,-4.9536,-4.9205,-4.882,-4.8471,-4.8324,-4.8324,-4.8324,-4.8324,-4.8324,-4.8324,-4.8324,-4.8324,-4.8286,-4.8247,-4.8208,-4.809,-4.7907,-4.7657,-4.7468,-4.7205,-4.7025,-4.6963,-4.6891,-4.6981,-4.7307,-4.7429,-4.7618,-4.8004,-4.8229,-4.8306,-4.8249,-4.821,-4.819,-4.7895,-4.7156,-4.6561,-4.6379,-4.5539,-4.4093,-4.2451,-4.174,-4.0709,-3.9388,-3.8064,-3.7361,-3.7058,-3.6987,-3.6987,-3.697,-3.697,-3.697,-3.697,-3.697,-3.697,-3.697,-3.697,-3.7009,-3.7009,-3.7027,-3.7027,-3.697,-3.7009,-3.7048,-3.7087,-3.7164,-3.7223,-3.7354,-3.7466,-3.7521,-3.7594,-3.7594,-3.7577,-3.7577,-3.7577,-3.7594,-3.7577,-3.7577,-3.7577,-3.7577,-3.7577,-3.754,-3.754,-3.7503,-3.7503,-3.754,-3.7577,-3.7577,-3.7577,-3.7577,-3.7577,-3.7577,-3.7577,-3.7577,-3.7577,-3.7577,-3.7577,-5.3151,-5.3151,-5.317,-5.2692,-5.216,-5.2582,-5.2527,-5.1903,-5.1206,-5.0912,-5.0894,-5.1022,-5.1114,-5.0949,-5.082,-5.0765,-5.0582,-4.9903,-4.9572,-4.9279,-4.8783,-4.8453,-4.8361,-4.8324,-4.8324,-4.8324,-4.8324,-4.8324,-4.8324,-4.8324,-4.8324,-4.832,-4.8184,-4.816,-4.8034,-4.7795,-4.7547,-4.732,-4.716,-4.7025,-4.6999,-4.7371,-4.7446,-4.7692,-4.7882,-4.8043,-4.8231,-4.8139,-4.8141,-4.8102,-4.8007,-4.8041,-4.7542,-4.6439,-4.6342,-4.5976,-4.4989,-4.3457,-4.2217,-4.1779,-4.0488,-3.9235,-3.8395,-3.773,-3.7233,-3.697,-3.697,-3.697,-3.697,-3.697,-3.697,-3.697,-3.697,-3.697,-3.697,-3.697,-3.697,-3.697,-3.697,-3.697,-3.697,-3.7009,-3.7009,-3.7087,-3.7185,-3.7223,-3.7354,-3.7429,-3.7503,-3.7594,-3.7594,-3.7558,-3.7558,-3.7594,-3.7594,-3.7577,-3.7577,-3.7577,-3.7485,-3.7449,-3.7429,-3.7429,-3.7449,-3.7503,-3.754,-3.7594,-3.7594,-3.7577,-3.7577,-3.7577,-3.7577,-3.7577,-3.7577,-3.7577,-3.7577,-5.2032,-5.1573,-5.2087,-5.1885,-5.1151,-5.0784,-5.0784,-5.1059,-5.0875,-5.0802,-5.082,-5.0802,-5.0637,-5.0765,-5.0215,-4.9994,-4.9627,-4.9187,-4.8802,-4.8545,-4.8471,-4.8361,-4.8324,-4.8324,-4.8324,-4.8324,-4.8324,-4.8324,-4.8267,-4.8286,-4.8553,-4.8839,-4.8188,-4.8115,-4.8037,-4.772,-4.7453,-4.7276,-4.707,-4.7025,-4.7133,-4.7443,-4.7615,-4.7824,-4.809,-4.8286,-4.8269,-4.7755,-4.7609,-4.7461,-4.674,-4.6592,-4.7197,-4.6145,-4.5606,-4.5667,-4.4732,-4.3671,-4.2911,-4.1841,-4.0495,-3.9181,-3.8468,-3.7765,-3.7233,-3.697,-3.697,-3.697,-3.697,-3.697,-3.697,-3.697,-3.697,-3.697,-3.697,-3.697,-3.697,-3.697,-3.697,-3.697,-3.697,-3.697,-3.7009,-3.7048,-3.7126,-3.7185,-3.7223,-3.7317,-3.7392,-3.7521,-3.7558,-3.7503,-3.7521,-3.7521,-3.754,-3.7503,-3.7577,-3.7577,-3.7449,-3.7374,-3.7374,-3.7374,-3.7374,-3.7411,-3.7466,-3.754,-3.7594,-3.7594,-3.7503,-3.7594,-3.7594,-3.7577,-3.7577,-3.7577,-3.7577,-5.1261,-5.0894,-5.1316,-5.1059,-5.0251,-4.9444,-4.9389,-4.9774,-4.9829,-4.9811,-4.9811,-4.9774,-4.9811,-4.9682,-4.9279,-4.9077,-4.9022,-4.8691,-4.8398,-4.8398,-4.8324,-4.8324,-4.8324,-4.8324,-4.8324,-4.8324,-4.8267,-4.8267,-4.819,-4.8145,-4.8352,-4.8847,-4.8187,-4.8175,-4.8083,-4.7707,-4.7241,-4.716,-4.707,-4.7025,-4.7178,-4.7443,-4.7615,-4.7783,-4.8072,-4.8267,-4.8214,-4.7517,-4.7112,-4.6909,-4.6099,-4.5765,-4.6166,-4.5273,-4.4473,-4.4424,-4.3837,-4.3008,-4.2289,-4.1596,-4.0334,-3.9224,-3.8473,-3.7875,-3.7343,-3.697,-3.697,-3.697,-3.697,-3.697,-3.697,-3.697,-3.697,-3.697,-3.697,-3.697,-3.697,-3.697,-3.697,-3.697,-3.697,-3.697,-3.7009,-3.7048,-3.7087,-3.7108,-3.7147,-3.7241,-3.7317,-3.7392,-3.7429,-3.7429,-3.7429,-3.7447,-3.7429,-3.7429,-3.7466,-3.7503,-3.7392,-3.7354,-3.7337,-3.7337,-3.7299,-3.7337,-3.7374,-3.7429,-3.7521,-3.7466,-3.7466,-3.7521,-3.7558,-3.7503,-3.754,-3.7594,-3.7594,-5.0637,-5.0545,-5.06,-5.0141,-4.9426,-4.8673,-4.8398,-4.8324,-4.8471,-4.8361,-4.8416,-4.8379,-4.8508,-4.8673,-4.8526,-4.8489,-4.8508,-4.8361,-4.8324,-4.8324,-4.8324,-4.8324,-4.8324,-4.8324,-4.8324,-4.8306,-4.8229,-4.8169,-4.797,-4.7938,-4.8182,-4.8761,-4.8009,-4.8075,-4.8739,-4.7813,-4.741,-4.7374,-4.7168,-4.7043,-4.716,-4.7443,-4.7699,-4.7806,-4.805,-4.8306,-4.8086,-4.7589,-4.6984,-4.6596,-4.5971,-4.5233,-4.4729,-4.4444,-4.3782,-4.3237,-4.3,-4.2354,-4.1729,-4.1038,-3.9926,-3.8894,-3.8201,-3.7721,-3.722,-3.6987,-3.697,-3.697,-3.697,-3.697,-3.697,-3.697,-3.697,-3.697,-3.697,-3.697,-3.697,-3.697,-3.697,-3.697,-3.697,-3.697,-3.697,-3.7009,-3.7048,-3.7087,-3.7108,-3.7164,-3.7203,-3.7241,-3.7279,-3.7337,-3.7354,-3.7354,-3.7354,-3.7354,-3.7392,-3.7372,-3.7317,-3.7279,-3.7279,-3.7241,-3.7185,-3.7279,-3.7317,-3.7354,-3.7392,-3.7354,-3.7354,-3.7392,-3.7392,-3.7392,-3.7429,-3.7484,-3.7521,-4.9481,-4.8912,-4.8893,-4.8765,-4.8618,-4.8398,-4.8324,-4.8324,-4.8324,-4.8324,-4.8324,-4.8324,-4.8324,-4.8324,-4.8324,-4.8324,-4.8324,-4.8324,-4.8324,-4.8324,-4.8324,-4.8324,-4.8324,-4.8267,-4.8286,-4.8229,-4.8151,-4.797,-4.7765,-4.7862,-4.8258,-4.9226,-4.8551,-4.8595,-4.9674,-4.8568,-4.7872,-4.7729,-4.74,-4.7223,-4.7294,-4.7511,-4.7741,-4.7929,-4.8208,-4.8286,-4.7902,-4.6985,-4.6396,-4.5882,-4.462,-4.3926,-4.3576,-4.3803,-4.3604,-4.3043,-4.2747,-4.2103,-4.1256,-4.0531,-3.9456,-3.8483,-3.7787,-3.7361,-3.7097,-3.7044,-3.697,-3.697,-3.697,-3.697,-3.697,-3.697,-3.697,-3.697,-3.697,-3.697,-3.697,-3.697,-3.697,-3.697,-3.697,-3.697,-3.697,-3.697,-3.7027,-3.7027,-3.7009,-3.7009,-3.7048,-3.7087,-3.7126,-3.7203,-3.7279,-3.7279,-3.7241,-3.7279,-3.7317,-3.7279,-3.7241,-3.7203,-3.7164,-3.7164,-3.7164,-3.7241,-3.7297,-3.7279,-3.7241,-3.7241,-3.7241,-3.7279,-3.7317,-3.7317,-3.7279,-3.7334,-3.7372,-4.8746,-4.8324,-4.8324,-4.8324,-4.8324,-4.8324,-4.8324,-4.8324,-4.8324,-4.8324,-4.8324,-4.8324,-4.8324,-4.8306,-4.8324,-4.8306,-4.8306,-4.8324,-4.8324,-4.8324,-4.8286,-4.8324,-4.8267,-4.819,-4.8151,-4.8093,-4.7829,-4.7639,-4.7637,-4.7525,-4.7967,-4.9177,-4.888,-4.9012,-5.0102,-4.9281,-4.8425,-4.8157,-4.7732,-4.7572,-4.754,-4.7657,-4.7824,-4.801,-4.8151,-4.8286,-4.7774,-4.6856,-4.6085,-4.5315,-4.4144,-4.3415,-4.3211,-4.3258,-4.3183,-4.2948,-4.2598,-4.2189,-4.1145,-4.0197,-3.9257,-3.832,-3.7444,-3.7132,-3.7062,-3.697,-3.697,-3.697,-3.697,-3.697,-3.697,-3.697,-3.697,-3.697,-3.697,-3.697,-3.697,-3.697,-3.697,-3.697,-3.697,-3.697,-3.697,-3.697,-3.7027,-3.7027,-3.697,-3.697,-3.697,-3.697,-3.7009,-3.7087,-3.7164,-3.7203,-3.7147,-3.7203,-3.7297,-3.7203,-3.7164,-3.7126,-3.7087,-3.7143,-3.7143,-3.7182,-3.7203,-3.7164,-3.7126,-3.7108,-3.7108,-3.7185,-3.7203,-3.722,-3.722,-3.722,-3.7164,-4.8141,-4.8159,-4.8269,-4.8324,-4.8324,-4.8324,-4.8324,-4.8324,-4.8324,-4.8267,-4.8229,-4.8229,-4.8249,-4.8306,-4.8229,-4.8267,-4.821,-4.8072,-4.8151,-4.8169,-4.8151,-4.813,-4.809,-4.8032,-4.8061,-4.8006,-4.7825,-4.7795,-4.7868,-4.7859,-4.825,-4.8996,-4.9085,-4.8996,-4.9727,-4.9567,-4.8728,-4.834,-4.7984,-4.7947,-4.7868,-4.7759,-4.7888,-4.8032,-4.819,-4.8324,-4.7829,-4.7113,-4.614,-4.5076,-4.4051,-4.3303,-4.2994,-4.2989,-4.2894,-4.2765,-4.2688,-4.2042,-4.1159,-4.0392,-3.9323,-3.8332,-3.7536,-3.7185,-3.715,-3.7005,-3.7005,-3.697,-3.697,-3.697,-3.697,-3.697,-3.697,-3.697,-3.697,-3.697,-3.697,-3.697,-3.697,-3.697,-3.697,-3.697,-3.697,-3.697,-3.697,-3.697,-3.697,-3.697,-3.697,-3.697,-3.7009,-3.7048,-3.7126,-3.7126,-3.7108,-3.7126,-3.722,-3.7126,-3.7087,-3.7048,-3.7048,-3.7087,-3.7087,-3.7087,-3.7069,-3.7087,-3.7087,-3.7087,-3.7069,-3.7069,-3.7126,-3.7126,-3.7087,-3.7087,-3.7048,-4.7333,-4.7351,-4.8031,-4.8306,-4.8306,-4.8267,-4.8324,-4.8324,-4.8267,-4.8172,-4.7955,-4.7915,-4.8014,-4.8286,-4.8014,-4.7933,-4.7974,-4.787,-4.7747,-4.7765,-4.7888,-4.7866,-4.7879,-4.7988,-4.8073,-4.8063,-4.8147,-4.8488,-4.801,-4.8383,-4.8889,-4.9174,-4.921,-4.9156,-4.921,-4.8942,-4.8478,-4.8197,-4.7886,-4.7677,-4.7772,-4.7793,-4.8032,-4.819,-4.8286,-4.8324,-4.8031,-4.737,-4.6543,-4.5479,-4.4162,-4.3341,-4.3013,-4.2938,-4.2862,-4.2804,-4.2688,-4.2081,-4.1332,-4.0816,-3.9851,-3.8607,-3.8007,-3.7739,-3.7541,-3.7167,-3.7115,-3.6987,-3.697,-3.697,-3.697,-3.697,-3.697,-3.697,-3.697,-3.697,-3.697,-3.697,-3.697,-3.697,-3.697,-3.697,-3.697,-3.697,-3.697,-3.697,-3.697,-3.697,-3.697,-3.697,-3.697,-3.7009,-3.7048,-3.7048,-3.7048,-3.7048,-3.7087,-3.7048,-3.7009,-3.7009,-3.7009,-3.7069,-3.7069,-3.7031,-3.7031,-3.7069,-3.7031,-3.7048,-3.7009,-3.7009,-3.7009,-3.7009,-3.7009,-3.7009,-3.6948]}]]